[[{"header":{"parameterUnit":"m.s-1","parameterCategory":1,"la1":31.0,"la2":29.5877,"lo1":-88.7671,"lo2":-86.6584,"dy":0.0162,"dx":0.0185,"nx":115,"ny":88,"refTime":"2024-03-06T18:00:00:Z","depth":0,"parameterNumber":2,"parameterNumberName":"U-component_of_WINDS"},"data":[0.0,0.0,0.0,0.0,0.0,0.0,0.0,0.0,0.0,0.0,0.0,0.0,0.0,0.0,0.0,0.0,0.0,0.0,0.0,0.0,0.0,0.0,0.0,0.0,0.0,0.0,0.0,0.0,0.0,0.0,0.0,0.0,0.0,0.0,0.0,0.0,0.0,0.0,0.0,0.0,0.0,0.0,0.0,0.0,0.0,0.0,0.0,0.0,0.0,0.0,0.0,0.0,0.0,0.0,0.0,0.0,0.0,0.0,0.0,0.0,0.0,0.0,0.0,0.0,0.0,0.0,0.0,0.0,0.0,0.0,0.0,0.0,0.0,0.0,0.0,0.0,0.0,0.0,0.0,0.0,0.0,0.0,0.0,0.0,0.0,0.0,0.0,0.0,0.0,0.0,0.0,0.0,0.0,0.0,0.0,0.0,0.0,0.0,0.0,0.0,0.0,0.0,0.0,0.0,0.0,0.0,0.0,0.0,0.0,0.0,0.0,0.0,0.0,0.0,0.0,0.0,0.0,0.0,0.0,0.0,0.0,0.0,0.0,0.0,0.0,0.0,0.0,0.0,0.0,0.0,0.0,0.0,0.0,0.0,0.0,0.0,0.0,0.0,0.0,0.0,0.0,0.0,0.0,0.0,0.0,0.0,0.0,0.0,0.0,0.0,0.0,0.0,0.0,0.0,0.0,0.0,0.0,0.0,0.0,0.0,0.0,0.0,0.0,0.0,0.0,0.0,0.0,0.0,0.0,0.0,0.0,0.0,0.0,0.0,0.0,0.0,0.0,0.0,0.0,0.0,0.0,0.0,0.0,0.0,0.0,0.0,0.0,0.0,0.0,0.0,0.0,0.0,0.0,0.0,0.0,0.0,0.0,0.0,0.0,0.0,0.0,0.0,0.0,0.0,0.0,0.0,0.0,0.0,0.0,0.0,0.0,0.0,0.0,0.0,0.0,0.0,0.0,0.0,0.0,0.0,0.0,0.0,0.0,0.0,0.0,0.0,0.0,0.0,0.0,0.0,0.0,0.0,0.0,0.0,0.0,0.0,0.0,0.0,0.0,0.0,0.0,0.0,0.0,0.0,0.0,0.0,0.0,0.0,0.0,0.0,0.0,0.0,0.0,0.0,0.0,0.0,0.0,0.0,0.0,0.0,0.0,0.0,0.0,0.0,0.0,0.0,0.0,0.0,0.0,0.0,0.0,0.0,0.0,0.0,0.0,0.0,0.0,0.0,0.0,0.0,0.0,0.0,0.0,0.0,0.0,0.0,0.0,0.0,0.0,0.0,0.0,0.0,0.0,0.0,0.0,0.0,0.0,0.0,0.0,0.0,0.0,0.0,0.0,0.0,0.0,0.0,0.0,0.0,0.0,0.0,0.0,0.0,0.0,0.0,0.0,0.0,0.0,0.0,0.0,0.0,0.0,0.0,0.0,0.0,0.0,0.0,0.0,0.0,0.0,0.0,0.0,0.0,0.0,0.0,0.0,0.0,0.0,0.0,0.0,0.0,0.0,0.0,0.0,0.0,0.0,0.0,0.0,0.0,0.0,0.0,0.0,0.0,0.0,0.0,0.0,0.0,0.0,0.0,0.0,0.0,0.0,0.0,0.0,0.0,0.0,0.0,0.0,0.0,0.0,0.0,0.0,0.0,0.0,0.0,0.0,0.0,0.0,0.0,0.0,0.0,0.0,0.0,0.0,0.0,0.0,0.0,0.0,0.0,0.0,0.0,0.0,0.0,0.0,0.0,0.0,0.0,0.0,0.0,0.0,0.0,0.0,0.0,0.0,0.0,0.0,0.0,0.0,0.0,0.0,0.0,0.0,0.0,0.0,0.0,0.0,0.0,0.0,0.0,0.0,0.0,0.0,0.0,0.0,0.0,0.0,0.0,0.0,0.0,0.0,0.0,0.0,0.0,0.0,0.0,0.0,0.0,0.0,0.0,0.0,0.0,0.0,0.0,0.0,0.0,0.0,0.0,0.0,0.0,0.0,0.0,0.0,0.0,0.0,0.0,0.0,0.0,0.0,0.0,0.0,0.0,0.0,0.0,0.0,0.0,0.0,0.0,0.0,0.0,0.0,0.0,0.0,0.0,0.0,0.0,0.0,0.0,0.0,0.0,0.0,0.0,0.0,0.0,0.0,0.0,0.0,0.0,0.0,0.0,0.0,0.0,0.0,0.0,0.0,0.0,0.0,0.0,0.0,0.0,0.0,0.0,0.0,0.0,0.0,0.0,0.0,0.0,0.0,0.0,0.0,0.0,0.0,0.0,0.0,0.0,0.0,0.0,0.0,0.0,0.0,0.0,0.0,0.0,0.0,0.0,0.0,0.0,0.0,0.0,0.0,0.0,0.0,0.0,0.0,0.0,0.0,0.0,0.0,0.0,0.0,0.0,0.0,0.0,0.0,0.0,0.0,0.0,0.0,0.0,0.0,0.0,0.0,0.0,0.0,0.0,0.0,0.0,0.0,0.0,0.0,0.0,0.0,0.0,0.0,0.0,0.0,0.0,0.0,0.0,0.0,0.0,0.0,0.0,0.0,0.0,0.0,0.0,0.0,0.0,0.0,0.0,0.0,0.0,0.0,0.0,0.0,0.0,0.0,0.0,0.0,0.0,0.0,0.0,0.0,0.0,0.0,0.0,0.0,0.0,0.0,0.0,0.0,0.0,0.0,0.0,0.0,0.0,0.0,0.0,0.0,0.0,0.0,0.0,0.0,0.0,0.0,0.0,0.0,0.0,0.0,0.0,0.0,0.0,0.0,0.0,0.0,0.0,0.0,0.0,0.0,0.0,0.0,0.0,0.0,0.0,0.0,0.0,0.0,0.0,0.0,0.0,0.0,0.0,0.0,0.0,0.0,0.0,0.0,0.0,0.0,0.0,0.0,0.0,0.0,0.0,0.0,0.0,0.0,0.0,0.0,0.0,0.0,0.0,0.0,0.0,0.0,0.0,0.0,0.0,0.0,0.0,0.0,0.0,0.0,0.0,0.0,0.0,0.0,0.0,0.0,0.0,0.0,0.0,0.0,0.0,0.0,0.0,0.0,0.0,0.0,0.0,0.0,0.0,0.0,0.0,0.0,0.0,0.0,0.0,0.0,0.0,0.0,0.0,0.0,0.0,0.0,0.0,0.0,0.0,0.0,0.0,0.0,0.0,0.0,0.0,0.0,0.0,0.0,0.0,0.0,0.0,0.0,0.0,0.0,0.0,0.0,0.0,0.0,0.0,0.0,0.0,0.0,0.0,0.0,0.0,0.0,0.0,0.0,0.0,0.0,0.0,0.0,0.0,0.0,0.0,0.0,0.0,0.0,0.0,0.0,0.0,0.0,0.0,0.0,0.0,0.0,0.0,0.0,0.0,0.0,0.0,0.0,0.0,0.0,0.0,0.0,0.0,0.0,0.0,0.0,0.0,0.0,0.0,0.0,0.0,0.0,0.0,0.0,0.0,0.0,0.0,0.0,0.0,0.0,0.0,0.0,0.0,0.0,0.0,0.0,0.0,0.0,0.0,0.0,0.0,0.0,0.0,0.0,0.0,0.0,0.0,0.0,0.0,0.0,0.0,0.0,0.0,0.0,0.0,0.0,0.0,0.0,0.0,0.0,0.0,0.0,0.0,0.0,0.0,0.0,0.0,0.0,0.0,0.0,0.0,0.0,0.0,0.0,0.0,0.0,0.0,0.0,0.0,0.0,0.0,0.0,0.0,0.0,0.0,0.0,0.0,0.0,0.0,0.0,0.0,0.0,0.0,0.0,0.0,0.0,0.0,0.0,0.0,0.0,0.0,0.0,0.0,0.0,0.0,0.0,0.0,0.0,0.0,0.0,0.0,0.0,0.0,0.0,0.0,0.0,0.0,0.0,0.0,0.0,0.0,0.0,0.0,0.0,0.0,0.0,0.0,0.0,0.0,0.0,0.0,0.0,0.0,0.0,0.0,0.0,0.0,0.0,0.0,0.0,0.0,0.0,0.0,0.0,0.0,0.0,0.0,0.0,0.0,0.0,0.0,0.0,0.0,0.0,0.0,0.0,0.0,0.0,0.0,0.0,0.0,0.0,0.0,0.0,0.0,0.0,0.0,0.0,0.0,0.0,0.0,0.0,0.0,0.0,0.0,0.0,0.0,0.0,0.0,0.0,0.0,0.0,0.0,0.0,0.0,0.0,0.0,0.0,0.0,0.0,0.0,0.0,0.0,0.0,0.0,0.0,0.0,0.0,0.0,0.0,0.0,0.0,0.0,0.0,0.0,0.0,0.0,0.0,0.0,0.0,0.0,0.0,0.0,3.0234,0.0,0.0,0.0,0.0,0.0,0.0,0.0,0.0,0.0,0.0,0.0,0.0,0.0,0.0,0.0,0.0,0.0,0.0,0.0,0.0,0.0,0.0,0.0,0.0,0.0,0.0,0.0,0.0,0.0,0.0,0.0,0.0,0.0,0.0,0.0,0.0,0.0,0.0,0.0,0.0,0.0,0.0,0.0,0.0,0.0,0.0,0.0,0.0,0.0,0.0,0.0,0.0,0.0,0.0,0.0,0.0,0.0,0.0,0.0,0.0,0.0,0.0,0.0,0.0,0.0,0.0,0.0,0.0,0.0,0.0,0.0,0.0,0.0,0.0,0.0,0.0,0.0,0.0,0.0,0.0,0.0,0.0,0.0,0.0,0.0,0.0,0.0,0.0,0.0,0.0,0.0,0.0,0.0,0.0,0.0,0.0,0.0,0.0,0.0,0.0,0.0,0.0,0.0,0.0,0.0,0.0,0.0,0.0,0.0,0.0,3.0383,3.0383,3.0383,3.0383,3.0383,0.0,0.0,0.0,0.0,0.0,0.0,0.0,0.0,0.0,0.0,0.0,0.0,0.0,0.0,0.0,0.0,0.0,0.0,0.0,0.0,0.0,0.0,0.0,0.0,0.0,0.0,0.0,0.0,0.0,0.0,0.0,0.0,0.0,0.0,0.0,0.0,0.0,0.0,0.0,0.0,0.0,0.0,0.0,0.0,0.0,0.0,0.0,0.0,0.0,0.0,0.0,0.0,0.0,0.0,0.0,0.0,0.0,0.0,0.0,0.0,0.0,0.0,0.0,0.0,0.0,0.0,0.0,0.0,0.0,0.0,0.0,0.0,0.0,0.0,0.0,0.0,0.0,0.0,0.0,0.0,0.0,0.0,0.0,0.0,0.0,0.0,0.0,0.0,0.0,0.0,0.0,0.0,0.0,0.0,0.0,0.0,0.0,0.0,0.0,0.0,0.0,0.0,0.0,0.0,0.0,0.0,0.0,0.0,0.0,0.0,0.0,0.0,3.05,3.0383,3.0383,0.0,0.0,0.0,0.0,0.0,0.0,0.0,0.0,0.0,0.0,0.0,0.0,0.0,0.0,0.0,0.0,0.0,0.0,0.0,0.0,0.0,0.0,0.0,0.0,0.0,0.0,0.0,0.0,0.0,0.0,0.0,0.0,0.0,0.0,0.0,0.0,0.0,0.0,0.0,0.0,0.0,0.0,0.0,0.0,0.0,0.0,0.0,0.0,0.0,0.0,0.0,0.0,0.0,0.0,0.0,0.0,0.0,0.0,0.0,0.0,0.0,0.0,0.0,0.0,0.0,0.0,0.0,0.0,0.0,0.0,0.0,0.0,0.0,0.0,0.0,0.0,0.0,0.0,0.0,0.0,0.0,0.0,0.0,0.0,0.0,0.0,0.0,0.0,0.0,0.0,0.0,0.0,0.0,0.0,0.0,0.0,0.0,0.0,0.0,0.0,0.0,0.0,0.0,0.0,0.0,0.0,0.0,0.0,0.0,0.0,3.0771,3.1543,3.0809,0.0,3.0383,0.0,0.0,0.0,0.0,0.0,0.0,0.0,0.0,0.0,0.0,0.0,0.0,0.0,0.0,0.0,0.0,0.0,0.0,0.0,0.0,0.0,0.0,0.0,0.0,0.0,0.0,0.0,0.0,0.0,0.0,0.0,0.0,0.0,0.0,0.0,0.0,0.0,0.0,0.0,0.0,0.0,0.0,0.0,0.0,0.0,0.0,0.0,0.0,0.0,0.0,0.0,0.0,0.0,0.0,0.0,0.0,0.0,0.0,0.0,0.0,0.0,0.0,0.0,0.0,0.0,0.0,0.0,0.0,0.0,0.0,0.0,0.0,0.0,0.0,0.0,0.0,0.0,0.0,0.0,0.0,0.0,0.0,0.0,0.0,0.0,0.0,0.0,0.0,0.0,0.0,0.0,0.0,0.0,0.0,0.0,0.0,0.0,0.0,0.0,0.0,0.0,0.0,0.0,0.0,0.0,0.0,0.0,0.0,0.0,0.0,3.1078,3.0925,3.0577,3.0383,0.0,0.0,0.0,0.0,0.0,0.0,0.0,0.0,0.0,0.0,0.0,0.0,0.0,0.0,0.0,0.0,0.0,0.0,0.0,0.0,0.0,0.0,0.0,0.0,0.0,0.0,0.0,0.0,0.0,0.0,0.0,0.0,0.0,0.0,0.0,0.0,0.0,0.0,0.0,0.0,0.0,0.0,0.0,0.0,0.0,0.0,0.0,0.0,0.0,0.0,0.0,0.0,0.0,0.0,0.0,0.0,0.0,0.0,0.0,0.0,0.0,0.0,0.0,0.0,0.0,0.0,0.0,0.0,0.0,0.0,0.0,0.0,0.0,0.0,0.0,0.0,0.0,0.0,0.0,0.0,0.0,0.0,0.0,0.0,0.0,0.0,0.0,0.0,0.0,0.0,0.0,0.0,0.0,0.0,0.0,0.0,0.0,0.0,0.0,0.0,0.0,0.0,0.0,0.0,0.0,0.0,0.0,0.0,0.0,0.0,3.1503,3.1388,3.0808,3.0769,3.0654,3.0422,0.0,0.0,0.0,0.0,0.0,0.0,0.0,0.0,0.0,0.0,0.0,0.0,0.0,0.0,0.0,0.0,0.0,0.0,0.0,0.0,0.0,0.0,0.0,0.0,0.0,0.0,0.0,0.0,0.0,0.0,0.0,0.0,0.0,0.0,0.0,0.0,0.0,0.0,0.0,0.0,0.0,0.0,0.0,0.0,0.0,0.0,0.0,0.0,0.0,0.0,0.0,0.0,0.0,0.0,0.0,0.0,0.0,0.0,0.0,0.0,0.0,0.0,0.0,0.0,0.0,0.0,0.0,0.0,0.0,0.0,0.0,0.0,0.0,0.0,0.0,0.0,0.0,0.0,0.0,0.0,0.0,0.0,0.0,0.0,0.0,0.0,0.0,0.0,0.0,0.0,0.0,0.0,0.0,0.0,0.0,0.0,0.0,0.0,0.0,0.0,0.0,0.0,0.0,0.0,0.0,0.0,0.0,0.0,3.2659,3.2043,3.1698,3.1618,3.166,3.1271,0.0,0.0,0.0,0.0,0.0,0.0,0.0,0.0,0.0,0.0,0.0,0.0,0.0,0.0,0.0,0.0,0.0,0.0,0.0,0.0,0.0,0.0,0.0,0.0,0.0,0.0,0.0,0.0,0.0,0.0,0.0,0.0,0.0,0.0,0.0,0.0,0.0,0.0,0.0,0.0,0.0,0.0,0.0,0.0,0.0,0.0,0.0,0.0,0.0,0.0,0.0,0.0,0.0,0.0,0.0,0.0,0.0,0.0,0.0,0.0,0.0,0.0,0.0,0.0,0.0,0.0,0.0,0.0,0.0,0.0,0.0,0.0,0.0,0.0,0.0,0.0,0.0,0.0,0.0,0.0,0.0,0.0,0.0,0.0,0.0,0.0,0.0,0.0,0.0,0.0,0.0,0.0,0.0,0.0,0.0,0.0,0.0,0.0,0.0,0.0,0.0,0.0,0.0,0.0,0.0,0.0,0.0,0.0,0.0,3.1272,3.1001,3.1388,3.2391,3.1425,3.0962,0.0,0.0,0.0,0.0,0.0,0.0,0.0,0.0,0.0,0.0,0.0,0.0,0.0,0.0,0.0,0.0,0.0,0.0,0.0,0.0,0.0,0.0,0.0,0.0,0.0,0.0,0.0,0.0,0.0,0.0,0.0,0.0,0.0,0.0,0.0,0.0,0.0,0.0,0.0,0.0,0.0,0.0,0.0,0.0,0.0,0.0,0.0,0.0,0.0,0.0,0.0,0.0,0.0,0.0,0.0,0.0,0.0,0.0,0.0,0.0,0.0,0.0,0.0,0.0,0.0,0.0,0.0,0.0,0.0,0.0,0.0,0.0,0.0,0.0,0.0,0.0,0.0,0.0,0.0,0.0,0.0,0.0,0.0,0.0,0.0,0.0,0.0,0.0,0.0,0.0,0.0,0.0,0.0,0.0,0.0,0.0,0.0,0.0,0.0,0.0,0.0,0.0,0.0,0.0,0.0,0.0,0.0,0.0,0.0,3.1194,0.0,3.2042,3.2814,3.1809,3.1234,0.0,0.0,0.0,0.0,0.0,0.0,0.0,0.0,0.0,0.0,0.0,0.0,0.0,0.0,0.0,0.0,0.0,0.0,0.0,0.0,0.0,0.0,0.0,0.0,0.0,0.0,0.0,0.0,0.0,0.0,0.0,0.0,0.0,0.0,0.0,0.0,0.0,0.0,0.0,0.0,0.0,0.0,0.0,0.0,0.0,0.0,0.0,0.0,0.0,0.0,0.0,0.0,0.0,0.0,0.0,0.0,0.0,0.0,0.0,0.0,0.0,0.0,0.0,0.0,0.0,0.0,0.0,0.0,0.0,0.0,0.0,0.0,0.0,0.0,0.0,0.0,0.0,0.0,0.0,0.0,0.0,0.0,0.0,0.0,0.0,0.0,0.0,0.0,0.0,0.0,0.0,0.0,0.0,0.0,0.0,0.0,0.0,0.0,0.0,0.0,0.0,0.0,0.0,0.0,0.0,0.0,0.0,0.0,3.1231,3.2814,3.3627,3.3664,3.2968,3.2854,3.2118,0.0,0.0,0.0,0.0,0.0,0.0,0.0,0.0,0.0,0.0,0.0,0.0,0.0,0.0,0.0,0.0,0.0,0.0,0.0,0.0,0.0,0.0,0.0,0.0,0.0,0.0,0.0,0.0,0.0,0.0,0.0,0.0,0.0,0.0,0.0,0.0,0.0,0.0,0.0,0.0,0.0,0.0,0.0,0.0,0.0,0.0,0.0,0.0,0.0,0.0,0.0,0.0,0.0,0.0,0.0,0.0,0.0,0.0,0.0,0.0,0.0,0.0,0.0,0.0,0.0,0.0,0.0,0.0,0.0,0.0,0.0,0.0,0.0,0.0,0.0,0.0,0.0,0.0,0.0,0.0,0.0,0.0,0.0,0.0,0.0,0.0,0.0,0.0,0.0,0.0,0.0,0.0,0.0,0.0,0.0,0.0,0.0,0.0,0.0,0.0,0.0,0.0,0.0,0.0,0.0,0.0,0.0,0.0,0.0,3.2082,3.2891,3.347,3.3742,3.3202,3.2659,0.0,0.0,0.0,0.0,0.0,0.0,0.0,0.0,0.0,0.0,0.0,0.0,0.0,0.0,0.0,0.0,0.0,0.0,0.0,0.0,0.0,0.0,0.0,0.0,0.0,0.0,0.0,0.0,0.0,0.0,0.0,0.0,0.0,0.0,0.0,0.0,0.0,0.0,0.0,0.0,0.0,0.0,0.0,0.0,0.0,0.0,0.0,0.0,0.0,0.0,0.0,0.0,0.0,0.0,0.0,0.0,0.0,0.0,0.0,0.0,0.0,0.0,0.0,0.0,0.0,0.0,0.0,0.0,0.0,0.0,0.0,0.0,0.0,0.0,0.0,0.0,0.0,0.0,0.0,0.0,0.0,0.0,0.0,0.0,0.0,0.0,0.0,0.0,0.0,0.0,0.0,0.0,0.0,0.0,0.0,0.0,0.0,0.0,0.0,0.0,0.0,0.0,0.0,0.0,0.0,0.0,0.0,0.0,0.0,3.3891,3.4157,3.4428,3.4701,3.4159,3.3542,3.2931,0.0,0.0,0.0,0.0,0.0,0.0,0.0,0.0,0.0,0.0,0.0,0.0,0.0,0.0,0.0,0.0,0.0,0.0,0.0,0.0,0.0,0.0,0.0,0.0,0.0,0.0,0.0,0.0,0.0,0.0,0.0,0.0,0.0,0.0,0.0,0.0,0.0,0.0,0.0,0.0,0.0,0.0,0.0,0.0,0.0,0.0,0.0,0.0,0.0,0.0,0.0,0.0,0.0,0.0,0.0,0.0,0.0,0.0,0.0,0.0,0.0,0.0,0.0,0.0,0.0,0.0,0.0,0.0,0.0,0.0,0.0,0.0,0.0,0.0,0.0,0.0,0.0,0.0,0.0,0.0,0.0,0.0,0.0,0.0,0.0,0.0,0.0,0.0,0.0,0.0,0.0,0.0,0.0,0.0,0.0,0.0,0.0,0.0,0.0,0.0,0.0,0.0,0.0,0.0,0.0,0.0,0.0,0.0,3.7602,3.7164,3.6578,3.5822,3.5685,3.4844,0.0,0.0,0.0,0.0,0.0,0.0,0.0,0.0,0.0,0.0,0.0,0.0,0.0,0.0,0.0,0.0,0.0,0.0,0.0,0.0,0.0,0.0,0.0,0.0,0.0,0.0,0.0,0.0,0.0,0.0,0.0,0.0,0.0,0.0,0.0,0.0,0.0,0.0,0.0,0.0,0.0,0.0,0.0,0.0,0.0,0.0,0.0,0.0,0.0,0.0,0.0,0.0,0.0,0.0,0.0,0.0,0.0,0.0,0.0,0.0,0.0,0.0,0.0,0.0,0.0,0.0,0.0,0.0,0.0,0.0,0.0,0.0,0.0,0.0,0.0,0.0,0.0,0.0,0.0,0.0,0.0,0.0,0.0,0.0,0.0,0.0,0.0,0.0,0.0,0.0,0.0,0.0,0.0,0.0,0.0,0.0,0.0,0.0,0.0,0.0,0.0,0.0,0.0,0.0,0.0,0.0,0.0,0.0,0.0,3.8909,3.9472,3.9454,3.8831,3.7874,3.6732,0.0,0.0,0.0,0.0,0.0,0.0,0.0,0.0,0.0,0.0,0.0,0.0,0.0,0.0,0.0,0.0,0.0,0.0,0.0,0.0,0.0,0.0,0.0,0.0,0.0,0.0,0.0,0.0,0.0,0.0,0.0,0.0,0.0,0.0,0.0,0.0,0.0,0.0,0.0,0.0,0.0,0.0,0.0,0.0,0.0,0.0,0.0,0.0,0.0,0.0,0.0,0.0,0.0,0.0,0.0,0.0,0.0,0.0,0.0,0.0,0.0,0.0,0.0,0.0,0.0,0.0,0.0,0.0,0.0,0.0,0.0,0.0,0.0,0.0,0.0,0.0,0.0,0.0,0.0,0.0,0.0,0.0,0.0,0.0,0.0,0.0,0.0,0.0,0.0,0.0,0.0,0.0,0.0,0.0,0.0,0.0,0.0,0.0,0.0,0.0,0.0,0.0,0.0,0.0,0.0,0.0,0.0,0.0,3.8647,4.0381,4.1694,4.2156,4.1702,4.0058,3.838,0.0,0.0,0.0,0.0,0.0,0.0,0.0,0.0,0.0,0.0,0.0,0.0,0.0,0.0,0.0,0.0,0.0,0.0,0.0,0.0,0.0,0.0,0.0,0.0,0.0,0.0,0.0,0.0,0.0,0.0,0.0,0.0,0.0,0.0,0.0,0.0,0.0,0.0,0.0,0.0,0.0,0.0,0.0,0.0,0.0,0.0,0.0,0.0,0.0,0.0,0.0,0.0,0.0,0.0,0.0,0.0,0.0,0.0,0.0,0.0,0.0,0.0,0.0,0.0,0.0,0.0,0.0,0.0,0.0,0.0,0.0,0.0,0.0,0.0,0.0,0.0,0.0,0.0,0.0,0.0,0.0,0.0,0.0,0.0,0.0,0.0,0.0,0.0,0.0,0.0,0.0,0.0,0.0,0.0,0.0,0.0,0.0,0.0,0.0,0.0,0.0,0.0,0.0,0.0,0.0,0.0,0.0,0.0,4.0562,4.1673,4.3516,4.4297,4.3919,4.191,3.9706,0.0,0.0,0.0,0.0,0.0,0.0,0.0,0.0,0.0,0.0,0.0,0.0,0.0,0.0,0.0,0.0,0.0,0.0,0.0,0.0,0.0,0.0,0.0,0.0,0.0,0.0,0.0,0.0,0.0,0.0,0.0,0.0,0.0,0.0,0.0,0.0,0.0,0.0,0.0,0.0,0.0,0.0,0.0,0.0,0.0,0.0,0.0,0.0,0.0,0.0,0.0,0.0,0.0,0.0,0.0,0.0,0.0,0.0,0.0,0.0,0.0,0.0,0.0,0.0,0.0,0.0,0.0,0.0,0.0,0.0,0.0,0.0,0.0,0.0,0.0,0.0,0.0,0.0,0.0,0.0,0.0,0.0,0.0,0.0,0.0,0.0,0.0,0.0,0.0,0.0,0.0,0.0,0.0,0.0,0.0,0.0,0.0,0.0,0.0,0.0,0.0,0.0,0.0,0.0,0.0,0.0,0.0,0.0,4.0859,4.2153,4.3189,4.371,4.3618,4.1768,4.0118,0.0,0.0,0.0,0.0,0.0,0.0,0.0,0.0,0.0,0.0,0.0,0.0,0.0,0.0,0.0,0.0,0.0,0.0,0.0,0.0,0.0,0.0,0.0,0.0,0.0,0.0,0.0,0.0,0.0,0.0,0.0,0.0,0.0,0.0,0.0,0.0,0.0,0.0,0.0,0.0,0.0,0.0,0.0,0.0,0.0,0.0,0.0,0.0,3.7262,0.0,0.0,0.0,0.0,0.0,0.0,0.0,0.0,0.0,0.0,0.0,0.0,0.0,0.0,0.0,0.0,0.0,0.0,0.0,0.0,0.0,0.0,0.0,0.0,0.0,0.0,0.0,0.0,0.0,0.0,0.0,0.0,0.0,0.0,0.0,0.0,0.0,0.0,0.0,0.0,0.0,0.0,0.0,0.0,0.0,0.0,0.0,0.0,0.0,0.0,0.0,0.0,0.0,0.0,0.0,0.0,0.0,0.0,0.0,4.0944,4.2262,4.3102,4.3502,4.3445,4.2216,4.0691,0.0,0.0,0.0,0.0,0.0,0.0,0.0,0.0,0.0,0.0,0.0,0.0,0.0,0.0,0.0,0.0,0.0,0.0,0.0,0.0,0.0,0.0,0.0,0.0,0.0,0.0,0.0,0.0,0.0,0.0,0.0,0.0,0.0,0.0,0.0,0.0,0.0,0.0,0.0,0.0,0.0,0.0,0.0,0.0,0.0,0.0,0.0,0.0,0.0,0.0,0.0,0.0,0.0,0.0,0.0,0.0,0.0,0.0,0.0,0.0,0.0,0.0,0.0,0.0,0.0,0.0,0.0,0.0,0.0,0.0,0.0,0.0,0.0,0.0,0.0,0.0,0.0,0.0,0.0,0.0,0.0,0.0,0.0,0.0,0.0,0.0,0.0,0.0,0.0,0.0,0.0,0.0,0.0,0.0,0.0,0.0,0.0,0.0,0.0,0.0,0.0,0.0,0.0,0.0,0.0,0.0,0.0,3.9666,4.0973,4.2413,4.3139,4.3502,4.3469,4.2841,4.1295,3.8836,0.0,0.0,0.0,0.0,0.0,0.0,0.0,0.0,0.0,0.0,0.0,0.0,0.0,0.0,0.0,0.0,0.0,0.0,0.0,0.0,0.0,0.0,0.0,0.0,0.0,0.0,0.0,0.0,0.0,0.0,0.0,0.0,0.0,0.0,0.0,0.0,0.0,0.0,3.4625,3.5544,0.0,0.0,0.0,0.0,0.0,0.0,0.0,0.0,3.6996,0.0,0.0,0.0,0.0,0.0,0.0,0.0,0.0,0.0,0.0,0.0,0.0,0.0,0.0,0.0,0.0,0.0,0.0,0.0,0.0,0.0,0.0,0.0,0.0,0.0,0.0,0.0,0.0,0.0,0.0,0.0,0.0,0.0,0.0,0.0,0.0,0.0,0.0,0.0,0.0,0.0,0.0,0.0,0.0,0.0,0.0,0.0,0.0,0.0,0.0,0.0,0.0,0.0,0.0,0.0,0.0,3.9604,3.9878,4.107,4.3217,4.3433,4.3502,4.3502,4.3359,4.1854,3.8905,0.0,0.0,0.0,0.0,0.0,0.0,0.0,0.0,0.0,0.0,0.0,0.0,0.0,0.0,0.0,0.0,0.0,0.0,0.0,0.0,0.0,0.0,0.0,0.0,0.0,0.0,0.0,0.0,0.0,0.0,0.0,0.0,0.0,0.0,0.0,0.0,0.0,0.0,0.0,3.8125,3.8526,0.0,0.0,0.0,0.0,0.0,0.0,0.0,0.0,3.8163,0.0,0.0,0.0,0.0,0.0,0.0,0.0,0.0,0.0,0.0,0.0,0.0,0.0,0.0,0.0,0.0,0.0,0.0,0.0,0.0,0.0,0.0,0.0,0.0,0.0,0.0,0.0,0.0,0.0,0.0,0.0,0.0,0.0,0.0,0.0,0.0,0.0,0.0,0.0,0.0,0.0,0.0,0.0,0.0,0.0,0.0,0.0,0.0,0.0,0.0,0.0,0.0,0.0,0.0,0.0,3.942,4.0583,4.1923,4.3433,4.3502,4.3502,4.3465,4.269,4.1148,0.0,0.0,0.0,0.0,0.0,0.0,0.0,0.0,0.0,0.0,0.0,0.0,0.0,0.0,0.0,0.0,0.0,0.0,0.0,0.0,0.0,0.0,0.0,0.0,0.0,0.0,0.0,0.0,0.0,0.0,0.0,0.0,0.0,0.0,0.0,0.0,0.0,0.0,0.0,0.0,3.8663,3.8965,3.9871,0.0,0.0,0.0,0.0,0.0,0.0,3.8829,3.843,0.0,0.0,0.0,0.0,0.0,0.0,0.0,0.0,0.0,0.0,0.0,0.0,0.0,0.0,0.0,0.0,0.0,0.0,0.0,0.0,0.0,0.0,0.0,0.0,0.0,0.0,0.0,0.0,0.0,0.0,0.0,0.0,0.0,0.0,0.0,0.0,0.0,0.0,0.0,0.0,0.0,0.0,0.0,0.0,0.0,0.0,0.0,0.0,0.0,0.0,0.0,0.0,0.0,0.0,0.0,3.9032,4.1031,4.2543,4.3433,4.3502,4.3502,4.3469,4.2098,4.0516,0.0,0.0,0.0,0.0,0.0,0.0,0.0,0.0,0.0,0.0,0.0,0.0,0.0,0.0,0.0,0.0,0.0,0.0,0.0,0.0,0.0,0.0,0.0,0.0,0.0,0.0,0.0,0.0,0.0,0.0,0.0,0.0,0.0,0.0,0.0,0.0,0.0,0.0,0.0,0.0,0.0,3.944,4.1247,3.9938,0.0,0.0,0.0,0.0,3.9946,3.9461,0.0,0.0,0.0,0.0,0.0,0.0,0.0,0.0,0.0,0.0,0.0,0.0,0.0,0.0,0.0,0.0,0.0,0.0,0.0,0.0,0.0,0.0,0.0,0.0,0.0,0.0,0.0,0.0,0.0,0.0,0.0,0.0,0.0,0.0,0.0,0.0,0.0,0.0,0.0,0.0,0.0,0.0,0.0,0.0,0.0,0.0,0.0,0.0,0.0,0.0,0.0,0.0,0.0,0.0,0.0,0.0,3.8742,4.0385,4.1956,4.3396,4.3506,4.3502,4.3469,4.2621,4.1075,0.0,0.0,0.0,0.0,0.0,0.0,0.0,0.0,0.0,0.0,0.0,0.0,0.0,0.0,0.0,0.0,0.0,0.0,0.0,0.0,0.0,0.0,0.0,0.0,0.0,0.0,0.0,0.0,0.0,0.0,0.0,0.0,0.0,0.0,0.0,0.0,0.0,0.0,0.0,0.0,0.0,4.116,4.0718,4.1048,4.1089,0.0,0.0,4.1668,4.2559,4.259,0.0,0.0,0.0,0.0,0.0,0.0,0.0,0.0,0.0,0.0,0.0,0.0,0.0,0.0,0.0,0.0,0.0,0.0,0.0,0.0,0.0,0.0,0.0,0.0,0.0,0.0,0.0,0.0,0.0,0.0,0.0,0.0,0.0,0.0,0.0,0.0,0.0,0.0,0.0,0.0,0.0,0.0,0.0,0.0,0.0,0.0,0.0,0.0,0.0,0.0,0.0,0.0,0.0,0.0,0.0,3.8028,3.8758,4.1185,4.2804,4.3469,4.3938,4.3942,4.3506,4.2286,4.0704,0.0,0.0,0.0,0.0,0.0,0.0,0.0,0.0,0.0,0.0,0.0,0.0,0.0,0.0,0.0,0.0,0.0,0.0,0.0,0.0,0.0,0.0,0.0,0.0,0.0,0.0,0.0,0.0,0.0,0.0,0.0,0.0,0.0,0.0,0.0,0.0,0.0,0.0,0.0,0.0,0.0,0.0,4.2507,4.2595,0.0,0.0,0.0,4.337,4.372,0.0,0.0,0.0,0.0,0.0,0.0,0.0,0.0,0.0,0.0,0.0,0.0,0.0,0.0,0.0,0.0,0.0,0.0,0.0,0.0,0.0,0.0,0.0,0.0,0.0,0.0,0.0,0.0,0.0,0.0,0.0,0.0,0.0,0.0,0.0,0.0,0.0,0.0,0.0,0.0,0.0,0.0,0.0,0.0,0.0,0.0,0.0,0.0,0.0,0.0,0.0,0.0,0.0,0.0,0.0,0.0,0.0,3.9052,4.2364,4.4093,4.4093,4.4668,4.4709,4.4093,4.2755,0.0,0.0,0.0,0.0,0.0,0.0,0.0,0.0,0.0,0.0,0.0,0.0,0.0,0.0,0.0,0.0,0.0,0.0,0.0,0.0,0.0,0.0,0.0,0.0,0.0,0.0,0.0,3.1271,0.0,0.0,0.0,0.0,0.0,0.0,0.0,0.0,0.0,0.0,0.0,0.0,0.0,0.0,4.168,4.3983,4.4162,4.4312,0.0,0.0,4.5007,4.5206,4.581,4.528,0.0,0.0,0.0,0.0,0.0,0.0,0.0,0.0,0.0,0.0,0.0,0.0,0.0,0.0,0.0,0.0,0.0,0.0,0.0,0.0,0.0,0.0,0.0,0.0,0.0,0.0,0.0,0.0,0.0,0.0,0.0,0.0,0.0,0.0,0.0,0.0,0.0,0.0,0.0,0.0,0.0,0.0,0.0,0.0,0.0,0.0,0.0,0.0,0.0,0.0,0.0,0.0,0.0,0.0,0.0,3.9941,4.3718,4.5704,4.5741,4.5814,4.5814,4.5736,4.4924,4.3342,0.0,0.0,0.0,0.0,0.0,0.0,0.0,0.0,0.0,0.0,0.0,0.0,0.0,0.0,0.0,0.0,0.0,0.0,0.0,0.0,0.0,0.0,0.0,0.0,0.0,0.0,0.0,0.0,0.0,0.0,0.0,0.0,0.0,0.0,0.0,0.0,0.0,0.0,0.0,0.0,0.0,4.234,4.4031,4.5656,4.6942,0.0,0.0,4.6983,4.7734,4.7895,4.6817,4.3547,0.0,0.0,0.0,0.0,0.0,0.0,0.0,0.0,0.0,0.0,0.0,0.0,0.0,0.0,0.0,0.0,0.0,0.0,0.0,0.0,0.0,0.0,0.0,0.0,0.0,0.0,0.0,0.0,0.0,0.0,0.0,0.0,0.0,0.0,0.0,0.0,0.0,0.0,0.0,0.0,0.0,0.0,0.0,0.0,0.0,0.0,0.0,0.0,0.0,0.0,0.0,0.0,0.0,4.0157,4.0671,4.4117,4.5888,4.592,4.6388,4.6388,4.5925,4.559,4.408,0.0,0.0,0.0,0.0,0.0,0.0,0.0,0.0,0.0,0.0,0.0,0.0,0.0,0.0,0.0,0.0,0.0,0.0,0.0,0.0,0.0,0.0,0.0,0.0,0.0,0.0,0.0,0.0,3.6937,3.7249,3.7082,0.0,0.0,0.0,0.0,0.0,0.0,0.0,0.0,0.0,0.0,4.3802,4.5979,4.7308,0.0,0.0,4.9111,4.9342,4.9626,4.9452,4.8307,4.5521,4.4542,0.0,0.0,0.0,0.0,0.0,0.0,0.0,0.0,0.0,0.0,0.0,0.0,0.0,0.0,0.0,0.0,0.0,0.0,0.0,0.0,0.0,0.0,0.0,0.0,0.0,0.0,0.0,0.0,0.0,0.0,0.0,0.0,0.0,0.0,0.0,0.0,0.0,0.0,0.0,0.0,0.0,0.0,0.0,0.0,0.0,0.0,0.0,0.0,0.0,0.0,0.0,0.0,4.0891,4.147,4.4847,4.6617,4.6617,4.7159,4.7195,4.6654,4.6613,4.5328,0.0,0.0,0.0,0.0,0.0,0.0,0.0,0.0,0.0,0.0,0.0,0.0,0.0,0.0,0.0,0.0,0.0,0.0,0.0,0.0,0.0,0.0,0.0,0.0,0.0,0.0,0.0,0.0,3.8446,3.87,3.804,0.0,0.0,0.0,0.0,0.0,0.0,0.0,0.0,0.0,0.0,4.5548,4.7763,4.9125,5.0017,5.031,5.0775,5.1054,5.1073,5.0674,4.9614,4.7404,0.0,0.0,0.0,0.0,0.0,0.0,0.0,0.0,0.0,0.0,0.0,0.0,0.0,0.0,0.0,0.0,0.0,0.0,0.0,0.0,0.0,0.0,0.0,0.0,0.0,0.0,0.0,0.0,0.0,0.0,3.1357,0.0,0.0,0.0,0.0,0.0,0.0,0.0,0.0,0.0,0.0,0.0,0.0,0.0,0.0,0.0,0.0,0.0,0.0,0.0,0.0,0.0,0.0,4.2245,4.2359,4.6209,4.8228,4.8264,4.826,4.8296,4.826,4.826,4.7462,4.5773,0.0,0.0,0.0,0.0,0.0,0.0,0.0,0.0,0.0,0.0,0.0,0.0,0.0,0.0,0.0,0.0,0.0,0.0,0.0,0.0,0.0,0.0,0.0,0.0,0.0,0.0,3.4589,3.655,3.8033,0.0,0.0,0.0,0.0,0.0,0.0,0.0,0.0,0.0,0.0,4.5559,4.7447,4.9098,5.1172,5.2433,5.2476,5.2162,5.1906,5.1906,5.1547,5.0684,0.0,0.0,0.0,0.0,0.0,0.0,0.0,0.0,0.0,0.0,0.0,0.0,0.0,0.0,0.0,0.0,0.0,0.0,0.0,0.0,0.0,0.0,0.0,0.0,0.0,0.0,0.0,3.4037,3.3076,0.0,0.0,0.0,0.0,0.0,0.0,0.0,0.0,0.0,0.0,0.0,3.8326,3.9382,0.0,0.0,0.0,0.0,0.0,0.0,0.0,0.0,0.0,0.0,0.0,0.0,4.2832,4.4003,4.7356,4.9417,4.9921,4.9953,4.9958,4.9953,4.9953,4.8673,4.5957,0.0,0.0,0.0,0.0,0.0,0.0,0.0,0.0,0.0,0.0,0.0,0.0,0.0,0.0,0.0,0.0,0.0,0.0,0.0,0.0,0.0,0.0,0.0,0.0,0.0,3.6207,0.0,0.0,0.0,0.0,0.0,0.0,0.0,0.0,0.0,0.0,0.0,4.3792,4.4911,4.7346,4.9222,4.9793,5.188,5.3316,0.0,0.0,0.0,0.0,0.0,0.0,0.0,0.0,0.0,0.0,0.0,0.0,0.0,0.0,4.6757,4.3318,4.2775,4.2947,4.3212,0.0,0.0,0.0,0.0,0.0,0.0,0.0,0.0,0.0,0.0,0.0,0.0,0.0,0.0,3.6527,0.0,3.6072,0.0,0.0,0.0,0.0,0.0,0.0,0.0,0.0,3.9896,4.0777,4.081,4.1874,4.2062,0.0,4.2094,4.1103,0.0,0.0,0.0,0.0,0.0,0.0,0.0,0.0,4.3929,4.5576,4.8494,5.0261,5.0765,5.0802,5.0802,5.0802,5.0802,4.9774,4.7682,4.5553,4.3644,0.0,0.0,0.0,0.0,0.0,0.0,0.0,0.0,0.0,0.0,0.0,0.0,0.0,0.0,0.0,0.0,0.0,0.0,0.0,0.0,0.0,0.0,0.0,3.7964,0.0,0.0,0.0,0.0,0.0,0.0,0.0,0.0,0.0,4.1713,4.4168,4.6383,4.7499,4.9705,5.1278,5.1546,0.0,0.0,0.0,0.0,0.0,0.0,0.0,5.3168,5.2661,5.2427,5.2005,5.1049,5.1515,5.1788,5.1061,0.0,0.0,4.6602,4.5839,4.5948,4.626,4.6191,4.6177,4.6451,4.6973,4.7542,0.0,0.0,0.0,0.0,0.0,0.0,0.0,0.0,3.8942,3.8901,0.0,3.8795,0.0,0.0,0.0,0.0,0.0,3.888,0.0,0.0,4.3489,4.4704,4.4737,4.4769,4.4805,4.4847,4.4916,4.4525,4.3653,4.2204,0.0,0.0,0.0,0.0,0.0,0.0,4.5539,4.7191,4.9581,5.0834,5.0907,5.0912,5.0912,5.0907,5.0875,5.0839,5.076,4.9182,4.7609,4.5989,4.2975,0.0,0.0,0.0,0.0,0.0,0.0,0.0,0.0,0.0,0.0,0.0,0.0,0.0,0.0,0.0,0.0,0.0,0.0,0.0,0.0,3.8548,0.0,0.0,0.0,0.0,0.0,0.0,0.0,0.0,0.0,0.0,4.5374,4.6783,4.8639,5.096,0.0,0.0,0.0,0.0,5.6191,5.6164,5.5893,5.5693,5.5698,5.5333,5.5027,5.5027,0.0,0.0,5.4007,5.4763,5.4872,5.3012,5.4177,5.4607,5.1479,4.9882,4.9371,5.0074,4.9911,4.989,5.0722,5.1801,5.2842,4.2139,0.0,0.0,0.0,0.0,4.0932,4.1699,4.2979,4.2975,4.2351,4.1258,4.1291,0.0,0.0,0.0,0.0,0.0,0.0,4.207,4.2878,4.4117,4.5287,4.6415,4.7012,4.7604,4.8205,4.8788,4.8925,4.8673,4.8264,4.5732,4.136,0.0,0.0,0.0,0.0,4.7232,4.8861,5.0697,5.194,5.248,5.2517,5.2517,5.2517,5.194,5.1651,5.1651,5.065,4.9329,4.7677,4.62,0.0,0.0,0.0,0.0,0.0,0.0,0.0,0.0,0.0,0.0,0.0,0.0,0.0,0.0,0.0,0.0,0.0,0.0,0.0,3.8364,3.9951,4.073,0.0,0.0,0.0,0.0,0.0,0.0,0.0,0.0,0.0,5.0169,5.1056,5.1634,0.0,0.0,5.4784,5.4444,5.5665,5.6614,5.6624,0.0,0.0,0.0,5.6728,5.6265,5.6302,5.5894,5.5671,5.5893,5.5754,5.5385,5.479,5.5185,5.5266,5.4481,5.3941,5.3748,5.3981,5.3904,5.3911,5.4184,5.4601,5.4886,4.5848,4.4009,4.261,4.2506,4.3236,4.3236,4.397,4.5181,4.5186,4.4631,4.3718,4.3718,4.2837,4.1303,4.1009,0.0,0.0,0.0,4.453,4.5929,4.6397,4.7347,4.8548,4.9067,4.9554,5.0073,5.0582,5.0802,5.0802,5.0802,4.9072,4.5769,0.0,0.0,4.5484,4.7494,4.9366,5.1027,5.2611,5.3665,5.4137,5.4142,5.4137,5.4142,5.3371,5.2973,5.2936,5.2192,5.1127,4.9806,4.8673,4.6686,0.0,0.0,0.0,0.0,0.0,0.0,0.0,0.0,0.0,0.0,0.0,3.4765,0.0,0.0,0.0,0.0,3.8308,3.988,4.1619,4.2382,0.0,0.0,0.0,0.0,0.0,0.0,0.0,4.6954,4.914,5.1168,5.3023,5.4044,5.4462,5.3959,5.5176,5.6,5.5866,0.0,5.7737,5.7771,5.8425,5.8951,5.8951,5.8541,5.8217,5.8246,5.783,5.7666,5.8101,5.7797,5.7522,5.7517,5.7505,5.7512,5.7504,5.7524,5.7017,5.5879,5.5622,5.5622,5.5622,5.5842,5.6062,4.8951,4.8697,4.5437,4.4487,4.5004,4.5004,4.5448,4.6125,4.6199,4.6149,4.6112,4.6163,4.5374,4.3951,4.3277,0.0,4.5214,4.5952,4.7471,4.9591,4.9711,5.0225,5.0949,5.1054,5.1127,5.1206,5.1164,5.1164,5.1201,5.115,5.1061,5.0956,4.9443,4.8627,4.8595,5.0103,5.1621,5.3101,5.4539,5.5384,5.5507,5.5513,5.5535,5.5585,5.4882,5.4473,5.4473,5.3733,5.2962,5.2202,5.0702,4.9082,4.7301,0.0,0.0,0.0,0.0,0.0,0.0,0.0,0.0,0.0,0.0,0.0,0.0,0.0,0.0,0.0,4.2496,0.0,4.5952,4.5397,0.0,0.0,0.0,4.4827,4.624,4.7316,4.8468,4.9838,0.0,0.0,5.4509,0.0,5.6994,5.7,5.6994,5.7299,5.8081,5.8792,5.928,5.9228,5.9892,6.0346,6.0224,6.0212,6.0174,6.0185,6.0382,6.0248,6.0249,6.0245,6.0324,6.0176,6.0366,6.0297,6.0346,6.0151,5.9478,5.6638,5.6136,5.6062,5.6246,5.6743,5.7254,5.1302,5.118,4.9762,4.8592,4.7754,4.7754,4.7866,4.8067,4.8573,4.8444,4.7911,4.845,4.8499,4.809,4.8563,4.8999,4.9361,4.9549,4.9958,5.0508,5.1143,5.1867,5.2632,5.3261,5.3849,5.4441,5.4441,5.4447,5.442,5.3914,5.3319,5.2702,5.2257,5.1443,5.0368,5.1296,5.1993,5.2411,5.2817,5.3584,5.4713,5.4768,5.5054,5.5574,5.5438,5.5328,5.5291,5.4552,5.4032,5.3817,5.2894,5.1316,4.9087,4.5736,0.0,0.0,0.0,0.0,0.0,0.0,0.0,0.0,0.0,3.8821,3.6198,0.0,4.0062,0.0,4.5993,4.8017,4.7755,4.753,0.0,0.0,4.7555,4.8126,5.0297,5.1318,5.2213,5.316,5.4831,5.6005,5.6192,5.7655,5.8646,5.864,5.864,5.892,5.9713,5.9965,6.012,6.0158,6.0329,6.0407,6.0505,6.0396,6.0493,6.04,6.0425,6.0407,6.0395,6.04,6.0411,6.0399,6.039,6.0396,6.0432,6.0407,6.0182,5.9423,5.9245,5.9245,5.9281,5.9391,5.9512,5.1711,5.1669,5.1238,5.0587,4.9791,4.9706,4.9485,4.924,4.9577,4.9464,4.9064,4.9783,5.01,5.0121,5.0594,5.1182,5.1848,5.1848,5.2072,5.2489,5.3249,5.3672,5.3789,5.4232,5.4675,5.5076,5.4756,5.4574,5.4556,5.4181,5.3924,5.3826,5.381,5.3213,5.2099,5.2459,5.2792,5.317,5.3552,5.4349,5.5491,5.5582,5.5728,5.6102,5.5805,5.5254,5.4552,5.3775,5.3151,5.2779,5.205,5.0991,4.9605,4.6503,4.4108,0.0,0.0,0.0,0.0,0.0,0.0,0.0,0.0,0.0,0.0,0.0,4.2585,0.0,4.738,4.9229,4.8375,4.8994,4.9691,5.0393,5.0816,5.1696,5.3435,5.402,5.4561,5.5367,5.6562,5.7481,5.7832,5.8976,5.9899,6.0193,6.0554,6.0676,6.0467,6.0678,6.1053,6.1391,6.1792,6.2182,6.2519,6.2583,6.2572,6.2579,6.2579,6.2572,6.2585,6.2573,6.2469,6.2132,6.204,6.188,6.1549,6.1464,6.1464,6.1471,6.1478,6.1184,6.056,6.0413,6.0382,5.1505,5.1505,5.1505,5.1472,5.1475,5.1306,5.0754,4.9973,5.0066,5.0127,5.0201,5.0853,5.1123,5.1114,5.1102,5.1886,5.3181,5.3229,5.3624,5.4352,5.5115,5.5116,5.4507,5.4614,5.4644,5.4625,5.3936,5.3623,5.3617,5.3485,5.3781,5.4345,5.4395,5.4003,5.3361,5.3243,5.3454,5.3993,5.4857,5.5649,5.6466,5.6358,5.6339,5.6339,5.5586,5.4559,5.3254,5.2459,5.1694,5.098,5.0298,4.9978,5.0004,4.7058,4.536,0.0,4.3191,0.0,0.0,0.0,0.0,0.0,0.0,0.0,0.0,4.5555,4.5393,4.5461,4.8228,4.9779,4.9292,5.054,5.1971,5.3335,5.4212,5.4975,5.5666,5.5928,5.6318,5.7003,5.7823,5.8615,5.9246,6.0114,6.1,6.163,6.2499,6.2609,6.1484,6.1758,6.242,6.3057,6.375,6.4265,6.4846,6.5135,6.5105,6.5215,6.5068,6.5325,6.5105,6.5166,6.4991,6.4369,6.4143,6.3903,6.3258,6.3117,6.3117,6.3123,6.3123,6.2689,6.1447,6.1074,6.0902,5.3069,5.3078,5.3078,5.3078,5.3061,5.3044,5.2203,5.0988,5.1571,5.2124,5.2602,5.2775,5.2827,5.2843,5.2837,5.2985,5.3289,5.3289,5.3353,5.3544,5.4338,5.4616,5.4558,5.5189,5.548,5.548,5.5341,5.5235,5.5228,5.4642,5.4134,5.3696,5.3644,5.3249,5.2562,0.0,0.0,0.0,5.2546,5.3333,5.4079,5.3585,5.3514,5.4089,5.3391,0.0,5.3253,5.2551,5.2056,5.1804,5.1615,0.0,0.0,0.0,0.0,0.0,0.0,0.0,0.0,0.0,0.0,0.0,4.7609,4.6636,4.6013,4.7592,4.8923,4.963,5.1384,5.2968,5.4116,5.4478,5.4814,5.5108,5.5878,5.6417,5.6619,5.7715,5.8601,5.8711,5.9437,6.0004,6.0254,6.1398,6.2389,6.2689,6.3894,6.4651,6.4362,6.4381,6.4617,6.4806,6.4999,6.5124,6.5269,6.5362,6.5478,6.5325,6.5325,6.5362,6.5405,6.5388,6.5346,6.5064,6.5075,6.5045,6.4807,6.4818,6.4725,6.4811,6.4774,6.4524,6.3613,6.3399,6.359,5.4059,0.0,5.3653,5.3509,0.0,5.3509,5.3069,5.2316,5.2295,5.2486,5.2824,5.314,5.3303,5.334,5.334,5.3565,5.3936,5.3936,5.3936,5.3993,5.4726,5.4881,5.4546,5.4968,5.5144,5.5129,5.4772,5.4614,5.4618,5.4595,5.4427,5.405,5.4344,5.4361,5.3993,5.3959,5.3252,5.1758,5.2494,5.323,5.3975,5.3667,5.363,5.3968,0.0,0.0,0.0,0.0,0.0,0.0,0.0,0.0,0.0,0.0,0.0,5.1316,5.0215,4.9696,5.0068,5.0105,5.0802,5.2396,5.2165,5.1211,4.9654,5.1378,5.2735,5.3141,5.3927,5.473,5.5511,5.5952,5.6172,5.6231,5.7254,5.7998,5.8108,5.9062,5.9785,5.9859,6.05,6.1129,6.1545,6.2652,6.357,6.404,6.5111,6.5875,6.5862,6.5543,6.5423,6.5826,6.6279,6.6493,6.6493,6.6476,6.6439,6.6476,6.6476,6.6476,6.6476,6.6476,6.6396,6.6019,6.5902,6.5768,6.5387,6.531,6.53,6.5305,6.5325,6.5368,6.5191,6.4971,6.4813,5.4778,5.4744,5.416,5.389,5.3881,5.389,5.3881,5.3814,0.0,0.0,0.0,5.3099,5.336,5.3421,5.3413,5.3781,5.4388,5.4388,5.4491,5.4626,5.5212,5.5236,5.481,5.4794,5.4794,5.4762,5.4166,5.3881,5.3915,5.4499,5.4812,5.4846,5.5412,5.5699,5.5699,5.5699,5.4786,5.3001,5.3365,5.3919,5.456,5.4457,5.4379,5.432,5.4082,5.3338,5.2185,5.2124,5.2103,5.2018,5.1636,5.1805,5.2533,5.2024,5.1987,5.2795,5.2863,5.3382,5.4515,5.4583,5.4955,5.5763,5.5946,5.5354,5.3733,5.4849,5.5656,5.5805,5.58,5.5879,5.6025,5.6743,5.7237,5.7257,5.8532,5.9413,5.945,6.0118,6.0663,6.0859,6.1566,6.2356,6.3147,6.4016,6.472,6.5411,6.6182,6.6703,6.6629,6.6225,6.6065,6.6643,6.7176,6.762,6.7664,6.759,6.77,6.7554,6.759,6.77,6.77,6.77,6.741,6.6806,6.6706,6.6459,6.5916,6.5843,6.5717,6.5709,6.5735,6.5919,6.6476,6.6219,6.5815,5.5539,5.553,5.5428,5.5395,5.5395,5.5395,5.5395,5.5293,5.3923,5.3339,5.3354,5.3436,5.3487,5.3473,5.3482,5.3558,5.3676,5.3676,5.4016,0.0,5.4686,5.5043,5.5526,5.5552,5.5552,5.5543,5.5422,5.5395,5.5395,5.5505,5.553,5.5564,5.5665,5.5733,5.5699,5.5699,5.553,5.5225,5.472,5.4483,5.4593,5.3974,5.365,5.3587,5.2394,5.1858,5.2193,5.227,5.2193,5.203,5.3207,5.4247,5.5029,5.4973,5.5309,5.6051,5.6119,5.5941,5.5469,5.5433,5.5763,5.6565,5.7262,5.6974,5.5433,5.5466,5.5882,5.6537,5.6669,5.6926,5.7598,5.8358,5.8822,5.8883,5.9669,6.0242,6.0298,6.0993,6.1733,6.2393,6.3212,6.4041,6.4792,6.5552,6.6079,6.6402,6.7033,6.7554,6.7567,6.7444,6.74,6.7497,6.762,6.77,6.7884,6.7737,6.7847,6.77,6.7811,6.7884,6.7884,6.7898,6.7824,6.7577,6.762,6.7527,6.7353,6.7367,6.7367,6.7363,6.737,6.7444,6.762,6.7444,6.734,5.6283,5.6249,5.5868,5.5699,5.5699,5.5699,5.5699,5.5631,5.4989,5.4693,5.4693,5.4693,5.4684,5.4684,5.4693,5.4693,5.4693,5.4693,5.4853,5.5209,5.52,5.5369,5.5665,5.5699,5.5699,5.5699,5.5699,5.5699,5.5733,5.608,5.6316,5.6316,5.6697,5.69,5.69,5.69,5.69,5.6867,5.5784,5.52,5.5175,5.4862,5.4693,5.4693,5.3974,5.3754,5.4094,5.4145,5.427,5.4571,5.5333,5.6119,5.683,5.6913,5.7076,5.7415,5.744,5.7299,5.6938,5.6901,5.7262,5.8022,5.8447,5.8568,5.8265,5.7408,5.7244,5.8016,5.8089,5.8425,5.9202,5.9636,5.9844,5.9854,6.0562,6.1217,6.1721,6.2439,6.3287,6.4035,6.4489,6.5064,6.5832,6.6256,6.6703,6.7106,6.7841,6.8455,6.8887,6.8987,6.8817,6.8504,6.8724,6.8979,6.8979,6.9015,6.8979,6.9015,6.9015,6.9015,6.8992,6.898,6.8974,6.8987,6.8981,6.9014,6.8969,6.9022,6.8985,6.9022,6.8985,6.8979,6.9022,6.9024,6.8696,5.7543,5.7476,5.6925,5.6621,5.6452,5.6274,5.6215,5.6215,5.6181,5.6172,5.6147,5.5859,5.5699,5.5699,5.5699,5.5699,5.5699,5.5699,5.58,5.5944,5.5936,5.6037,5.6181,5.6206,5.6181,5.6172,5.6215,5.6172,5.6283,5.6925,5.7374,5.7577,5.8127,5.8407,5.8407,5.8398,5.8398,5.833,5.7264,5.6519,5.6206,5.6181,5.6181,5.6181,5.6003,5.5944,5.5944,5.5925,5.6218,5.677,5.7203,5.7573,5.7965,5.8348,5.8446,5.8328,5.8429,5.8547,5.8547,5.8547,5.8804,5.9422,5.9456,5.9725,6.0205,5.9277,5.8794,5.9368,5.9447,5.971,6.023,6.056,6.0743,6.0933,6.1667,6.2524,6.3284,6.3963,6.4672,6.5396,6.559,6.5863,6.6583,6.6953,6.743,6.8208,6.8795,6.9407,6.9971,7.0203,7.0071,6.9745,6.9836,6.9988,7.0096,7.0036,7.0007,7.011,7.0036,6.9963,6.9954,7.0027,7.0058,6.9971,7.0011,6.9959,7.0068,7.004,6.9988,6.9942,6.9889,7.0,6.997,6.9956,6.972,5.9776,5.9776,5.9607,5.9293,5.8607,5.7949,5.7688,5.7688,5.7688,5.7688,5.7586,5.6325,5.5767,5.5699,5.5733,5.5767,5.5767,5.5699,5.6114,5.6689,5.6689,5.7045,5.7654,5.7679,5.7688,5.7688,5.7688,5.7688,5.7712,5.8414,5.9133,5.9742,5.9877,5.9844,5.9877,5.9877,5.9877,5.9877,5.9776,5.9041,5.7789,5.7688,5.7688,5.7688,5.7036,5.6689,5.674,5.6721,5.6747,5.6901,5.8183,5.8662,5.8229,5.9348,5.9846,5.9154,5.976,6.0156,6.0156,6.0162,6.0156,6.0266,6.0284,6.0315,6.0481,6.0329,6.0188,6.0365,6.0334,6.0382,6.045,6.1117,6.1851,6.2548,6.3284,6.418,6.4855,6.5115,6.55,6.6313,6.6416,6.6706,6.749,6.8164,6.8935,6.9633,6.986,7.008,7.0342,7.0845,7.1162,7.0935,7.0615,7.0248,7.0251,7.011,7.0293,7.0257,7.0146,7.0293,7.0381,7.0314,7.0144,7.0583,7.0304,7.0351,7.0279,7.0112,7.0227,7.0442,7.041,7.019,7.0117,7.0255,7.0112,6.008,6.008,6.008,5.9945,5.9641,5.9302,5.9201,5.9201,5.9201,5.9201,5.9142,5.8549,5.7848,5.7002,5.7002,5.7002,5.7002,5.7002,5.7408,5.8075,5.8109,5.849,5.9133,5.921,5.9201,5.9201,5.921,5.921,5.9235,5.9496,5.981,6.0047,6.008,6.008,6.008,6.008,6.008,6.008,6.008,5.981,5.9278,5.9201,5.921,5.9142,5.8481,5.8109,5.8035,5.7707,5.7448,5.7465,5.8101,5.8534,5.8706,5.9345,5.9766,5.9889,6.0219,6.0413,6.0413,6.0413,6.0597,6.108,6.1091,6.1275,6.1802,6.2264,6.2581,6.2487,6.1704,6.1447,6.2401,6.2885,6.3411,6.4128,6.4618,6.5132,6.5915,6.6023,6.6329,6.707,6.7622,6.7989,6.8438,6.9119,6.9919,7.0617,7.08,7.0947,7.1394,7.1834,7.1966,7.1975,7.1698,7.1558,7.149,7.1541,7.1505,7.1505,7.1505,7.1541,7.1468,7.1505,7.1541,7.1505,7.139,7.1413,7.1588,7.1493,7.1529,7.1431,7.1512,7.1505,7.1497,7.1497,7.151,6.0723,6.0689,6.052,6.0419,6.0419,6.0172,6.008,6.008,6.008,6.008,6.008,6.008,5.9539,5.8601,5.85,5.85,5.85,5.85,5.8795,5.9293,5.9293,5.9564,6.008,6.008,6.008,6.008,6.0047,6.0216,6.0385,6.0419,6.052,6.0699,6.0723,6.0723,6.0723,6.0723,6.0723,6.0757,6.0733,6.0723,6.0723,6.0723,6.052,6.0114,5.9597,5.9293,5.9284,5.8795,5.85,5.85,5.8533,5.8734,5.9131,5.9362,5.9781,6.0297,6.04,6.04,6.0407,6.0798,6.1314,6.1894,6.2303,6.2855,6.3442,6.4093,6.4416,6.4297,6.3319,6.3246,6.4133,6.442,6.477,6.55,6.5627,6.5955,6.6696,6.699,6.7383,6.7984,6.8676,6.9336,6.9568,7.0103,7.0727,7.1454,7.1644,7.1784,7.2342,7.2459,7.2496,7.2532,7.2488,7.2452,7.2532,7.2386,7.2532,7.2532,7.2386,7.2349,7.2532,7.2488,7.2488,7.2055,7.2386,7.2452,7.2196,7.2327,7.2518,7.2525,7.2532,7.2496,7.2312,7.2459,7.2459,6.2289,6.2188,6.1545,6.1264,6.1197,6.0486,6.0148,6.025,6.0182,6.0148,6.0216,6.0182,6.008,6.0013,6.0013,5.9969,5.9945,5.9877,5.9945,6.0047,6.0071,6.008,6.008,6.008,6.0148,6.0317,6.0317,6.0622,6.1197,6.1264,6.1612,6.2221,6.2154,6.2221,6.2188,6.212,6.2255,6.2154,6.2154,6.2221,6.2221,6.2221,6.1511,6.0351,6.0071,6.0037,6.0037,6.0003,5.9979,5.9969,6.0035,5.9798,5.9236,5.9925,6.0442,6.0514,6.0516,6.0488,6.0775,6.1918,6.2747,6.2954,6.4076,6.5045,6.4947,6.5122,6.5238,6.5258,6.5148,6.5148,6.5258,6.5295,6.5588,6.6305,6.6475,6.6885,6.756,6.8282,6.8726,6.894,6.9533,7.0309,7.105,7.119,7.1564,7.2121,7.2422,7.2422,7.2452,7.2532,7.2532,7.2613,7.2606,7.2525,7.2569,7.2532,7.2532,7.2679,7.2789,7.2679,7.2569,7.2496,7.2576,7.2657,7.2825,7.2825,7.2613,7.2599,7.2745,7.2819,7.2892,7.2855,7.3112,7.2716,7.2781,6.2424,6.2391,6.212,6.2018,6.1985,6.168,6.1579,6.1579,6.1579,6.1579,6.1579,6.1579,6.1569,6.1569,6.1579,6.1037,6.0148,6.008,6.0385,6.0815,6.0858,6.1129,6.1535,6.1579,6.1579,6.1579,6.1579,6.1704,6.1951,6.2018,6.211,6.2357,6.2424,6.2424,6.2424,6.2424,6.2424,6.2424,6.2424,6.2424,6.2458,6.2424,6.212,6.1603,6.1095,6.0858,6.0858,6.0375,6.008,6.008,6.0137,6.0282,6.0575,6.1346,6.2065,6.2579,6.264,6.2911,6.3496,6.4075,6.4406,6.4433,6.4904,6.5335,6.5411,6.5763,6.6043,6.6162,6.6586,6.6806,6.6739,6.6402,6.6402,6.712,6.7737,6.8115,6.8513,6.9148,6.9683,6.98,7.0371,7.1167,7.1791,7.2048,7.2195,7.2415,7.2532,7.2532,7.2532,7.2532,7.2694,7.3134,7.3289,7.345,7.4023,7.3039,7.2606,7.309,7.3347,7.367,7.3736,7.3802,7.3904,7.3809,7.3779,7.3743,7.37,7.3722,7.3722,7.3802,7.3802,7.37,7.403,7.3692,7.3802,6.2753,6.2729,6.2492,6.2424,6.2424,6.2424,6.2424,6.2424,6.2424,6.2424,6.2424,6.2424,6.2424,6.2424,6.2424,6.1883,6.0892,6.0868,6.1129,6.1603,6.167,6.1917,6.2323,6.2424,6.2424,6.2391,6.2424,6.2424,6.2458,6.2651,6.2753,6.2753,6.2966,6.3101,6.3101,6.3101,6.3091,6.3101,6.3101,6.3135,6.3101,6.3101,6.3101,6.3,6.2415,6.1897,6.1661,6.1129,6.0825,6.0815,6.0627,6.0651,6.1022,6.1493,6.2062,6.2583,6.2631,6.2943,6.3574,6.4122,6.4535,6.4869,6.5397,6.5733,6.6059,6.657,6.6833,6.705,6.762,6.8098,6.8061,6.7841,6.7797,6.8148,6.88,6.9289,6.9345,7.0013,7.0548,7.0921,7.1353,7.1931,7.2342,7.2459,7.2488,7.2532,7.2532,7.2569,7.2818,7.2906,7.3155,7.3919,7.4096,7.4292,7.4542,7.3964,7.3619,7.4001,7.4074,7.447,7.4786,7.4941,7.5029,7.4948,7.4926,7.4911,7.4903,7.4918,7.4925,7.4969,7.4683,7.4426,7.4639,7.4787,7.475,6.3511,6.3419,6.2729,6.256,6.2627,6.2627,6.2492,6.2594,6.256,6.2661,6.2695,6.256,6.2661,6.2526,6.2695,6.2492,6.2424,6.2391,6.2323,6.2289,6.2323,6.2391,6.2482,6.2526,6.2594,6.2627,6.2526,6.2536,6.2627,6.3193,6.3477,6.3612,6.4096,6.4309,6.4536,6.4377,6.4478,6.441,6.4377,6.4478,6.458,6.4444,6.4377,6.4377,6.3758,6.3125,6.2492,6.2323,6.2188,6.2188,6.1627,6.096,6.0489,6.051,6.0352,6.0709,6.0464,6.0374,6.074,6.2274,6.3705,6.4357,6.5562,6.6776,6.7407,6.765,6.7754,6.7964,6.8465,6.8928,6.9045,6.9486,6.9596,6.9132,6.9636,7.0075,7.0239,7.0847,7.1581,7.2159,7.2378,7.2496,7.2496,7.2606,7.2679,7.2679,7.2789,7.3046,7.3559,7.3706,7.4051,7.4661,7.4933,7.5089,7.5031,7.4915,7.4924,7.4984,7.4948,7.5094,7.538,7.5565,7.5646,7.5631,7.5652,7.565,7.5658,7.565,7.5549,7.5491,7.527,7.527,7.5469,7.5601,7.5388,6.4265,6.4231,6.4005,6.3903,6.3903,6.3903,6.3903,6.3903,6.3903,6.3903,6.3903,6.3903,6.3903,6.3903,6.3903,6.3913,6.3913,6.3869,6.3362,6.2594,6.2424,6.2719,6.3081,6.3149,6.3419,6.3835,6.3903,6.3903,6.3913,6.414,6.4265,6.4309,6.4468,6.4613,6.4681,6.4613,6.4613,6.4613,6.4613,6.4613,6.4613,6.4613,6.4613,6.458,6.4377,6.414,6.3869,6.2932,6.2424,6.2415,6.2188,6.1917,6.1704,6.168,6.1973,6.2481,6.2573,6.2893,6.3493,6.4421,6.5161,6.5735,6.6632,6.7596,6.8385,6.8463,6.8713,6.9176,6.9587,6.9743,6.9853,7.047,7.0543,6.9823,7.0441,7.0944,7.0972,7.1615,7.2173,7.2408,7.2532,7.2532,7.2642,7.2863,7.331,7.3384,7.3736,7.4228,7.4426,7.4522,7.4808,7.5534,7.5661,7.5902,7.6,7.6075,7.6077,7.5968,7.5821,7.5821,7.6041,7.6188,7.6254,7.6275,7.6324,7.6338,7.6382,7.6376,7.6246,7.6371,7.6445,7.6518,7.6555,7.64,7.6173,6.5019,6.4986,6.4715,6.4613,6.4613,6.4613,6.4613,6.4613,6.4613,6.4613,6.458,6.458,6.4613,6.4613,6.4613,6.4613,6.4613,6.4613,6.4116,6.3338,6.3193,6.3497,6.3893,6.3883,6.4096,6.4512,6.4613,6.4613,6.4613,6.4884,6.5019,6.503,6.5256,6.5425,6.5425,6.5425,6.5415,6.5415,6.5459,6.5425,6.5415,6.5425,6.5415,6.5381,6.5155,6.5019,6.4928,6.3845,6.3226,6.3169,6.299,6.2719,6.2458,6.241,6.2659,6.3058,6.3255,6.3521,6.4382,6.4761,6.5672,6.6169,6.6736,6.7375,6.8088,6.8318,6.8686,6.9392,6.9849,7.0164,7.0553,7.1277,7.1424,7.1101,7.1444,7.1743,7.181,7.2164,7.2459,7.2569,7.2789,7.2899,7.309,7.3634,7.4111,7.4258,7.4581,7.5095,7.5213,7.5367,7.5799,7.6237,7.6507,7.6779,7.7119,7.7208,7.7208,7.6995,7.6738,7.6738,7.6885,7.6885,7.6951,7.6914,7.6913,7.6868,7.6876,7.6994,7.6995,7.7281,7.7318,7.7134,7.6959,7.7061,7.6914,6.5774,6.5672,6.503,6.4806,6.485,6.485,6.4884,6.4816,6.4816,6.4884,6.485,6.4952,6.4884,6.4772,6.4986,6.4952,6.4772,6.4918,6.4908,6.4749,6.4715,6.4749,6.4647,6.4783,6.4908,6.4918,6.4884,6.485,6.5009,6.5493,6.5774,6.5808,6.6294,6.6724,6.6565,6.6734,6.6633,6.6565,6.6656,6.6656,6.6656,6.67,6.67,6.6633,6.6068,6.5774,6.5628,6.5087,6.4647,6.4512,6.3859,6.3284,6.2729,6.2526,6.2691,6.2833,6.2599,6.3065,6.3519,6.4147,6.4635,6.5831,6.6176,6.6412,6.7637,6.803,6.8475,6.9418,6.999,7.0552,7.1325,7.1938,7.2312,7.2459,7.2319,7.2363,7.2459,7.2525,7.2724,7.2804,7.3259,7.3788,7.3824,7.4478,7.4874,7.5014,7.5124,7.5616,7.5948,7.6242,7.652,7.6806,7.7038,7.7119,7.7318,7.7318,7.7318,7.7244,7.7105,7.7179,7.7252,7.7281,7.7318,7.7318,7.7318,7.7318,7.7318,7.7318,7.7318,7.7318,7.7318,7.7318,7.7318,7.7318,7.7318,6.6497,6.6497,6.6294,6.6227,6.6227,6.6227,6.6193,6.6227,6.6193,6.6115,6.6183,6.6227,6.6125,6.6227,6.6183,6.6227,6.6115,6.6159,6.6216,6.6227,6.6227,6.5865,6.5639,6.5967,6.6193,6.6159,6.6058,6.6227,6.6216,6.6328,6.6464,6.6542,6.6667,6.6802,6.6802,6.6802,6.6802,6.6802,6.6802,6.6802,6.6802,6.6802,6.6802,6.6802,6.6599,6.6464,6.6497,6.6328,6.5652,6.4681,6.4434,6.4241,6.3961,6.3927,6.3869,6.3879,6.3981,6.4072,6.4372,6.4869,6.5445,6.5871,6.6485,6.7588,6.9084,6.9175,6.997,7.1082,7.1728,7.1757,7.2072,7.2342,7.2496,7.2532,7.2613,7.262,7.2635,7.3017,7.3377,7.3487,7.4088,7.45,7.4764,7.5241,7.5755,7.5858,7.6188,7.6555,7.6747,7.6857,7.6989,7.7092,7.7237,7.7281,7.7318,7.7318,7.7318,7.7318,7.7244,7.7244,7.7281,7.7281,7.7318,7.7318,7.7318,7.7318,7.7318,7.7318,7.7318,7.7318,7.7318,7.7318,7.7318,7.7318,7.7318,6.6802,6.6802,6.6802,6.6802,6.6802,6.6802,6.6802,6.6802,6.6802,6.6802,6.6802,6.6802,6.6802,6.6802,6.6791,6.6802,6.6802,6.6802,6.6791,6.6791,6.6768,6.6531,6.6339,6.6667,6.6802,6.6802,6.6802,6.6768,6.6757,6.6802,6.6802,6.6768,6.6802,6.6802,6.6802,6.6802,6.6802,6.6802,6.6802,6.6802,6.6802,6.6802,6.6802,6.6802,6.6802,6.6802,6.6802,6.6791,6.6229,6.5343,6.507,6.4931,6.462,6.4627,6.4613,6.4613,6.4613,6.4691,6.5077,6.5571,6.5955,6.6249,6.6846,6.7513,6.826,6.8602,6.9274,7.0264,7.0644,7.0912,7.1375,7.1925,7.2363,7.2497,7.3075,7.3324,7.3067,7.3714,7.4131,7.4395,7.4858,7.5388,7.5425,7.6122,7.6489,7.6665,7.6922,7.7105,7.7252,7.7318,7.7318,7.7318,7.7318,7.7318,7.7318,7.7318,7.7318,7.7318,7.7318,7.7318,7.7318,7.7318,7.7318,7.7318,7.7318,7.7318,7.7318,7.7318,7.7318,7.7318,7.7318,7.7318,7.7318,7.7318,7.7318,6.6802,6.6802,6.6802,6.6802,6.6802,6.6802,6.6802,6.6802,6.6802,6.6802,6.6802,6.6802,6.6802,6.6802,6.6802,6.6802,6.6802,6.6802,6.6802,6.6802,6.6802,6.6734,6.6734,6.6734,6.6802,6.6802,6.6802,6.6802,6.6802,6.6802,6.6802,6.6802,6.6802,6.6802,6.6802,6.6802,6.6802,6.6802,6.6802,6.6802,6.6802,6.6802,6.6802,6.6802,6.6802,6.6802,6.6802,6.6791,6.6468,6.5851,6.5816,6.5543,6.4974,6.4877,6.4918,6.4986,6.5087,6.529,6.5672,6.5891,6.6117,6.662,6.6769,6.6891,6.725,6.7484,6.7933,6.9028,6.8394,6.9368,7.0481,7.1651,7.2574,7.3032,7.4139,7.4521,7.4301,7.4581,7.5041,7.508,7.573,7.6144,7.6416,7.6783,7.7281,7.6995,7.7208,7.7244,7.7318,7.7318,7.7318,7.7318,7.7318,7.7318,7.7318,7.7318,7.7318,7.7318,7.7318,7.7318,7.7318,7.7318,7.7318,7.7318,7.7318,7.7318,7.7318,7.7318,7.7318,7.7318,7.7318,7.7318,7.7318,7.7318,7.7318,6.6802,6.6802,6.6802,6.6802,6.6802,6.6802,6.6802,6.6802,6.6802,6.6802,6.6802,6.6802,6.6802,6.6802,6.6802,6.6802,6.6802,6.6802,6.6802,6.6802,6.6802,6.6802,6.6802,6.6802,6.6802,6.6802,6.6802,6.6802,6.6802,6.6802,6.6802,6.6802,6.6802,6.6802,6.6802,6.6802,6.6802,6.6802,6.6802,6.6802,6.6802,6.6802,6.6802,6.6802,6.6802,6.6802,6.6802,6.6802,6.6747,6.6624,6.6534,6.6352,6.6229,6.6206,6.6193,6.6159,6.6227,6.6362,6.6542,6.6497,6.6599,6.6724,6.6836,6.7112,6.7868,6.7772,6.8304,6.9128,6.9418,6.9819,7.1121,7.2607,7.33,7.3922,7.4874,7.5617,7.56,7.5693,7.5802,7.6022,7.6478,7.7032,7.7032,7.7069,7.7318,7.7318,7.7318,7.7318,7.7318,7.7318,7.7318,7.7318,7.7318,7.7318,7.7318,7.7318,7.7318,7.7318,7.7318,7.7318,7.7318,7.7318,7.7318,7.7318,7.7318,7.7318,7.7318,7.7318,7.7318,7.7318,7.7318,7.7318,7.7318,7.7318,7.7318,6.6802,6.6802,6.6802,6.6802,6.6802,6.6802,6.6802,6.6802,6.6802,6.6802,6.6802,6.6802,6.6802,6.6802,6.6802,6.6802,6.6802,6.6802,6.6802,6.6802,6.6802,6.6802,6.6802,6.6802,6.6802,6.6802,6.6802,6.6802,6.6802,6.6802,6.6802,6.6802,6.6802,6.6802,6.6802,6.6802,6.6802,6.6802,6.6802,6.6802,6.6802,6.6802,6.6802,6.6802,6.6802,6.6802,6.6802,6.6802,6.6802,6.6802,6.6802,6.6802,6.6802,6.6802,6.6802,6.6802,6.6802,6.6802,6.6802,6.6802,6.6802,6.6802,6.6802,6.7057,6.7423,6.7557,6.7745,6.8289,6.8672,6.943,7.0717,7.2049,7.2916,7.3486,7.4533,7.5199,7.5417,7.6064,7.6654,7.6735,7.6994,7.7208,7.7281,7.7318,7.7318,7.7318,7.7318,7.7318,7.7318,7.7318,7.7318,7.7318,7.7318,7.7318,7.7318,7.7318,7.7318,7.7318,7.7318,7.7318,7.7318,7.7318,7.7318,7.7318,7.7318,7.7318,7.7318,7.7318,7.7318,7.7318,7.7318,7.7318,7.7318,7.7318,7.7318,6.6802,6.6802,6.6802,6.6802,6.6802,6.6802,6.6802,6.6802,6.6802,6.6802,6.6802,6.6802,6.6802,6.6802,6.6802,6.6802,6.6802,6.6802,6.6802,6.6802,6.6802,6.6802,6.6802,6.6802,6.6802,6.6802,6.6802,6.6802,6.6802,6.6802,6.6802,6.6802,6.6802,6.6802,6.6802,6.6802,6.6802,6.6802,6.6802,6.6937,6.7039,6.7072,6.7072,6.7072,6.6825,6.6825,6.6802,6.6802,6.6802,6.6802,6.6802,6.6802,6.6802,6.6802,6.6802,6.6802,6.6802,6.6802,6.6802,6.6802,6.6802,6.6802,6.6802,6.6891,6.7013,6.7218,6.7421,6.7684,6.8242,6.9052,6.9557,7.128,7.2101,7.2553,7.361,7.4175,7.4647,7.5952,7.6692,7.6874,7.6768,7.6824,7.715,7.7318,7.7318,7.7318,7.7318,7.7318,7.7318,7.7318,7.7318,7.7318,7.7318,7.7318,7.7318,7.7318,7.7318,7.7318,7.7318,7.7318,7.7318,7.7318,7.7318,7.7318,7.7318,7.7318,7.7318,7.7318,7.7318,7.7318,7.7318,7.7318,7.7318,7.7318,7.7318,6.6802,6.6802,6.6802,6.6802,6.6802,6.6802,6.6802,6.6802,6.6802,6.6802,6.6802,6.6802,6.6802,6.6802,6.6802,6.6802,6.6802,6.6802,6.6802,6.6802,6.6802,6.6802,6.6802,6.6937,6.6869,6.6802,6.6903,6.7005,6.6869,6.6802,6.7005,6.6869,6.6927,6.696,6.7005,6.6836,6.7005,6.7096,6.7072,6.7275,6.7624,6.7715,6.7715,6.7692,6.7309,6.7072,6.6937,6.6869,6.6802,6.6802,6.6802,6.6869,6.6971,6.6971,6.6937,6.6836,6.6903,6.6937,6.6937,6.6937,6.6836,6.6802,6.6969,6.7246,6.7561,6.774,6.7992,6.8665,6.9386,7.0268,7.1177,7.1941,7.2967,7.3611,7.3732,7.4074,7.4347,7.5089,7.5927,7.6026,7.6106,7.6473,7.6964,7.7318,7.7318,7.7318,7.7318,7.7318,7.7318,7.7318,7.7318,7.7318,7.7318,7.7318,7.7318,7.7318,7.7318,7.7318,7.7318,7.7318,7.7318,7.7318,7.7318,7.7318,7.7318,7.7318,7.7318,7.7318,7.7318,7.7318,7.7318,7.7318,7.7318,7.7318,7.7318,6.6802,6.6802,6.6802,6.6802,6.6802,6.6802,6.6802,6.6802,6.6802,6.6802,6.6802,6.6802,6.6802,6.6802,6.6802,6.6802,6.6802,6.6802,6.6802,6.6802,6.6802,6.6802,6.6937,6.7174,6.7343,6.7512,6.7715,6.7692,6.7387,6.7387,6.7557,6.7952,6.7986,6.7986,6.7986,6.8053,6.7952,6.7952,6.7952,6.8132,6.847,6.8538,6.8538,6.8402,6.8199,6.8019,6.7996,6.7996,6.8019,6.8019,6.7986,6.7996,6.7952,6.7884,6.7614,6.7072,6.7174,6.7387,6.7478,6.7681,6.8053,6.8018,6.7966,6.8135,6.84,6.8584,6.8884,6.9539,6.9937,7.0667,7.1356,7.1943,7.233,7.261,7.2821,7.2827,7.3026,7.3753,7.448,7.5217,7.6088,7.6678,7.7074,7.7318,7.7318,7.7318,7.7318,7.7318,7.7318,7.7318,7.7318,7.7318,7.7318,7.7318,7.7318,7.7318,7.7318,7.7318,7.7318,7.7318,7.7318,7.7318,7.7318,7.7318,7.7318,7.7318,7.7318,7.7318,7.7318,7.7318,7.7318,7.7318,7.7318,7.7318,7.7318,6.6802,6.6802,6.6802,6.6802,6.6802,6.6802,6.6802,6.6802,6.6802,6.6802,6.6802,6.6802,6.6802,6.6802,6.6802,6.6802,6.6802,6.6802,6.6903,6.7106,6.7106,6.7106,6.7444,6.7749,6.8132,6.8233,6.8561,6.8774,6.8267,6.8166,6.8504,6.8741,6.9011,6.9079,6.8977,6.8842,6.9079,6.9079,6.9079,6.9113,6.9282,6.9316,6.9316,6.9282,6.918,6.9011,6.891,6.891,6.891,6.891,6.8977,6.9011,6.9079,6.9079,6.8504,6.7614,6.785,6.8053,6.8301,6.8571,6.8842,6.8819,6.9011,6.9116,6.9378,6.9519,6.9839,7.0275,7.0487,7.0678,7.1253,7.1311,7.1367,7.1434,7.1468,7.1447,7.1909,7.2676,7.3864,7.4867,7.6126,7.6792,7.7051,7.7318,7.7318,7.7318,7.7318,7.7318,7.7318,7.7318,7.7318,7.7318,7.7318,7.7318,7.7318,7.7318,7.7318,7.7318,7.7318,7.7318,7.7318,7.7318,7.7318,7.7318,7.7318,7.7318,7.7318,7.7318,7.7318,7.7318,7.7318,7.7318,7.7318,7.7318,7.7318,6.6802,6.6802,6.6802,6.6802,6.6802,6.6802,6.6802,6.6802,6.6802,6.6802,6.6802,6.6802,6.6802,6.6836,6.6859,6.6825,6.6869,6.7039,6.7343,6.7726,6.7793,6.8098,6.8673,6.8876,6.8944,6.9011,6.9147,6.9068,6.9045,6.9011,6.9045,6.9248,6.935,6.918,6.9417,6.9451,6.9079,6.9147,6.918,6.9485,6.9969,7.0071,7.0071,6.9936,6.9586,6.9316,6.9383,6.9383,6.9305,6.9248,6.9214,6.9147,6.9079,6.9079,6.9079,6.891,6.891,6.8933,6.8967,6.9214,6.9383,6.9395,6.9327,6.9494,6.9955,7.0498,7.0861,7.1098,7.1131,7.1097,7.1233,7.1289,7.1289,7.1289,7.1289,7.1289,7.1526,7.2404,7.3515,7.4104,7.5252,7.6166,7.6773,7.7071,7.7318,7.7318,7.7318,7.7273,7.7318,7.7318,7.7318,7.7318,7.7318,7.7318,7.7318,7.7318,7.7318,7.7318,7.7318,7.7318,7.7318,7.7318,7.7318,7.7318,7.7318,7.7318,7.7318,7.7318,7.7318,7.7318,7.7318,7.7318,7.7318,7.7318,7.7318,6.6802,6.6802,6.6802,6.6802,6.6802,6.6802,6.6802,6.6802,6.6802,6.6802,6.6802,6.6802,6.6802,6.6903,6.7174,6.7421,6.7512,6.785,6.8222,6.8493,6.8605,6.8774,6.909,6.953,6.9733,6.9823,7.0128,7.0455,7.0218,6.9958,6.9857,7.0286,7.0319,7.0421,7.0184,7.0319,7.0353,7.0387,7.0398,7.0522,7.0725,7.0793,7.0838,7.0804,7.0455,7.0319,7.0252,7.0319,7.0353,7.0353,7.0353,7.0364,7.0353,7.0353,7.0353,7.0353,7.0353,7.0161,6.9868,7.0117,7.0218,7.0319,7.0309,7.0534,7.0848,7.1052,7.1289,7.13,7.13,7.1289,7.1289,7.1289,7.1289,7.1289,7.1289,7.1289,7.1548,7.2529,7.3376,7.3866,7.4297,7.518,7.5878,7.6063,7.6449,7.6932,7.7043,7.7212,7.7243,7.7318,7.7318,7.7318,7.7318,7.7318,7.7318,7.7318,7.7318,7.7318,7.7318,7.7318,7.7318,7.7318,7.7318,7.7318,7.7318,7.7318,7.7318,7.7318,7.7318,7.7318,7.7318,7.7318,7.7318,7.7318,7.7318,6.6802,6.6802,6.6802,6.6802,6.6802,6.6802,6.6802,6.6802,6.6802,6.6802,6.6859,6.7005,6.7106,6.7242,6.7827,6.8199,6.8233,6.8842,6.918,6.9316,6.9417,6.9519,6.9891,7.0297,7.0477,7.0477,7.0827,7.1097,7.0996,7.0838,7.0737,7.1289,7.1064,7.1154,7.1222,7.1154,7.1097,7.1097,7.1131,7.1154,7.1233,7.1233,7.1267,7.1267,7.1289,7.1289,7.1289,7.1233,7.1233,7.1199,7.1154,7.1097,7.1131,7.1064,7.1097,7.1064,7.1064,7.0928,7.0737,7.0861,7.1233,7.1289,7.1289,7.112,7.1199,7.1289,7.1289,7.1289,7.1289,7.1289,7.1289,7.1289,7.1289,7.1289,7.1289,7.1289,7.1447,7.2349,7.2935,7.3286,7.3667,7.4043,7.4591,7.4793,7.5387,7.6264,7.6728,7.6967,7.7097,7.7129,7.7156,7.7156,7.7318,7.7318,7.7318,7.7318,7.7318,7.7318,7.7318,7.7318,7.7318,7.7318,7.7318,7.7318,7.7318,7.7318,7.7318,7.7318,7.7318,7.7318,7.7318,7.7318,7.7318,7.7318,7.7318,6.6802,6.6802,6.6802,6.6802,6.6802,6.6802,6.6802,6.6893,6.6869,6.6893,6.714,6.7478,6.7827,6.803,6.8605,6.9011,6.9011,6.9079,6.9586,7.0003,7.0172,7.0432,7.0725,7.0962,7.1131,7.1131,7.1255,7.1255,7.1267,7.1199,7.1165,7.1289,7.1289,7.1289,7.1289,7.1289,7.1289,7.1289,7.1289,7.1289,7.1289,7.1289,7.1289,7.1289,7.1289,7.1289,7.1289,7.1289,7.1289,7.1289,7.1289,7.1289,7.1289,7.1289,7.1289,7.1289,7.1289,7.1199,7.1165,7.1165,7.1267,7.1289,7.1289,7.1289,7.1289,7.1289,7.1289,7.1289,7.1289,7.1289,7.1289,7.1289,7.1289,7.1289,7.1289,7.1289,7.1481,7.2022,7.2563,7.2754,7.2952,7.3182,7.3248,7.3447,7.4291,7.521,7.5753,7.6021,7.6567,7.6686,7.6857,7.6949,7.7237,7.7318,7.7318,7.7318,7.7318,7.7318,7.7318,7.7318,7.7318,7.7318,7.7318,7.7318,7.7318,7.7318,7.7318,7.7318,7.7318,7.7318,7.7318,7.7318,7.7318,7.7318,7.7318,6.6802,6.6802,6.6802,6.6802,6.6802,6.6802,6.7072,6.7444,6.7489,6.7783,6.8199,6.8504,6.8639,6.8842,6.9383,6.98,6.9868,7.0286,7.0556,7.077,7.0973,7.1064,7.1255,7.1289,7.1289,7.1289,7.1289,7.1289,7.1289,7.1289,7.1289,7.1289,7.1289,7.1289,7.1289,7.1289,7.1289,7.1289,7.1289,7.1289,7.1289,7.1289,7.1289,7.1289,7.1289,7.1289,7.1289,7.1289,7.1289,7.1289,7.1289,7.1289,7.1289,7.1289,7.1289,7.1289,7.1289,7.1289,7.1289,7.1289,7.1289,7.1289,7.1289,7.1289,7.1289,7.1289,7.1289,7.1289,7.1289,7.1289,7.1289,7.1289,7.1289,7.1289,7.1289,7.1289,7.1481,7.192,7.2033,7.2134,7.1998,7.198,7.2063,7.2112,7.3105,7.411,7.4607,7.5178,7.5834,7.6263,7.6432,7.6903,7.72,7.7318,7.7318,7.7318,7.7318,7.7318,7.7318,7.7318,7.7318,7.7318,7.7318,7.7318,7.7318,7.7318,7.7318,7.7318,7.7318,7.7318,7.7318,7.7318,7.7318,7.7318,7.7318,6.6802,6.6836,6.7039,6.714,6.714,6.7106,6.7546,6.8199,6.8267,6.8538,6.9113,6.9282,6.9417,6.962,7.0161,7.0534,7.0635,7.0928,7.1165,7.1267,7.1233,7.1289,7.1289,7.1289,7.1289,7.1289,7.1289,7.1289,7.1289,7.1289,7.1289,7.1289,7.1289,7.1289,7.1289,7.1289,7.1289,7.1289,7.1289,7.1289,7.1289,7.1289,7.1289,7.1289,7.1289,7.1289,7.1289,7.1289,7.1289,7.1289,7.1289,7.1289,7.1289,7.1289,7.1289,7.1289,7.1289,7.1289,7.1289,7.1289,7.1289,7.1289,7.1289,7.1289,7.1289,7.1289,7.1289,7.1289,7.1289,7.1289,7.1289,7.1289,7.1289,7.1289,7.1289,7.1289,7.1289,7.156,7.1481,7.1469,7.1402,7.1469,7.1524,7.1677,7.2353,7.3044,7.301,7.4095,7.5594,7.592,7.599,7.6574,7.7281,7.7318,7.7318,7.7318,7.7318,7.7318,7.7318,7.7318,7.7318,7.7318,7.7318,7.7318,7.7318,7.7318,7.7318,7.7318,7.7318,7.7318,7.7318,7.7318,7.7318,7.7318,7.7318,6.6802,6.6903,6.7557,6.7861,6.7861,6.7895,6.8335,6.9045,6.9147,6.9214,6.9417,6.9891,7.0161,7.0342,7.0872,7.1064,7.1097,7.1233,7.1289,7.1289,7.1289,7.1289,7.1289,7.1289,7.1289,7.1289,7.1289,7.1289,7.1289,7.1289,7.1289,7.1289,7.1289,7.1289,7.1289,7.1289,7.1289,7.1289,7.1289,7.1289,7.1289,7.1289,7.1289,7.1289,7.1289,7.1289,7.1289,7.1289,7.1289,7.1289,7.1289,7.1289,7.1289,7.1289,7.1289,7.1289,7.1289,7.1289,7.1289,7.1289,7.1289,7.1289,7.1289,7.1289,7.1289,7.1289,7.1289,7.1289,7.1289,7.1289,7.1289,7.1289,7.1289,7.1289,7.1289,7.1289,7.1289,7.1289,7.1289,7.1289,7.1289,7.13,7.13,7.1434,7.1895,7.2088,7.1698,7.279,7.4839,7.5744,7.5873,7.6522,7.7318,7.7318,7.7318,7.7318,7.7318,7.7318,7.7318,7.7318,7.7318,7.7318,7.7318,7.7281,7.7318,7.7318,7.7318,7.7318,7.7318,7.7318,7.7318,7.7318,7.7318,7.7318,7.7318,6.6802,6.6869,6.759,6.8199,6.8639,6.8707,6.9147,6.9834,7.0297,7.0556,7.059,7.0861,7.0928,7.103,7.1097,7.1289,7.1289,7.1289,7.1289,7.1289,7.1289,7.1289,7.1289,7.1289,7.1289,7.1289,7.1289,7.1289,7.1289,7.1289,7.1289,7.1289,7.1289,7.1289,7.1289,7.1289,7.1289,7.1289,7.1289,7.1289,7.1289,7.1289,7.1289,7.1289,7.1289,7.1289,7.1289,7.1289,7.1289,7.1289,7.1289,7.1289,7.1289,7.1289,7.1289,7.1289,7.1289,7.1289,7.1289,7.1289,7.1289,7.1289,7.1289,7.1289,7.1289,7.1289,7.1289,7.1289,7.1289,7.1289,7.1289,7.1289,7.1289,7.1289,7.1289,7.1289,7.1289,7.1289,7.1289,7.1289,7.1289,7.1289,7.1289,7.1289,7.1644,7.2045,7.1873,7.2597,7.4347,7.5452,7.598,7.6684,7.7318,7.7318,7.7266,7.7051,7.7181,7.7318,7.7318,7.7318,7.7318,7.7318,7.72,7.7111,7.72,7.7318,7.7318,7.7318,7.7318,7.7318,7.7318,7.7318,7.7318,7.7318,7.7318,6.6937,6.7242,6.7996,6.8774,6.9417,6.9485,6.9902,7.0567,7.1097,7.1289,7.1255,7.1255,7.1255,7.1255,7.1289,7.1289,7.1289,7.1289,7.1289,7.1289,7.1289,7.1289,7.1289,7.1289,7.1289,7.1289,7.1289,7.1289,7.1289,7.1289,7.1289,7.1289,7.1289,7.1289,7.1289,7.1289,7.1289,7.1289,7.1289,7.1289,7.1289,7.1289,7.1289,7.1289,7.1289,7.1289,7.1289,7.1289,7.1289,7.1289,7.1289,7.1289,7.1289,7.1289,7.1289,7.1289,7.1289,7.1289,7.1289,7.1289,7.1289,7.1289,7.1289,7.1289,7.1289,7.1289,7.1289,7.1289,7.1289,7.1289,7.1289,7.1289,7.1289,7.1289,7.1289,7.1289,7.1289,7.1289,7.1289,7.1289,7.1289,7.1289,7.1289,7.1289,7.139,7.1775,7.212,7.2968,7.3699,7.4622,7.5446,7.6086,7.6512,7.6339,7.6403,7.6587,7.6801,7.7227,7.7173,7.7003,7.7318,7.7281,7.7111,7.6949,7.7075,7.7156,7.7281,7.7318,7.7318,7.7318,7.7318,7.7318,7.7318,7.7318,7.7318,6.7208,6.7963,6.8774,6.9485,7.0105,7.0172,7.0635,7.1267,7.1289,7.1289,7.1289,7.1289,7.1289,7.1289,7.1289,7.1289,7.1289,7.1289,7.1289,7.1289,7.1289,7.1289,7.1289,7.1289,7.1289,7.1289,7.1289,7.1289,7.1289,7.1289,7.1289,7.1289,7.1289,7.1289,7.1289,7.1289,7.1289,7.1289,7.1289,7.1289,7.1289,7.1289,7.1289,7.1289,7.1289,7.1289,7.1289,7.1289,7.1289,7.1289,7.1289,7.1289,7.1289,7.1289,7.1289,7.1289,7.1289,7.1289,7.1289,7.1289,7.1289,7.1289,7.1289,7.1289,7.1289,7.1289,7.1289,7.1289,7.1289,7.1289,7.1289,7.1289,7.1289,7.1289,7.1289,7.1289,7.1289,7.1289,7.1289,7.1289,7.1289,7.1289,7.1289,7.1289,7.13,7.1501,7.1816,7.2157,7.2882,7.3517,7.4261,7.4776,7.5066,7.5079,7.5299,7.5698,7.5883,7.6147,7.6457,7.6449,7.6824,7.6833,7.6286,7.6153,7.6743,7.6949,7.6824,7.6994,7.7318,7.7318,7.7318,7.7318,7.7318,7.7318,7.7318,6.7242,6.7963,6.8774,6.9519,7.0206,7.077,7.1097,7.1289,7.1289,7.1289,7.1289,7.1289,7.1289,7.1289,7.1289,7.1289,7.1289,7.1289,7.1289,7.1289,7.1289,7.1289,7.1289,7.1289,7.1289,7.1289,7.1289,7.1289,7.1289,7.1289,7.1289,7.1289,7.1289,7.1289,7.1289,7.1289,7.1289,7.1289,7.1289,7.1289,7.1289,7.1289,7.1289,7.1289,7.1289,7.1289,7.1289,7.1289,7.1289,7.1289,7.1289,7.1289,7.1289,7.1289,7.1289,7.1289,7.1289,7.1289,7.1289,7.1289,7.1289,7.1289,7.1289,7.1289,7.1289,7.1289,7.1289,7.1289,7.1289,7.1289,7.1289,7.1289,7.1289,7.1289,7.1289,7.1289,7.1289,7.1289,7.1289,7.1289,7.1289,7.1289,7.1289,7.1289,7.1312,7.1367,7.1499,7.1732,7.2062,7.2718,7.3133,7.3624,7.3896,7.3976,7.4341,7.4733,7.4854,7.5003,7.5396,7.557,7.5444,7.5356,7.5073,7.5374,7.6093,7.6254,7.6161,7.6573,7.7281,7.7355,7.7355,7.7318,7.7318,7.7355,7.7443,6.7692,6.8436,6.9214,6.9958,7.0635,7.1097,7.1289,7.1289,7.1289,7.1289,7.1289,7.1289,7.1289,7.1289,7.1289,7.1289,7.1289,7.1289,7.1289,7.1289,7.1289,7.1289,7.1289,7.1289,7.1289,7.1289,7.1289,7.1289,7.1289,7.1289,7.1289,7.1289,7.1289,7.1289,7.1289,7.1289,7.1289,7.1289,7.1289,7.1289,7.1289,7.1289,7.1289,7.1289,7.1289,7.1289,7.1289,7.1289,7.1289,7.1289,7.1289,7.1289,7.1289,7.1289,7.1289,7.1289,7.1289,7.1289,7.1289,7.1289,7.1289,7.1289,7.1289,7.1289,7.1289,7.1289,7.1289,7.1289,7.1289,7.1289,7.1289,7.1289,7.1289,7.1289,7.1289,7.1289,7.1289,7.1289,7.1289,7.1289,7.1289,7.1289,7.1289,7.1289,7.13,7.1334,7.1356,7.1411,7.1629,7.1992,7.2255,7.249,7.279,7.299,7.3364,7.3757,7.3967,7.4206,7.4628,7.4668,7.4313,7.4441,7.47,7.5082,7.5548,7.5874,7.6408,7.6814,7.7355,7.7501,7.7876,7.8104,7.7994,7.7656,7.7708,6.8368,6.9147,6.9936,7.0635,7.1233,7.1289,7.1289,7.1289,7.1289,7.1289,7.1289,7.1289,7.1289,7.1289,7.1289,7.1289,7.1289,7.1289,7.1289,7.1289,7.1289,7.1289,7.1289,7.1289,7.1289,7.1289,7.1289,7.1289,7.1289,7.1289,7.1289,7.1289,7.1289,7.1289,7.1289,7.1289,7.1289,7.1289,7.1289,7.1289,7.1289,7.1289,7.1289,7.1289,7.1289,7.1289,7.1289,7.1289,7.1289,7.1289,7.1289,7.1289,7.1289,7.1289,7.1289,7.1289,7.1289,7.1289,7.1289,7.1289,7.1289,7.1289,7.1289,7.1289,7.1289,7.1289,7.1289,7.1289,7.1289,7.1289,7.1289,7.1289,7.1289,7.1289,7.1289,7.1289,7.1289,7.1289,7.1289,7.1289,7.1289,7.1289,7.1289,7.1289,7.1289,7.1289,7.1289,7.1289,7.1356,7.1545,7.1636,7.1706,7.1954,7.2236,7.2422,7.2814,7.3107,7.3442,7.3749,7.37,7.3218,7.3757,7.4542,7.5101,7.5751,7.649,7.706,7.7607,7.8133,7.8479,7.8772,7.9037,7.8846,7.8398,7.835,6.8358,6.9214,7.05,7.1165,7.1289,7.1289,7.1289,7.1289,7.1289,7.1289,7.1289,7.1289,7.1289,7.1289,7.1289,7.1289,7.1289,7.1289,7.1289,7.1289,7.1289,7.1289,7.1289,7.1289,7.1289,7.1289,7.1289,7.1289,7.1289,7.1289,7.1289,7.1289,7.1289,7.1289,7.1289,7.1289,7.1289,7.1289,7.1289,7.1289,7.1289,7.1289,7.1289,7.1289,7.1289,7.1289,7.1289,7.1289,7.1289,7.1289,7.1289,7.1289,7.1289,7.1289,7.1289,7.1289,7.1289,7.1289,7.1289,7.1289,7.1289,7.1289,7.1289,7.1289,7.1289,7.1289,7.1289,7.1289,7.1289,7.1289,7.1289,7.1289,7.1289,7.1289,7.1289,7.1289,7.1289,7.1289,7.1289,7.1289,7.1289,7.1289,7.1289,7.1289,7.1289,7.1289,7.1289,7.1289,7.1289,7.139,7.1412,7.1458,7.1436,7.1627,7.1761,7.1928,7.2296,7.2215,7.2342,7.2247,7.2275,7.3379,7.4517,7.5396,7.613,7.7028,7.7964,7.8754,7.9197,7.9433,7.9588,7.9771,7.9882,7.9543,7.9462,6.8876,6.9699,7.0827,7.1289,7.1289,7.1289,7.1289,7.1289,7.1289,7.1289,7.1289,7.1289,7.1289,7.1289,7.1289,7.1289,7.1289,7.1289,7.1289,7.1289,7.1289,7.1289,7.1289,7.1289,7.1289,7.1289,7.1289,7.1289,7.1289,7.1289,7.1289,7.1289,7.1289,7.1289,7.1289,7.1289,7.1289,7.1289,7.1289,7.1289,7.1289,7.1289,7.1289,7.1289,7.1289,7.1289,7.1289,7.1289,7.1289,7.1289,7.1289,7.1289,7.1289,7.1289,7.1289,7.1289,7.1289,7.1289,7.1289,7.1289,7.1289,7.1289,7.1289,7.1289,7.1289,7.1289,7.1289,7.1289,7.1289,7.1289,7.1289,7.1289,7.1289,7.1289,7.1289,7.1289,7.1289,7.1289,7.1289,7.1289,7.1289,7.1289,7.1289,7.1289,7.1289,7.1289,7.1289,7.1289,7.1289,7.1289,7.1289,7.1289,7.1289,7.1289,7.1447,7.1492,7.1546,7.1379,7.1334,7.2144,7.2879,7.3646,7.4541,7.576,7.6878,7.7916,7.8812,7.9405,8.0009,8.0241,8.0351,8.0461,8.0542,8.0653,8.0672,6.9553,7.0375,7.103,7.1289,7.1289,7.1289,7.1289,7.1289,7.1289,7.1289,7.1289,7.1289,7.1289,7.1289,7.1289,7.1289,7.1289,7.1289,7.1289,7.1289,7.1289,7.1289,7.1289,7.1289,7.1289,7.1289,7.1289,7.1289,7.1289,7.1289,7.1289,7.1289,7.1289,7.1289,7.1289,7.1289,7.1289,7.1289,7.1289,7.1289,7.1289,7.1289,7.1289,7.1289,7.1289,7.1289,7.1289,7.1289,7.1289,7.1289,7.1289,7.1289,7.1289,7.1289,7.1289,7.1289,7.1289,7.1289,7.1289,7.1289,7.1289,7.1289,7.1289,7.1289,7.1289,7.1289,7.1289,7.1289,7.1289,7.1289,7.1289,7.1289,7.1289,7.1289,7.1289,7.1289,7.1289,7.1289,7.1289,7.1289,7.1289,7.1289,7.1289,7.1289,7.1289,7.1289,7.1289,7.1289,7.1289,7.1289,7.1289,7.1289,7.1289,7.1289,7.1289,7.1368,7.1368,7.1436,7.1605,7.2609,7.3521,7.4184,7.5192,7.655,7.766,7.8408,7.9089,7.9661,8.0247,8.0788,8.1158,8.1269,8.1415,8.1562,8.1819,6.988,7.1097,7.1255,7.1289,7.1289,7.1289,7.1289,7.1289,7.1289,7.1289,7.1289,7.1289,7.1289,7.1289,7.1289,7.1289,7.1289,7.1289,7.1289,7.1289,7.1289,7.1289,7.1289,7.1289,7.1289,7.1289,7.1289,7.1289,7.1289,7.1289,7.1289,7.1289,7.1289,7.1289,7.1289,7.1289,7.1289,7.1289,7.1289,7.1289,7.1289,7.1289,7.1289,7.1289,7.1289,7.1289,7.1289,7.1289,7.1289,7.1289,7.1289,7.1289,7.1289,7.1289,7.1289,7.1289,7.1289,7.1289,7.1289,7.1289,7.1289,7.1289,7.1289,7.1289,7.1289,7.1289,7.1289,7.1289,7.1289,7.1289,7.1289,7.1289,7.1289,7.1289,7.1289,7.1289,7.1289,7.1289,7.1289,7.1289,7.1289,7.1289,7.1289,7.1289,7.1289,7.1289,7.1289,7.1289,7.1289,7.1289,7.1289,7.1289,7.1289,7.1289,7.1289,7.1436,7.1503,7.1571,7.2011,7.313,7.4062,7.4647,7.57,7.6929,7.7785,7.845,7.9151,7.9468,8.0373,8.0949,8.1676,8.2039,8.2145,8.2186,8.2186]},{"header":{"parameterUnit":"m.s-1","parameterCategory":1,"la1":31.0,"la2":29.5877,"lo1":-88.7671,"lo2":-86.6584,"dy":0.0162,"dx":0.0185,"nx":115,"ny":88,"refTime":"2024-03-06T18:00:00:Z","depth":0,"parameterNumber":3,"parameterNumberName":"V-component_of_WINDS"},"data":[0.0,0.0,0.0,0.0,0.0,0.0,0.0,0.0,0.0,0.0,0.0,0.0,0.0,0.0,0.0,0.0,0.0,0.0,0.0,0.0,0.0,0.0,0.0,0.0,0.0,0.0,0.0,0.0,0.0,0.0,0.0,0.0,0.0,0.0,0.0,0.0,0.0,0.0,0.0,0.0,0.0,0.0,0.0,0.0,0.0,0.0,0.0,0.0,0.0,0.0,0.0,0.0,0.0,0.0,0.0,0.0,0.0,0.0,0.0,0.0,0.0,0.0,0.0,0.0,0.0,0.0,0.0,0.0,0.0,0.0,0.0,0.0,0.0,0.0,0.0,0.0,0.0,0.0,0.0,0.0,0.0,0.0,0.0,0.0,0.0,0.0,0.0,0.0,0.0,0.0,0.0,0.0,0.0,0.0,0.0,0.0,0.0,0.0,0.0,0.0,0.0,0.0,0.0,0.0,0.0,0.0,0.0,0.0,0.0,0.0,0.0,0.0,0.0,0.0,0.0,0.0,0.0,0.0,0.0,0.0,0.0,0.0,0.0,0.0,0.0,0.0,0.0,0.0,0.0,0.0,0.0,0.0,0.0,0.0,0.0,0.0,0.0,0.0,0.0,0.0,0.0,0.0,0.0,0.0,0.0,0.0,0.0,0.0,0.0,0.0,0.0,0.0,0.0,0.0,0.0,0.0,0.0,0.0,0.0,0.0,0.0,0.0,0.0,0.0,0.0,0.0,0.0,0.0,0.0,0.0,0.0,0.0,0.0,0.0,0.0,0.0,0.0,0.0,0.0,0.0,0.0,0.0,0.0,0.0,0.0,0.0,0.0,0.0,0.0,0.0,0.0,0.0,0.0,0.0,0.0,0.0,0.0,0.0,0.0,0.0,0.0,0.0,0.0,0.0,0.0,0.0,0.0,0.0,0.0,0.0,0.0,0.0,0.0,0.0,0.0,0.0,0.0,0.0,0.0,0.0,0.0,0.0,0.0,0.0,0.0,0.0,0.0,0.0,0.0,0.0,0.0,0.0,0.0,0.0,0.0,0.0,0.0,0.0,0.0,0.0,0.0,0.0,0.0,0.0,0.0,0.0,0.0,0.0,0.0,0.0,0.0,0.0,0.0,0.0,0.0,0.0,0.0,0.0,0.0,0.0,0.0,0.0,0.0,0.0,0.0,0.0,0.0,0.0,0.0,0.0,0.0,0.0,0.0,0.0,0.0,0.0,0.0,0.0,0.0,0.0,0.0,0.0,0.0,0.0,0.0,0.0,0.0,0.0,0.0,0.0,0.0,0.0,0.0,0.0,0.0,0.0,0.0,0.0,0.0,0.0,0.0,0.0,0.0,0.0,0.0,0.0,0.0,0.0,0.0,0.0,0.0,0.0,0.0,0.0,0.0,0.0,0.0,0.0,0.0,0.0,0.0,0.0,0.0,0.0,0.0,0.0,0.0,0.0,0.0,0.0,0.0,0.0,0.0,0.0,0.0,0.0,0.0,0.0,0.0,0.0,0.0,0.0,0.0,0.0,0.0,0.0,0.0,0.0,0.0,0.0,0.0,0.0,0.0,0.0,0.0,0.0,0.0,0.0,0.0,0.0,0.0,0.0,0.0,0.0,0.0,0.0,0.0,0.0,0.0,0.0,0.0,0.0,0.0,0.0,0.0,0.0,0.0,0.0,0.0,0.0,0.0,0.0,0.0,0.0,0.0,0.0,0.0,0.0,0.0,0.0,0.0,0.0,0.0,0.0,0.0,0.0,0.0,0.0,0.0,0.0,0.0,0.0,0.0,0.0,0.0,0.0,0.0,0.0,0.0,0.0,0.0,0.0,0.0,0.0,0.0,0.0,0.0,0.0,0.0,0.0,0.0,0.0,0.0,0.0,0.0,0.0,0.0,0.0,0.0,0.0,0.0,0.0,0.0,0.0,0.0,0.0,0.0,0.0,0.0,0.0,0.0,0.0,0.0,0.0,0.0,0.0,0.0,0.0,0.0,0.0,0.0,0.0,0.0,0.0,0.0,0.0,0.0,0.0,0.0,0.0,0.0,0.0,0.0,0.0,0.0,0.0,0.0,0.0,0.0,0.0,0.0,0.0,0.0,0.0,0.0,0.0,0.0,0.0,0.0,0.0,0.0,0.0,0.0,0.0,0.0,0.0,0.0,0.0,0.0,0.0,0.0,0.0,0.0,0.0,0.0,0.0,0.0,0.0,0.0,0.0,0.0,0.0,0.0,0.0,0.0,0.0,0.0,0.0,0.0,0.0,0.0,0.0,0.0,0.0,0.0,0.0,0.0,0.0,0.0,0.0,0.0,0.0,0.0,0.0,0.0,0.0,0.0,0.0,0.0,0.0,0.0,0.0,0.0,0.0,0.0,0.0,0.0,0.0,0.0,0.0,0.0,0.0,0.0,0.0,0.0,0.0,0.0,0.0,0.0,0.0,0.0,0.0,0.0,0.0,0.0,0.0,0.0,0.0,0.0,0.0,0.0,0.0,0.0,0.0,0.0,0.0,0.0,0.0,0.0,0.0,0.0,0.0,0.0,0.0,0.0,0.0,0.0,0.0,0.0,0.0,0.0,0.0,0.0,0.0,0.0,0.0,0.0,0.0,0.0,0.0,0.0,0.0,0.0,0.0,0.0,0.0,0.0,0.0,0.0,0.0,0.0,0.0,0.0,0.0,0.0,0.0,0.0,0.0,0.0,0.0,0.0,0.0,0.0,0.0,0.0,0.0,0.0,0.0,0.0,0.0,0.0,0.0,0.0,0.0,0.0,0.0,0.0,0.0,0.0,0.0,0.0,0.0,0.0,0.0,0.0,0.0,0.0,0.0,0.0,0.0,0.0,0.0,0.0,0.0,0.0,0.0,0.0,0.0,0.0,0.0,0.0,0.0,0.0,0.0,0.0,0.0,0.0,0.0,0.0,0.0,0.0,0.0,0.0,0.0,0.0,0.0,0.0,0.0,0.0,0.0,0.0,0.0,0.0,0.0,0.0,0.0,0.0,0.0,0.0,0.0,0.0,0.0,0.0,0.0,0.0,0.0,0.0,0.0,0.0,0.0,0.0,0.0,0.0,0.0,0.0,0.0,0.0,0.0,0.0,0.0,0.0,0.0,0.0,0.0,0.0,0.0,0.0,0.0,0.0,0.0,0.0,0.0,0.0,0.0,0.0,0.0,0.0,0.0,0.0,0.0,0.0,0.0,0.0,0.0,0.0,0.0,0.0,0.0,0.0,0.0,0.0,0.0,0.0,0.0,0.0,0.0,0.0,0.0,0.0,0.0,0.0,0.0,0.0,0.0,0.0,0.0,0.0,0.0,0.0,0.0,0.0,0.0,0.0,0.0,0.0,0.0,0.0,0.0,0.0,0.0,0.0,0.0,0.0,0.0,0.0,0.0,0.0,0.0,0.0,0.0,0.0,0.0,0.0,0.0,0.0,0.0,0.0,0.0,0.0,0.0,0.0,0.0,0.0,0.0,0.0,0.0,0.0,0.0,0.0,0.0,0.0,0.0,0.0,0.0,0.0,0.0,0.0,0.0,0.0,0.0,0.0,0.0,0.0,0.0,0.0,0.0,0.0,0.0,0.0,0.0,0.0,0.0,0.0,0.0,0.0,0.0,0.0,0.0,0.0,0.0,0.0,0.0,0.0,0.0,0.0,0.0,0.0,0.0,0.0,0.0,0.0,0.0,0.0,0.0,0.0,0.0,0.0,0.0,0.0,0.0,0.0,0.0,0.0,0.0,0.0,0.0,0.0,0.0,0.0,0.0,0.0,0.0,0.0,0.0,0.0,0.0,0.0,0.0,0.0,0.0,0.0,0.0,0.0,0.0,0.0,0.0,0.0,0.0,0.0,0.0,0.0,0.0,0.0,0.0,0.0,0.0,0.0,0.0,0.0,0.0,0.0,0.0,0.0,0.0,0.0,0.0,0.0,0.0,0.0,0.0,0.0,0.0,0.0,0.0,0.0,0.0,0.0,0.0,0.0,0.0,0.0,0.0,0.0,0.0,0.0,0.0,0.0,0.0,0.0,0.0,0.0,0.0,0.0,0.0,0.0,0.0,0.0,0.0,0.0,0.0,0.0,0.0,0.0,0.0,0.0,0.0,0.0,0.0,0.0,0.0,0.0,0.0,0.0,0.0,0.0,0.0,0.0,0.0,0.0,0.0,0.0,0.0,0.0,0.0,0.0,0.0,0.0,0.0,0.0,0.0,0.0,0.0,0.0,0.0,0.0,0.0,0.0,0.0,0.0,0.0,0.0,0.0,0.0,0.0,0.0,0.0,0.5348,0.0,0.0,0.0,0.0,0.0,0.0,0.0,0.0,0.0,0.0,0.0,0.0,0.0,0.0,0.0,0.0,0.0,0.0,0.0,0.0,0.0,0.0,0.0,0.0,0.0,0.0,0.0,0.0,0.0,0.0,0.0,0.0,0.0,0.0,0.0,0.0,0.0,0.0,0.0,0.0,0.0,0.0,0.0,0.0,0.0,0.0,0.0,0.0,0.0,0.0,0.0,0.0,0.0,0.0,0.0,0.0,0.0,0.0,0.0,0.0,0.0,0.0,0.0,0.0,0.0,0.0,0.0,0.0,0.0,0.0,0.0,0.0,0.0,0.0,0.0,0.0,0.0,0.0,0.0,0.0,0.0,0.0,0.0,0.0,0.0,0.0,0.0,0.0,0.0,0.0,0.0,0.0,0.0,0.0,0.0,0.0,0.0,0.0,0.0,0.0,0.0,0.0,0.0,0.0,0.0,0.0,0.0,0.0,0.0,0.0,0.54,0.54,0.54,0.54,0.54,0.0,0.0,0.0,0.0,0.0,0.0,0.0,0.0,0.0,0.0,0.0,0.0,0.0,0.0,0.0,0.0,0.0,0.0,0.0,0.0,0.0,0.0,0.0,0.0,0.0,0.0,0.0,0.0,0.0,0.0,0.0,0.0,0.0,0.0,0.0,0.0,0.0,0.0,0.0,0.0,0.0,0.0,0.0,0.0,0.0,0.0,0.0,0.0,0.0,0.0,0.0,0.0,0.0,0.0,0.0,0.0,0.0,0.0,0.0,0.0,0.0,0.0,0.0,0.0,0.0,0.0,0.0,0.0,0.0,0.0,0.0,0.0,0.0,0.0,0.0,0.0,0.0,0.0,0.0,0.0,0.0,0.0,0.0,0.0,0.0,0.0,0.0,0.0,0.0,0.0,0.0,0.0,0.0,0.0,0.0,0.0,0.0,0.0,0.0,0.0,0.0,0.0,0.0,0.0,0.0,0.0,0.0,0.0,0.0,0.0,0.0,0.0,0.5412,0.54,0.54,0.0,0.0,0.0,0.0,0.0,0.0,0.0,0.0,0.0,0.0,0.0,0.0,0.0,0.0,0.0,0.0,0.0,0.0,0.0,0.0,0.0,0.0,0.0,0.0,0.0,0.0,0.0,0.0,0.0,0.0,0.0,0.0,0.0,0.0,0.0,0.0,0.0,0.0,0.0,0.0,0.0,0.0,0.0,0.0,0.0,0.0,0.0,0.0,0.0,0.0,0.0,0.0,0.0,0.0,0.0,0.0,0.0,0.0,0.0,0.0,0.0,0.0,0.0,0.0,0.0,0.0,0.0,0.0,0.0,0.0,0.0,0.0,0.0,0.0,0.0,0.0,0.0,0.0,0.0,0.0,0.0,0.0,0.0,0.0,0.0,0.0,0.0,0.0,0.0,0.0,0.0,0.0,0.0,0.0,0.0,0.0,0.0,0.0,0.0,0.0,0.0,0.0,0.0,0.0,0.0,0.0,0.0,0.0,0.0,0.0,0.5452,0.5571,0.5458,0.0,0.54,0.0,0.0,0.0,0.0,0.0,0.0,0.0,0.0,0.0,0.0,0.0,0.0,0.0,0.0,0.0,0.0,0.0,0.0,0.0,0.0,0.0,0.0,0.0,0.0,0.0,0.0,0.0,0.0,0.0,0.0,0.0,0.0,0.0,0.0,0.0,0.0,0.0,0.0,0.0,0.0,0.0,0.0,0.0,0.0,0.0,0.0,0.0,0.0,0.0,0.0,0.0,0.0,0.0,0.0,0.0,0.0,0.0,0.0,0.0,0.0,0.0,0.0,0.0,0.0,0.0,0.0,0.0,0.0,0.0,0.0,0.0,0.0,0.0,0.0,0.0,0.0,0.0,0.0,0.0,0.0,0.0,0.0,0.0,0.0,0.0,0.0,0.0,0.0,0.0,0.0,0.0,0.0,0.0,0.0,0.0,0.0,0.0,0.0,0.0,0.0,0.0,0.0,0.0,0.0,0.0,0.0,0.0,0.0,0.0,0.0,0.5506,0.5479,0.5426,0.54,0.0,0.0,0.0,0.0,0.0,0.0,0.0,0.0,0.0,0.0,0.0,0.0,0.0,0.0,0.0,0.0,0.0,0.0,0.0,0.0,0.0,0.0,0.0,0.0,0.0,0.0,0.0,0.0,0.0,0.0,0.0,0.0,0.0,0.0,0.0,0.0,0.0,0.0,0.0,0.0,0.0,0.0,0.0,0.0,0.0,0.0,0.0,0.0,0.0,0.0,0.0,0.0,0.0,0.0,0.0,0.0,0.0,0.0,0.0,0.0,0.0,0.0,0.0,0.0,0.0,0.0,0.0,0.0,0.0,0.0,0.0,0.0,0.0,0.0,0.0,0.0,0.0,0.0,0.0,0.0,0.0,0.0,0.0,0.0,0.0,0.0,0.0,0.0,0.0,0.0,0.0,0.0,0.0,0.0,0.0,0.0,0.0,0.0,0.0,0.0,0.0,0.0,0.0,0.0,0.0,0.0,0.0,0.0,0.0,0.0,0.5573,0.5552,0.5467,0.546,0.544,0.5407,0.0,0.0,0.0,0.0,0.0,0.0,0.0,0.0,0.0,0.0,0.0,0.0,0.0,0.0,0.0,0.0,0.0,0.0,0.0,0.0,0.0,0.0,0.0,0.0,0.0,0.0,0.0,0.0,0.0,0.0,0.0,0.0,0.0,0.0,0.0,0.0,0.0,0.0,0.0,0.0,0.0,0.0,0.0,0.0,0.0,0.0,0.0,0.0,0.0,0.0,0.0,0.0,0.0,0.0,0.0,0.0,0.0,0.0,0.0,0.0,0.0,0.0,0.0,0.0,0.0,0.0,0.0,0.0,0.0,0.0,0.0,0.0,0.0,0.0,0.0,0.0,0.0,0.0,0.0,0.0,0.0,0.0,0.0,0.0,0.0,0.0,0.0,0.0,0.0,0.0,0.0,0.0,0.0,0.0,0.0,0.0,0.0,0.0,0.0,0.0,0.0,0.0,0.0,0.0,0.0,0.0,0.0,0.0,0.5768,0.5659,0.5589,0.5593,0.5583,0.554,0.0,0.0,0.0,0.0,0.0,0.0,0.0,0.0,0.0,0.0,0.0,0.0,0.0,0.0,0.0,0.0,0.0,0.0,0.0,0.0,0.0,0.0,0.0,0.0,0.0,0.0,0.0,0.0,0.0,0.0,0.0,0.0,0.0,0.0,0.0,0.0,0.0,0.0,0.0,0.0,0.0,0.0,0.0,0.0,0.0,0.0,0.0,0.0,0.0,0.0,0.0,0.0,0.0,0.0,0.0,0.0,0.0,0.0,0.0,0.0,0.0,0.0,0.0,0.0,0.0,0.0,0.0,0.0,0.0,0.0,0.0,0.0,0.0,0.0,0.0,0.0,0.0,0.0,0.0,0.0,0.0,0.0,0.0,0.0,0.0,0.0,0.0,0.0,0.0,0.0,0.0,0.0,0.0,0.0,0.0,0.0,0.0,0.0,0.0,0.0,0.0,0.0,0.0,0.0,0.0,0.0,0.0,0.0,0.0,0.5532,0.5493,0.5552,0.5711,0.5568,0.5494,0.0,0.0,0.0,0.0,0.0,0.0,0.0,0.0,0.0,0.0,0.0,0.0,0.0,0.0,0.0,0.0,0.0,0.0,0.0,0.0,0.0,0.0,0.0,0.0,0.0,0.0,0.0,0.0,0.0,0.0,0.0,0.0,0.0,0.0,0.0,0.0,0.0,0.0,0.0,0.0,0.0,0.0,0.0,0.0,0.0,0.0,0.0,0.0,0.0,0.0,0.0,0.0,0.0,0.0,0.0,0.0,0.0,0.0,0.0,0.0,0.0,0.0,0.0,0.0,0.0,0.0,0.0,0.0,0.0,0.0,0.0,0.0,0.0,0.0,0.0,0.0,0.0,0.0,0.0,0.0,0.0,0.0,0.0,0.0,0.0,0.0,0.0,0.0,0.0,0.0,0.0,0.0,0.0,0.0,0.0,0.0,0.0,0.0,0.0,0.0,0.0,0.0,0.0,0.0,0.0,0.0,0.0,0.0,0.0,0.5527,0.0,0.5668,0.5786,0.5636,0.5525,0.0,0.0,0.0,0.0,0.0,0.0,0.0,0.0,0.0,0.0,0.0,0.0,0.0,0.0,0.0,0.0,0.0,0.0,0.0,0.0,0.0,0.0,0.0,0.0,0.0,0.0,0.0,0.0,0.0,0.0,0.0,0.0,0.0,0.0,0.0,0.0,0.0,0.0,0.0,0.0,0.0,0.0,0.0,0.0,0.0,0.0,0.0,0.0,0.0,0.0,0.0,0.0,0.0,0.0,0.0,0.0,0.0,0.0,0.0,0.0,0.0,0.0,0.0,0.0,0.0,0.0,0.0,0.0,0.0,0.0,0.0,0.0,0.0,0.0,0.0,0.0,0.0,0.0,0.0,0.0,0.0,0.0,0.0,0.0,0.0,0.0,0.0,0.0,0.0,0.0,0.0,0.0,0.0,0.0,0.0,0.0,0.0,0.0,0.0,0.0,0.0,0.0,0.0,0.0,0.0,0.0,0.0,0.0,0.5542,0.5786,0.5901,0.5917,0.5813,0.5784,0.5681,0.0,0.0,0.0,0.0,0.0,0.0,0.0,0.0,0.0,0.0,0.0,0.0,0.0,0.0,0.0,0.0,0.0,0.0,0.0,0.0,0.0,0.0,0.0,0.0,0.0,0.0,0.0,0.0,0.0,0.0,0.0,0.0,0.0,0.0,0.0,0.0,0.0,0.0,0.0,0.0,0.0,0.0,0.0,0.0,0.0,0.0,0.0,0.0,0.0,0.0,0.0,0.0,0.0,0.0,0.0,0.0,0.0,0.0,0.0,0.0,0.0,0.0,0.0,0.0,0.0,0.0,0.0,0.0,0.0,0.0,0.0,0.0,0.0,0.0,0.0,0.0,0.0,0.0,0.0,0.0,0.0,0.0,0.0,0.0,0.0,0.0,0.0,0.0,0.0,0.0,0.0,0.0,0.0,0.0,0.0,0.0,0.0,0.0,0.0,0.0,0.0,0.0,0.0,0.0,0.0,0.0,0.0,0.0,0.0,0.5666,0.58,0.5892,0.5921,0.5836,0.5768,0.0,0.0,0.0,0.0,0.0,0.0,0.0,0.0,0.0,0.0,0.0,0.0,0.0,0.0,0.0,0.0,0.0,0.0,0.0,0.0,0.0,0.0,0.0,0.0,0.0,0.0,0.0,0.0,0.0,0.0,0.0,0.0,0.0,0.0,0.0,0.0,0.0,0.0,0.0,0.0,0.0,0.0,0.0,0.0,0.0,0.0,0.0,0.0,0.0,0.0,0.0,0.0,0.0,0.0,0.0,0.0,0.0,0.0,0.0,0.0,0.0,0.0,0.0,0.0,0.0,0.0,0.0,0.0,0.0,0.0,0.0,0.0,0.0,0.0,0.0,0.0,0.0,0.0,0.0,0.0,0.0,0.0,0.0,0.0,0.0,0.0,0.0,0.0,0.0,0.0,0.0,0.0,0.0,0.0,0.0,0.0,0.0,0.0,0.0,0.0,0.0,0.0,0.0,0.0,0.0,0.0,0.0,0.0,0.0,0.6617,0.6263,0.608,0.6109,0.6033,0.5933,0.5797,0.0,0.0,0.0,0.0,0.0,0.0,0.0,0.0,0.0,0.0,0.0,0.0,0.0,0.0,0.0,0.0,0.0,0.0,0.0,0.0,0.0,0.0,0.0,0.0,0.0,0.0,0.0,0.0,0.0,0.0,0.0,0.0,0.0,0.0,0.0,0.0,0.0,0.0,0.0,0.0,0.0,0.0,0.0,0.0,0.0,0.0,0.0,0.0,0.0,0.0,0.0,0.0,0.0,0.0,0.0,0.0,0.0,0.0,0.0,0.0,0.0,0.0,0.0,0.0,0.0,0.0,0.0,0.0,0.0,0.0,0.0,0.0,0.0,0.0,0.0,0.0,0.0,0.0,0.0,0.0,0.0,0.0,0.0,0.0,0.0,0.0,0.0,0.0,0.0,0.0,0.0,0.0,0.0,0.0,0.0,0.0,0.0,0.0,0.0,0.0,0.0,0.0,0.0,0.0,0.0,0.0,0.0,0.0,0.8519,0.7382,0.6707,0.6498,0.6373,0.6193,0.0,0.0,0.0,0.0,0.0,0.0,0.0,0.0,0.0,0.0,0.0,0.0,0.0,0.0,0.0,0.0,0.0,0.0,0.0,0.0,0.0,0.0,0.0,0.0,0.0,0.0,0.0,0.0,0.0,0.0,0.0,0.0,0.0,0.0,0.0,0.0,0.0,0.0,0.0,0.0,0.0,0.0,0.0,0.0,0.0,0.0,0.0,0.0,0.0,0.0,0.0,0.0,0.0,0.0,0.0,0.0,0.0,0.0,0.0,0.0,0.0,0.0,0.0,0.0,0.0,0.0,0.0,0.0,0.0,0.0,0.0,0.0,0.0,0.0,0.0,0.0,0.0,0.0,0.0,0.0,0.0,0.0,0.0,0.0,0.0,0.0,0.0,0.0,0.0,0.0,0.0,0.0,0.0,0.0,0.0,0.0,0.0,0.0,0.0,0.0,0.0,0.0,0.0,0.0,0.0,0.0,0.0,0.0,0.0,1.0085,1.0093,0.9518,0.8387,0.7212,0.6943,0.0,0.0,0.0,0.0,0.0,0.0,0.0,0.0,0.0,0.0,0.0,0.0,0.0,0.0,0.0,0.0,0.0,0.0,0.0,0.0,0.0,0.0,0.0,0.0,0.0,0.0,0.0,0.0,0.0,0.0,0.0,0.0,0.0,0.0,0.0,0.0,0.0,0.0,0.0,0.0,0.0,0.0,0.0,0.0,0.0,0.0,0.0,0.0,0.0,0.0,0.0,0.0,0.0,0.0,0.0,0.0,0.0,0.0,0.0,0.0,0.0,0.0,0.0,0.0,0.0,0.0,0.0,0.0,0.0,0.0,0.0,0.0,0.0,0.0,0.0,0.0,0.0,0.0,0.0,0.0,0.0,0.0,0.0,0.0,0.0,0.0,0.0,0.0,0.0,0.0,0.0,0.0,0.0,0.0,0.0,0.0,0.0,0.0,0.0,0.0,0.0,0.0,0.0,0.0,0.0,0.0,0.0,0.0,0.9692,1.1662,1.1612,1.1407,1.1138,0.9513,0.8795,0.0,0.0,0.0,0.0,0.0,0.0,0.0,0.0,0.0,0.0,0.0,0.0,0.0,0.0,0.0,0.0,0.0,0.0,0.0,0.0,0.0,0.0,0.0,0.0,0.0,0.0,0.0,0.0,0.0,0.0,0.0,0.0,0.0,0.0,0.0,0.0,0.0,0.0,0.0,0.0,0.0,0.0,0.0,0.0,0.0,0.0,0.0,0.0,0.0,0.0,0.0,0.0,0.0,0.0,0.0,0.0,0.0,0.0,0.0,0.0,0.0,0.0,0.0,0.0,0.0,0.0,0.0,0.0,0.0,0.0,0.0,0.0,0.0,0.0,0.0,0.0,0.0,0.0,0.0,0.0,0.0,0.0,0.0,0.0,0.0,0.0,0.0,0.0,0.0,0.0,0.0,0.0,0.0,0.0,0.0,0.0,0.0,0.0,0.0,0.0,0.0,0.0,0.0,0.0,0.0,0.0,0.0,0.0,1.0715,1.319,1.2632,1.2885,1.3992,1.2278,1.1035,0.0,0.0,0.0,0.0,0.0,0.0,0.0,0.0,0.0,0.0,0.0,0.0,0.0,0.0,0.0,0.0,0.0,0.0,0.0,0.0,0.0,0.0,0.0,0.0,0.0,0.0,0.0,0.0,0.0,0.0,0.0,0.0,0.0,0.0,0.0,0.0,0.0,0.0,0.0,0.0,0.0,0.0,0.0,0.0,0.0,0.0,0.0,0.0,0.0,0.0,0.0,0.0,0.0,0.0,0.0,0.0,0.0,0.0,0.0,0.0,0.0,0.0,0.0,0.0,0.0,0.0,0.0,0.0,0.0,0.0,0.0,0.0,0.0,0.0,0.0,0.0,0.0,0.0,0.0,0.0,0.0,0.0,0.0,0.0,0.0,0.0,0.0,0.0,0.0,0.0,0.0,0.0,0.0,0.0,0.0,0.0,0.0,0.0,0.0,0.0,0.0,0.0,0.0,0.0,0.0,0.0,0.0,0.0,1.3042,1.4837,1.495,1.5117,1.5379,1.262,1.1445,0.0,0.0,0.0,0.0,0.0,0.0,0.0,0.0,0.0,0.0,0.0,0.0,0.0,0.0,0.0,0.0,0.0,0.0,0.0,0.0,0.0,0.0,0.0,0.0,0.0,0.0,0.0,0.0,0.0,0.0,0.0,0.0,0.0,0.0,0.0,0.0,0.0,0.0,0.0,0.0,0.0,0.0,0.0,0.0,0.0,0.0,0.0,0.0,0.6654,0.0,0.0,0.0,0.0,0.0,0.0,0.0,0.0,0.0,0.0,0.0,0.0,0.0,0.0,0.0,0.0,0.0,0.0,0.0,0.0,0.0,0.0,0.0,0.0,0.0,0.0,0.0,0.0,0.0,0.0,0.0,0.0,0.0,0.0,0.0,0.0,0.0,0.0,0.0,0.0,0.0,0.0,0.0,0.0,0.0,0.0,0.0,0.0,0.0,0.0,0.0,0.0,0.0,0.0,0.0,0.0,0.0,0.0,0.0,1.3787,1.5343,1.5661,1.582,1.5746,1.4048,1.3184,0.0,0.0,0.0,0.0,0.0,0.0,0.0,0.0,0.0,0.0,0.0,0.0,0.0,0.0,0.0,0.0,0.0,0.0,0.0,0.0,0.0,0.0,0.0,0.0,0.0,0.0,0.0,0.0,0.0,0.0,0.0,0.0,0.0,0.0,0.0,0.0,0.0,0.0,0.0,0.0,0.0,0.0,0.0,0.0,0.0,0.0,0.0,0.0,0.0,0.0,0.0,0.0,0.0,0.0,0.0,0.0,0.0,0.0,0.0,0.0,0.0,0.0,0.0,0.0,0.0,0.0,0.0,0.0,0.0,0.0,0.0,0.0,0.0,0.0,0.0,0.0,0.0,0.0,0.0,0.0,0.0,0.0,0.0,0.0,0.0,0.0,0.0,0.0,0.0,0.0,0.0,0.0,0.0,0.0,0.0,0.0,0.0,0.0,0.0,0.0,0.0,0.0,0.0,0.0,0.0,0.0,0.0,1.2542,1.3946,1.5385,1.5675,1.582,1.5795,1.558,1.503,1.4135,0.0,0.0,0.0,0.0,0.0,0.0,0.0,0.0,0.0,0.0,0.0,0.0,0.0,0.0,0.0,0.0,0.0,0.0,0.0,0.0,0.0,0.0,0.0,0.0,0.0,0.0,0.0,0.0,0.0,0.0,0.0,0.0,0.0,0.0,0.0,0.0,0.0,0.0,0.6086,0.6277,0.0,0.0,0.0,0.0,0.0,0.0,0.0,0.0,0.6586,0.0,0.0,0.0,0.0,0.0,0.0,0.0,0.0,0.0,0.0,0.0,0.0,0.0,0.0,0.0,0.0,0.0,0.0,0.0,0.0,0.0,0.0,0.0,0.0,0.0,0.0,0.0,0.0,0.0,0.0,0.0,0.0,0.0,0.0,0.0,0.0,0.0,0.0,0.0,0.0,0.0,0.0,0.0,0.0,0.0,0.0,0.0,0.0,0.0,0.0,0.0,0.0,0.0,0.0,0.0,0.0,1.3842,1.4122,1.4733,1.569,1.5781,1.582,1.582,1.5755,1.5208,1.4172,0.0,0.0,0.0,0.0,0.0,0.0,0.0,0.0,0.0,0.0,0.0,0.0,0.0,0.0,0.0,0.0,0.0,0.0,0.0,0.0,0.0,0.0,0.0,0.0,0.0,0.0,0.0,0.0,0.0,0.0,0.0,0.0,0.0,0.0,0.0,0.0,0.0,0.0,0.0,0.6712,0.6685,0.0,0.0,0.0,0.0,0.0,0.0,0.0,0.0,0.6718,0.0,0.0,0.0,0.0,0.0,0.0,0.0,0.0,0.0,0.0,0.0,0.0,0.0,0.0,0.0,0.0,0.0,0.0,0.0,0.0,0.0,0.0,0.0,0.0,0.0,0.0,0.0,0.0,0.0,0.0,0.0,0.0,0.0,0.0,0.0,0.0,0.0,0.0,0.0,0.0,0.0,0.0,0.0,0.0,0.0,0.0,0.0,0.0,0.0,0.0,0.0,0.0,0.0,0.0,0.0,1.3537,1.4471,1.5246,1.5781,1.582,1.582,1.5807,1.5538,1.4977,0.0,0.0,0.0,0.0,0.0,0.0,0.0,0.0,0.0,0.0,0.0,0.0,0.0,0.0,0.0,0.0,0.0,0.0,0.0,0.0,0.0,0.0,0.0,0.0,0.0,0.0,0.0,0.0,0.0,0.0,0.0,0.0,0.0,0.0,0.0,0.0,0.0,0.0,0.0,0.0,0.6806,0.6893,0.7154,0.0,0.0,0.0,0.0,0.0,0.0,0.6989,0.6776,0.0,0.0,0.0,0.0,0.0,0.0,0.0,0.0,0.0,0.0,0.0,0.0,0.0,0.0,0.0,0.0,0.0,0.0,0.0,0.0,0.0,0.0,0.0,0.0,0.0,0.0,0.0,0.0,0.0,0.0,0.0,0.0,0.0,0.0,0.0,0.0,0.0,0.0,0.0,0.0,0.0,0.0,0.0,0.0,0.0,0.0,0.0,0.0,0.0,0.0,0.0,0.0,0.0,0.0,0.0,1.2977,1.4492,1.5484,1.5781,1.582,1.582,1.5795,1.5336,1.4772,0.0,0.0,0.0,0.0,0.0,0.0,0.0,0.0,0.0,0.0,0.0,0.0,0.0,0.0,0.0,0.0,0.0,0.0,0.0,0.0,0.0,0.0,0.0,0.0,0.0,0.0,0.0,0.0,0.0,0.0,0.0,0.0,0.0,0.0,0.0,0.0,0.0,0.0,0.0,0.0,0.0,0.7121,0.7878,0.7222,0.0,0.0,0.0,0.0,0.7607,0.7225,0.0,0.0,0.0,0.0,0.0,0.0,0.0,0.0,0.0,0.0,0.0,0.0,0.0,0.0,0.0,0.0,0.0,0.0,0.0,0.0,0.0,0.0,0.0,0.0,0.0,0.0,0.0,0.0,0.0,0.0,0.0,0.0,0.0,0.0,0.0,0.0,0.0,0.0,0.0,0.0,0.0,0.0,0.0,0.0,0.0,0.0,0.0,0.0,0.0,0.0,0.0,0.0,0.0,0.0,0.0,0.0,1.3934,1.4674,1.5271,1.5768,1.5808,1.582,1.5795,1.5499,1.495,0.0,0.0,0.0,0.0,0.0,0.0,0.0,0.0,0.0,0.0,0.0,0.0,0.0,0.0,0.0,0.0,0.0,0.0,0.0,0.0,0.0,0.0,0.0,0.0,0.0,0.0,0.0,0.0,0.0,0.0,0.0,0.0,0.0,0.0,0.0,0.0,0.0,0.0,0.0,0.0,0.0,0.7489,0.7938,0.7874,0.7442,0.0,0.0,0.7312,0.7876,0.7702,0.0,0.0,0.0,0.0,0.0,0.0,0.0,0.0,0.0,0.0,0.0,0.0,0.0,0.0,0.0,0.0,0.0,0.0,0.0,0.0,0.0,0.0,0.0,0.0,0.0,0.0,0.0,0.0,0.0,0.0,0.0,0.0,0.0,0.0,0.0,0.0,0.0,0.0,0.0,0.0,0.0,0.0,0.0,0.0,0.0,0.0,0.0,0.0,0.0,0.0,0.0,0.0,0.0,0.0,0.0,1.3841,1.4119,1.499,1.5566,1.5795,1.5992,1.598,1.5808,1.5391,1.4827,0.0,0.0,0.0,0.0,0.0,0.0,0.0,0.0,0.0,0.0,0.0,0.0,0.0,0.0,0.0,0.0,0.0,0.0,0.0,0.0,0.0,0.0,0.0,0.0,0.0,0.0,0.0,0.0,0.0,0.0,0.0,0.0,0.0,0.0,0.0,0.0,0.0,0.0,0.0,0.0,0.0,0.0,0.7722,0.7894,0.0,0.0,0.0,0.8001,0.8251,0.0,0.0,0.0,0.0,0.0,0.0,0.0,0.0,0.0,0.0,0.0,0.0,0.0,0.0,0.0,0.0,0.0,0.0,0.0,0.0,0.0,0.0,0.0,0.0,0.0,0.0,0.0,0.0,0.0,0.0,0.0,0.0,0.0,0.0,0.0,0.0,0.0,0.0,0.0,0.0,0.0,0.0,0.0,0.0,0.0,0.0,0.0,0.0,0.0,0.0,0.0,0.0,0.0,0.0,0.0,0.0,0.0,1.4226,1.5406,1.6021,1.6021,1.6271,1.6273,1.6021,1.5588,0.0,0.0,0.0,0.0,0.0,0.0,0.0,0.0,0.0,0.0,0.0,0.0,0.0,0.0,0.0,0.0,0.0,0.0,0.0,0.0,0.0,0.0,0.0,0.0,0.0,0.0,0.0,0.554,0.0,0.0,0.0,0.0,0.0,0.0,0.0,0.0,0.0,0.0,0.0,0.0,0.0,0.0,0.7244,0.7447,0.7787,0.7838,0.0,0.0,0.8596,0.8595,0.8335,0.7971,0.0,0.0,0.0,0.0,0.0,0.0,0.0,0.0,0.0,0.0,0.0,0.0,0.0,0.0,0.0,0.0,0.0,0.0,0.0,0.0,0.0,0.0,0.0,0.0,0.0,0.0,0.0,0.0,0.0,0.0,0.0,0.0,0.0,0.0,0.0,0.0,0.0,0.0,0.0,0.0,0.0,0.0,0.0,0.0,0.0,0.0,0.0,0.0,0.0,0.0,0.0,0.0,0.0,0.0,0.0,1.4525,1.5912,1.6621,1.6634,1.6661,1.6661,1.6647,1.6365,1.5802,0.0,0.0,0.0,0.0,0.0,0.0,0.0,0.0,0.0,0.0,0.0,0.0,0.0,0.0,0.0,0.0,0.0,0.0,0.0,0.0,0.0,0.0,0.0,0.0,0.0,0.0,0.0,0.0,0.0,0.0,0.0,0.0,0.0,0.0,0.0,0.0,0.0,0.0,0.0,0.0,0.0,0.7323,0.7159,0.7627,0.7987,0.0,0.0,0.8867,0.8887,0.8661,0.8255,0.7678,0.0,0.0,0.0,0.0,0.0,0.0,0.0,0.0,0.0,0.0,0.0,0.0,0.0,0.0,0.0,0.0,0.0,0.0,0.0,0.0,0.0,0.0,0.0,0.0,0.0,0.0,0.0,0.0,0.0,0.0,0.0,0.0,0.0,0.0,0.0,0.0,0.0,0.0,0.0,0.0,0.0,0.0,0.0,0.0,0.0,0.0,0.0,0.0,0.0,0.0,0.0,0.0,0.0,1.4616,1.4803,1.6071,1.6688,1.6714,1.6913,1.6913,1.6701,1.6593,1.6058,0.0,0.0,0.0,0.0,0.0,0.0,0.0,0.0,0.0,0.0,0.0,0.0,0.0,0.0,0.0,0.0,0.0,0.0,0.0,0.0,0.0,0.0,0.0,0.0,0.0,0.0,0.0,0.0,0.6243,0.6505,0.7397,0.0,0.0,0.0,0.0,0.0,0.0,0.0,0.0,0.0,0.0,0.8651,0.8056,0.8169,0.0,0.0,1.0565,1.2003,1.1657,1.0836,1.002,0.9416,0.8532,0.0,0.0,0.0,0.0,0.0,0.0,0.0,0.0,0.0,0.0,0.0,0.0,0.0,0.0,0.0,0.0,0.0,0.0,0.0,0.0,0.0,0.0,0.0,0.0,0.0,0.0,0.0,0.0,0.0,0.0,0.0,0.0,0.0,0.0,0.0,0.0,0.0,0.0,0.0,0.0,0.0,0.0,0.0,0.0,0.0,0.0,0.0,0.0,0.0,0.0,0.0,0.0,1.4883,1.512,1.6351,1.6967,1.6967,1.7193,1.7207,1.6981,1.698,1.6512,0.0,0.0,0.0,0.0,0.0,0.0,0.0,0.0,0.0,0.0,0.0,0.0,0.0,0.0,0.0,0.0,0.0,0.0,0.0,0.0,0.0,0.0,0.0,0.0,0.0,0.0,0.0,0.0,0.6218,0.6357,0.7383,0.0,0.0,0.0,0.0,0.0,0.0,0.0,0.0,0.0,0.0,1.0215,0.8731,0.9313,1.0432,1.1818,1.3191,1.3964,1.3595,1.2312,1.1184,1.0686,0.0,0.0,0.0,0.0,0.0,0.0,0.0,0.0,0.0,0.0,0.0,0.0,0.0,0.0,0.0,0.0,0.0,0.0,0.0,0.0,0.0,0.0,0.0,0.0,0.0,0.0,0.0,0.0,0.0,0.0,1.1384,0.0,0.0,0.0,0.0,0.0,0.0,0.0,0.0,0.0,0.0,0.0,0.0,0.0,0.0,0.0,0.0,0.0,0.0,0.0,0.0,0.0,0.0,1.5389,1.5418,1.6833,1.7568,1.7582,1.7595,1.7608,1.7595,1.7595,1.7275,1.666,0.0,0.0,0.0,0.0,0.0,0.0,0.0,0.0,0.0,0.0,0.0,0.0,0.0,0.0,0.0,0.0,0.0,0.0,0.0,0.0,0.0,0.0,0.0,0.0,0.0,0.0,0.607,0.6188,0.6322,0.0,0.0,0.0,0.0,0.0,0.0,0.0,0.0,0.0,0.0,1.1676,1.1857,0.9031,1.1198,1.4402,1.8213,1.6165,1.4106,1.4106,1.2688,1.1411,0.0,0.0,0.0,0.0,0.0,0.0,0.0,0.0,0.0,0.0,0.0,0.0,0.0,0.0,0.0,0.0,0.0,0.0,0.0,0.0,0.0,0.0,0.0,0.0,0.0,0.0,0.0,1.2357,1.2028,0.0,0.0,0.0,0.0,0.0,0.0,0.0,0.0,0.0,0.0,0.0,1.3938,1.4346,0.0,0.0,0.0,0.0,0.0,0.0,0.0,0.0,0.0,0.0,0.0,0.0,1.5603,1.6043,1.7222,1.7956,1.817,1.8197,1.8183,1.8197,1.8197,1.7716,1.6727,0.0,0.0,0.0,0.0,0.0,0.0,0.0,0.0,0.0,0.0,0.0,0.0,0.0,0.0,0.0,0.0,0.0,0.0,0.0,0.0,0.0,0.0,0.0,0.0,0.0,0.7192,0.0,0.0,0.0,0.0,0.0,0.0,0.0,0.0,0.0,0.0,0.0,1.2661,1.1837,1.359,1.4274,1.2458,1.3131,1.3664,0.0,0.0,0.0,0.0,0.0,0.0,0.0,0.0,0.0,0.0,0.0,0.0,0.0,0.0,1.4337,1.5981,1.3847,1.1772,1.1692,0.0,0.0,0.0,0.0,0.0,0.0,0.0,0.0,0.0,0.0,0.0,0.0,0.0,0.0,1.3283,0.0,1.3163,0.0,0.0,0.0,0.0,0.0,0.0,0.0,0.0,1.4533,1.4854,1.4879,1.5267,1.5322,0.0,1.5347,1.4986,0.0,0.0,0.0,0.0,0.0,0.0,0.0,0.0,1.6016,1.6631,1.7636,1.8263,1.8477,1.849,1.849,1.849,1.849,1.8116,1.7355,1.658,1.5885,0.0,0.0,0.0,0.0,0.0,0.0,0.0,0.0,0.0,0.0,0.0,0.0,0.0,0.0,0.0,0.0,0.0,0.0,0.0,0.0,0.0,0.0,0.0,0.8688,0.0,0.0,0.0,0.0,0.0,0.0,0.0,0.0,0.0,0.981,1.2769,1.475,1.4042,1.5776,1.6754,1.5775,0.0,0.0,0.0,0.0,0.0,0.0,0.0,1.7131,1.692,1.6232,1.5744,1.5928,1.3758,1.2359,1.3488,0.0,0.0,1.8755,1.7381,1.5695,1.4226,1.3505,1.3132,1.3169,1.3331,1.2739,0.0,0.0,0.0,0.0,0.0,0.0,0.0,0.0,1.4186,1.4183,0.0,1.4132,0.0,0.0,0.0,0.0,0.0,1.4127,0.0,0.0,1.5855,1.6285,1.631,1.6336,1.6349,1.6351,1.639,1.6206,1.5861,1.5387,0.0,0.0,0.0,0.0,0.0,0.0,1.6617,1.722,1.8077,1.8518,1.8544,1.8531,1.8531,1.8544,1.8517,1.8504,1.8491,1.7916,1.7328,1.6753,1.5668,0.0,0.0,0.0,0.0,0.0,0.0,0.0,0.0,0.0,0.0,0.0,0.0,0.0,0.0,0.0,0.0,0.0,0.0,0.0,0.0,1.0826,0.0,0.0,0.0,0.0,0.0,0.0,0.0,0.0,0.0,0.0,1.1129,1.3567,1.5774,1.6466,0.0,0.0,0.0,0.0,1.9778,2.0772,2.1054,2.1031,2.1015,1.9154,1.773,1.773,0.0,0.0,2.0075,1.9713,1.8078,1.4655,1.705,1.9455,1.9472,1.9382,1.8643,1.6663,1.5111,1.407,1.4141,1.4777,1.4825,1.5337,0.0,0.0,0.0,0.0,1.4885,1.5177,1.5656,1.5668,1.5441,1.5017,1.5041,0.0,0.0,0.0,0.0,0.0,0.0,1.5299,1.5593,1.6071,1.6511,1.6951,1.714,1.7341,1.7516,1.7742,1.7822,1.7716,1.7582,1.6659,1.5079,0.0,0.0,0.0,0.0,1.722,1.7769,1.8437,1.8905,1.9134,1.9147,1.9147,1.9147,1.8905,1.8784,1.8784,1.8451,1.7969,1.7368,1.6858,0.0,0.0,0.0,0.0,0.0,0.0,0.0,0.0,0.0,0.0,0.0,0.0,0.0,0.0,0.0,0.0,0.0,0.0,0.0,1.1993,1.2417,1.2137,0.0,0.0,0.0,0.0,0.0,0.0,0.0,0.0,0.0,1.5204,1.6928,1.8253,0.0,0.0,1.9771,1.9213,1.9627,2.0222,2.0995,0.0,0.0,0.0,2.0367,1.9804,1.9817,1.9913,2.0074,2.0378,2.0189,1.9596,1.8449,1.9576,2.0612,2.059,2.0251,1.9762,1.9116,1.8626,1.8366,1.841,1.8518,1.8531,1.8742,1.7977,1.609,1.5471,1.575,1.575,1.6017,1.6459,1.6446,1.6258,1.5912,1.5912,1.5591,1.5008,1.4901,0.0,0.0,0.0,1.6194,1.6688,1.6887,1.7247,1.7715,1.7889,1.8036,1.821,1.841,1.849,1.849,1.849,1.7876,1.6673,0.0,0.0,1.6541,1.7301,1.7983,1.8557,1.9116,1.9533,1.9721,1.9706,1.9721,1.9706,1.9426,1.9264,1.9251,1.9012,1.8625,1.8143,1.7716,1.7007,0.0,0.0,0.0,0.0,0.0,0.0,0.0,0.0,0.0,0.0,0.0,1.2869,0.0,0.0,0.0,0.0,1.4323,1.4233,1.4229,1.4413,0.0,0.0,0.0,0.0,0.0,0.0,0.0,1.903,1.8144,1.7572,1.8063,1.9171,1.9856,1.9639,2.0065,2.0313,2.0109,0.0,2.0677,2.1045,2.1301,2.1456,2.1456,2.1325,2.1189,2.111,2.0995,2.0989,2.1165,2.0858,2.0582,2.0598,2.0859,2.1182,2.1428,2.115,2.0717,2.0304,2.021,2.021,2.021,2.029,2.037,2.3038,2.2659,1.83,1.6647,1.6826,1.6826,1.6978,1.7174,1.7087,1.6997,1.6983,1.6845,1.6501,1.5956,1.5752,0.0,1.6484,1.6739,1.7249,1.805,1.8063,1.8249,1.8544,1.8598,1.8625,1.8637,1.8638,1.8638,1.8651,1.8791,1.8806,1.8751,1.8225,1.7955,1.7928,1.8468,1.9092,1.9821,2.0324,2.0518,2.0409,2.0394,2.0333,2.0197,1.9958,1.9826,1.9826,1.9574,1.9293,1.8984,1.8423,1.7849,1.726,0.0,0.0,0.0,0.0,0.0,0.0,0.0,0.0,0.0,0.0,0.0,0.0,0.0,0.0,0.0,1.5612,0.0,1.6739,1.6551,0.0,0.0,0.0,1.5709,1.5318,1.6756,1.8378,2.0025,0.0,0.0,1.984,0.0,2.0779,2.0764,2.0779,2.0855,2.1104,2.1091,2.112,2.1265,2.1725,2.2076,2.2069,2.199,2.1864,2.172,2.1865,2.2003,2.2115,2.1667,2.1214,2.1162,2.121,2.1408,2.1964,2.2042,2.1722,2.0615,2.0397,2.037,2.0437,2.067,2.075,2.4281,2.4172,2.2776,2.1857,2.1339,2.1339,2.1374,2.1307,2.0228,1.9619,1.9373,1.8205,1.7622,1.7489,1.7675,1.7849,1.7996,1.805,1.8183,1.8384,1.8583,1.8878,1.9173,1.9386,1.9599,1.9798,1.9798,1.9783,1.9858,2.1085,2.1525,2.1176,2.113,2.085,2.0382,2.0692,2.1669,2.3267,2.3412,2.3022,2.214,2.211,2.1496,2.0227,2.0144,2.0104,2.009,1.9838,1.9666,1.9571,1.9252,1.8677,1.7836,1.6647,0.0,0.0,0.0,0.0,0.0,0.0,0.0,0.0,0.0,1.4623,1.4786,0.0,1.4421,0.0,1.6513,1.7462,1.7382,1.7314,0.0,0.0,1.6899,1.6806,1.758,1.8441,1.9295,2.0107,2.0211,2.0298,2.047,2.102,2.1381,2.1397,2.1397,2.1427,2.1531,2.129,2.1437,2.2249,2.2575,2.2698,2.266,2.2281,2.2017,2.1928,2.1974,2.2024,2.2057,2.1928,2.1783,2.1816,2.2185,2.2506,2.2632,2.2698,2.2408,2.1757,2.1563,2.1563,2.1577,2.1617,2.1514,2.6883,2.6879,2.6691,2.6334,2.5747,2.4176,2.3372,2.3158,2.2333,2.1428,2.037,1.8877,1.8701,1.9522,1.9707,1.992,2.0146,2.0146,2.0217,2.033,1.976,1.9967,2.0867,2.1022,2.1176,2.1331,2.2036,2.2379,2.2424,2.3313,2.371,2.3544,2.3677,2.3866,2.4052,2.2572,2.1985,2.2398,2.3389,2.3614,2.3127,2.3112,2.2233,2.0489,2.0277,2.0077,1.9838,1.9573,1.9345,1.9226,1.8945,1.8543,1.8009,1.694,1.6095,0.0,0.0,0.0,0.0,0.0,0.0,0.0,0.0,0.0,0.0,0.0,1.5368,0.0,1.704,1.7903,1.7622,1.7862,1.8117,1.8357,1.787,1.7958,1.9136,1.9812,2.0264,2.0563,2.0937,2.1153,2.1103,2.1502,2.182,2.1927,2.2077,2.2084,2.1859,2.1618,2.1845,2.2744,2.3122,2.3307,2.3297,2.3011,2.2813,2.2796,2.2796,2.2813,2.2779,2.2582,2.2409,2.2423,2.2677,2.2886,2.2879,2.2885,2.2771,2.2526,2.2395,2.2288,2.2061,2.2007,2.1865,2.9774,2.9774,2.9774,2.9755,2.9514,2.6389,2.4789,2.434,2.4149,2.301,2.1196,1.9903,2.0283,2.1845,2.1872,2.2125,2.2574,2.256,2.2728,2.2914,2.1554,2.1659,2.3049,2.3095,2.3125,2.3169,2.4544,2.5219,2.5234,2.5421,2.5616,2.5794,2.5872,2.6503,2.7519,2.4369,2.2124,2.1098,2.3021,2.4053,2.4132,2.4086,2.3121,2.131,2.0869,2.0382,1.9745,1.9418,1.9007,1.8571,1.8276,1.8129,1.8169,1.7128,1.6538,0.0,1.576,0.0,0.0,0.0,0.0,0.0,0.0,0.0,0.0,1.5395,1.6676,1.6603,1.7568,1.8103,1.7956,1.8411,1.8932,1.9412,1.9048,1.9114,2.0089,2.0737,2.1144,2.1206,2.1691,2.1915,2.1674,2.1917,2.2221,2.2432,2.2786,2.2827,2.2378,2.2193,2.2315,2.2853,2.3459,2.3868,2.3762,2.3768,2.3736,2.3777,2.3723,2.3817,2.3736,2.3337,2.3014,2.3012,2.2951,2.2924,2.2985,2.3031,2.3031,2.3014,2.3014,2.2836,2.2365,2.2248,2.2148,3.0659,3.0644,3.0644,3.0644,3.0596,2.9915,2.9179,2.8391,2.7151,2.5722,2.4267,2.3982,2.4057,2.4396,2.441,2.4462,2.4549,2.4549,2.4596,2.4649,2.4602,2.4746,2.5062,2.5279,2.5394,2.5394,2.5696,2.583,2.5845,2.715,2.7638,2.7378,2.7481,2.748,2.7362,0.0,0.0,0.0,2.8475,2.8246,2.7055,2.6644,2.5632,2.4012,2.3562,0.0,2.1583,2.1132,2.026,1.8935,1.877,0.0,0.0,0.0,0.0,0.0,0.0,0.0,0.0,0.0,0.0,0.0,1.7328,1.6215,1.4232,1.6912,1.8612,1.8171,1.8718,1.9279,1.9663,1.9812,1.9917,2.0024,1.9959,1.9961,2.0207,2.0739,2.1275,2.1769,2.1946,2.1988,2.1987,2.2385,2.2746,2.2836,2.3295,2.3611,2.3605,2.3095,2.2783,2.2949,2.3798,2.4248,2.3857,2.383,2.3852,2.3817,2.3817,2.383,2.3826,2.3759,2.3643,2.3621,2.3244,2.3094,2.3528,2.3612,2.3638,2.3629,2.3616,2.3505,2.3153,2.3056,2.2988,3.1211,0.0,3.0976,3.0913,0.0,3.0913,3.0659,3.0167,2.9174,2.776,2.6157,2.5418,2.5621,2.6522,2.6522,2.6597,2.6727,2.6727,2.6727,2.67,2.6085,2.6214,2.6992,2.7107,2.7194,2.7224,2.8021,2.8411,2.8489,2.945,2.984,2.9634,2.991,2.9959,2.9737,2.9718,2.9784,2.9883,2.9379,2.877,2.8116,2.7863,2.6904,2.522,0.0,0.0,0.0,0.0,0.0,0.0,0.0,0.0,0.0,0.0,0.0,1.8677,1.8277,1.8103,1.8223,1.8237,1.849,1.9022,1.8971,1.8276,1.681,1.8621,1.9684,1.9374,1.9611,1.992,2.017,2.033,2.041,2.0362,2.0521,2.0645,2.0684,2.0915,2.1447,2.2269,2.2451,2.2438,2.2439,2.2823,2.3157,2.3348,2.3719,2.4017,2.4053,2.3674,2.3429,2.3695,2.4165,2.4489,2.4263,2.4195,2.4182,2.4195,2.4195,2.4195,2.4195,2.4195,2.4187,2.4192,2.3945,2.3856,2.4102,2.4196,2.4111,2.387,2.3817,2.3812,2.3728,2.3647,2.351,3.1606,3.1587,3.1269,3.1113,3.1128,3.1113,3.1128,3.1089,0.0,0.0,0.0,2.6655,2.7005,2.8498,2.8512,2.8652,2.8842,2.8842,2.8897,2.8893,2.7584,2.7709,2.9047,2.9077,2.9077,2.9137,3.047,3.1128,3.1147,3.1465,3.1626,3.1645,3.1992,3.2198,3.2198,3.2198,3.167,3.0543,2.9258,2.8726,2.8934,2.8879,2.8101,2.6567,2.6341,2.5907,2.5241,2.4827,2.3762,2.1913,2.1306,2.0472,1.9218,1.8903,1.889,1.9183,1.9224,1.9397,1.9825,1.9867,1.9985,2.0279,2.0346,2.0147,1.9574,2.0048,2.0343,2.0277,2.0292,2.0304,2.0357,2.067,2.0797,2.0628,2.0889,2.1094,2.1107,2.1326,2.1892,2.283,2.3057,2.3062,2.3062,2.33,2.3536,2.3808,2.4088,2.4257,2.423,2.4084,2.4066,2.4421,2.4554,2.4591,2.4586,2.4559,2.4599,2.4546,2.4559,2.4599,2.4599,2.4599,2.4598,2.4543,2.4589,2.458,2.4584,2.4556,2.4448,2.4018,2.3946,2.4013,2.4195,2.4102,2.3955,3.2085,3.2101,3.2042,3.2022,3.2022,3.2022,3.2022,3.1964,3.1133,3.066,3.0398,3.0175,3.0242,3.0505,3.049,3.0514,3.0543,3.0543,3.0736,0.0,3.0822,3.1063,3.1636,3.167,3.167,3.1685,3.1897,3.2022,3.2022,3.2066,3.2101,3.212,3.2179,3.2218,3.2198,3.2198,3.2101,3.1925,3.1315,3.1021,3.1064,3.0731,3.0431,3.0145,2.9398,2.8432,2.7224,2.5423,2.3563,2.1885,2.0424,1.9761,2.0012,1.9822,1.9926,2.0401,2.0443,2.0361,2.0172,2.0159,2.0279,2.0588,2.0842,2.0719,2.0159,2.0634,2.0859,2.0665,2.0643,2.0737,2.0946,2.1259,2.1355,2.1069,2.1075,2.1093,2.1168,2.2012,2.2832,2.3522,2.3673,2.3686,2.3682,2.3879,2.403,2.4168,2.4377,2.4546,2.4509,2.4506,2.4511,2.4588,2.4591,2.4599,2.4666,2.4613,2.4653,2.4599,2.4639,2.4666,2.4666,2.4629,2.4602,2.4596,2.4591,2.4619,2.4639,2.4603,2.4603,2.4497,2.4479,2.4506,2.4591,2.4506,2.4447,3.2515,3.2496,3.2296,3.2198,3.2198,3.2198,3.2198,3.2159,3.1788,3.1597,3.1597,3.1597,3.1612,3.1612,3.1597,3.1597,3.1597,3.1597,3.171,3.1875,3.189,3.1988,3.2179,3.2198,3.2198,3.2198,3.2198,3.2198,3.2218,3.2398,3.2535,3.2535,3.2734,3.2851,3.2851,3.2851,3.2851,3.2832,3.2207,3.189,3.1855,3.1695,3.1597,3.1597,3.1201,3.0723,3.012,2.9131,2.7801,2.6139,2.4962,2.3749,2.2422,2.1226,2.0668,2.088,2.0924,2.0855,2.0706,2.0693,2.0842,2.1154,2.1129,2.1136,2.1171,2.1126,2.1118,2.117,2.1197,2.1301,2.1566,2.1743,2.1744,2.1601,2.1595,2.1734,2.2065,2.2495,2.3133,2.3703,2.4051,2.4185,2.4022,2.4115,2.4257,2.4404,2.4671,2.481,2.4648,2.4599,2.4729,2.5018,2.5099,2.5085,2.5085,2.5098,2.5085,2.5098,2.5098,2.5098,2.5047,2.4851,2.4637,2.4599,2.4618,2.4757,2.4996,2.5079,2.5066,2.5079,2.5066,2.5085,2.5079,2.4846,2.4601,3.3223,3.3184,3.2887,3.2711,3.2613,3.2531,3.2476,3.2476,3.2457,3.2472,3.2437,3.2311,3.2198,3.2198,3.2198,3.2198,3.2198,3.2198,3.2257,3.232,3.2335,3.2394,3.2457,3.2492,3.2457,3.2472,3.2476,3.2472,3.2515,3.2887,3.3125,3.3242,3.3539,3.3679,3.3679,3.3695,3.3695,3.3656,3.3082,3.2652,3.2492,3.2457,3.2457,3.2457,3.2374,3.232,3.232,3.1883,3.1042,2.9769,2.8754,2.7192,2.4997,2.2617,2.1471,2.179,2.1519,2.1309,2.1309,2.1309,2.1403,2.1646,2.1438,2.1499,2.1894,2.1703,2.1545,2.1681,2.1692,2.177,2.194,2.2061,2.2128,2.2178,2.2217,2.2372,2.2799,2.3103,2.3439,2.3964,2.434,2.4502,2.4358,2.4369,2.4543,2.4805,2.5018,2.5048,2.4864,2.4795,2.505,2.5493,2.5699,2.5625,2.5556,2.5491,2.5459,2.5518,2.5491,2.5464,2.5375,2.5056,2.4852,2.4864,2.4986,2.5247,2.5633,2.5709,2.5625,2.5522,2.5438,2.5478,2.5445,2.5138,2.4753,3.4512,3.4512,3.4414,3.4254,3.388,3.3457,3.3285,3.3285,3.3285,3.3285,3.3226,3.2519,3.2237,3.2198,3.2218,3.2237,3.2237,3.2198,3.2418,3.275,3.275,3.2914,3.3265,3.3301,3.3285,3.3285,3.3285,3.3285,3.332,3.3746,3.4141,3.4492,3.457,3.4551,3.457,3.457,3.457,3.457,3.4512,3.4066,3.3344,3.3285,3.3285,3.3285,3.293,3.275,3.2738,3.0937,2.9896,2.9601,2.8358,2.7355,2.6709,2.3809,2.2636,2.3975,2.2753,2.1914,2.1914,2.1897,2.1914,2.1954,2.1904,2.1934,2.205,2.2462,2.2504,2.2139,2.1997,2.1977,2.2021,2.2245,2.2512,2.2766,2.2799,2.2846,2.3046,2.3821,2.4469,2.4526,2.4585,2.4589,2.4606,2.481,2.509,2.5344,2.5405,2.5485,2.545,2.5436,2.5594,2.6103,2.6292,2.6047,2.57,2.5518,2.5585,2.5571,2.5531,2.5585,2.5573,2.5527,2.5422,2.5472,2.5784,2.6107,2.6189,2.6301,2.6104,2.5748,2.5606,2.5525,2.5499,2.5462,2.5281,3.4687,3.4687,3.4687,3.4609,3.4434,3.4238,3.418,3.418,3.418,3.418,3.4124,3.3824,3.3398,3.291,3.291,3.291,3.291,3.291,3.3144,3.3551,3.357,3.3769,3.4141,3.4163,3.418,3.418,3.4163,3.4163,3.4199,3.4372,3.4531,3.4668,3.4687,3.4687,3.4687,3.4687,3.4687,3.4687,3.4687,3.4531,3.4203,3.418,3.4163,3.4124,3.3785,3.357,3.3464,3.2462,3.1885,3.1853,3.126,2.9844,2.7629,2.6325,2.4851,2.3289,2.2421,2.2007,2.2007,2.2007,2.2074,2.2231,2.2085,2.2151,2.2532,2.3086,2.3243,2.282,2.2458,2.2365,2.2712,2.2869,2.3021,2.3222,2.336,2.3545,2.391,2.4296,2.4594,2.4619,2.4926,2.5061,2.4973,2.5157,2.547,2.5724,2.5791,2.5844,2.5985,2.6034,2.6127,2.633,2.6406,2.6333,2.6065,2.6039,2.6026,2.6026,2.6026,2.6039,2.6012,2.6026,2.6039,2.6026,2.6226,2.639,2.6366,2.6397,2.63,2.5999,2.6006,2.6026,2.6045,2.6045,2.5895,3.5059,3.5039,3.4941,3.4883,3.4883,3.4762,3.4687,3.4687,3.4687,3.4687,3.4687,3.4687,3.4375,3.3812,3.3754,3.3754,3.3754,3.3754,3.3945,3.4254,3.4254,3.4411,3.4687,3.4687,3.4687,3.4687,3.4668,3.4766,3.4863,3.4883,3.4941,3.5022,3.5059,3.5059,3.5059,3.5059,3.5059,3.5078,3.5042,3.5059,3.5059,3.5059,3.4941,3.4707,3.443,3.4254,3.4271,3.3945,3.3754,3.3754,3.3539,3.2222,2.9703,2.8973,2.7165,2.417,2.3697,2.3697,2.3681,2.3319,2.3172,2.3295,2.2753,2.249,2.3052,2.3546,2.3685,2.3442,2.3046,2.302,2.3323,2.3447,2.3514,2.3678,2.3785,2.4026,2.4502,2.461,2.4671,2.4849,2.523,2.5472,2.5407,2.5537,2.5764,2.6051,2.6099,2.6172,2.6353,2.6373,2.6386,2.64,2.6406,2.6393,2.64,2.6346,2.64,2.64,2.6346,2.6333,2.64,2.6406,2.6406,2.6226,2.6346,2.6393,2.6411,2.6392,2.6439,2.6419,2.64,2.6386,2.6319,2.6373,2.6373,3.594,3.5881,3.551,3.5371,3.5332,3.4922,3.4726,3.4785,3.4746,3.4726,3.4766,3.4746,3.4687,3.4648,3.4648,3.4645,3.4609,3.457,3.4609,3.4668,3.4704,3.4687,3.4687,3.4687,3.4726,3.4824,3.4824,3.5,3.5332,3.5371,3.555,3.5901,3.5862,3.5901,3.5881,3.5842,3.592,3.5862,3.5862,3.5901,3.5901,3.5901,3.5491,3.4844,3.4704,3.4684,3.4684,3.4665,3.4629,3.4645,3.3901,3.3446,3.3408,3.1153,2.9072,2.7817,2.7719,2.7686,2.7337,2.6183,2.5511,2.5415,2.3818,2.3094,2.3599,2.3803,2.3825,2.3772,2.3732,2.3732,2.3772,2.3785,2.3892,2.4092,2.3969,2.4097,2.4527,2.46,2.4866,2.5305,2.5502,2.5656,2.5904,2.5977,2.6091,2.6272,2.636,2.636,2.6393,2.64,2.64,2.6407,2.6426,2.6419,2.6413,2.64,2.64,2.6453,2.6493,2.6453,2.6413,2.6386,2.6393,2.64,2.6394,2.6394,2.6407,2.6446,2.65,2.6526,2.6553,2.654,2.6633,2.6466,2.64,3.6018,3.5999,3.5842,3.5784,3.5764,3.5589,3.553,3.553,3.553,3.553,3.553,3.553,3.5547,3.5547,3.553,3.5218,3.4726,3.4687,3.4863,3.5134,3.5137,3.5293,3.5527,3.553,3.553,3.553,3.553,3.5625,3.5745,3.5784,3.5859,3.5979,3.6018,3.6018,3.6018,3.6018,3.6018,3.6018,3.6018,3.6018,3.6038,3.6018,3.5842,3.5566,3.5273,3.5137,3.5137,3.488,3.4687,3.4687,3.4589,3.4019,3.2761,3.0774,2.8838,2.7413,2.7176,2.6643,2.5533,2.4918,2.4602,2.4532,2.3944,2.3558,2.3808,2.4098,2.4242,2.4142,2.4235,2.4315,2.4271,2.4168,2.4168,2.4367,2.4383,2.4372,2.4535,2.4614,2.4976,2.5794,2.594,2.5925,2.6152,2.6246,2.6299,2.6379,2.64,2.64,2.64,2.64,2.6413,2.646,2.672,2.6961,2.6988,2.6607,2.6426,2.658,2.6674,2.6814,2.6861,2.6566,2.6512,2.6546,2.6512,2.6727,2.6847,2.6901,2.6901,2.6907,2.6907,2.6847,2.6968,2.6754,2.6566,3.623,3.6194,3.6057,3.6018,3.6018,3.6018,3.6018,3.6018,3.6018,3.6018,3.6018,3.6018,3.6018,3.6018,3.6018,3.5706,3.5156,3.512,3.5293,3.5566,3.5605,3.5725,3.5959,3.6018,3.6018,3.5999,3.6018,3.6018,3.6038,3.6172,3.623,3.623,3.633,3.6408,3.6408,3.6408,3.6426,3.6408,3.6408,3.6428,3.6408,3.6408,3.6408,3.635,3.6035,3.5759,3.5622,3.5293,3.5117,3.5134,3.5224,3.4555,3.3003,3.1777,3.0563,2.9391,2.9288,2.8705,2.7478,2.6888,2.6402,2.5675,2.4634,2.4067,2.4084,2.4394,2.447,2.4446,2.4591,2.4764,2.4751,2.4671,2.4676,2.4741,2.4659,2.4685,2.4876,2.5094,2.5569,2.6142,2.6213,2.6225,2.6353,2.6373,2.6406,2.64,2.64,2.6413,2.6414,2.6401,2.6401,2.6471,2.7129,2.75,2.75,2.7149,2.6841,2.6934,2.6961,2.7128,2.7174,2.686,2.673,2.6725,2.6901,2.7173,2.7309,2.7384,2.7363,2.7356,2.7229,2.7135,2.712,2.7059,2.693,3.6714,3.6638,3.6194,3.6096,3.6135,3.6135,3.6057,3.6116,3.6096,3.6155,3.6174,3.6096,3.6155,3.6077,3.6174,3.6057,3.6018,3.5999,3.5959,3.594,3.5959,3.5999,3.6074,3.6077,3.6116,3.6135,3.6077,3.606,3.6135,3.6484,3.6695,3.6773,3.7029,3.7129,3.7283,3.7168,3.7226,3.7187,3.7168,3.7226,3.7285,3.7207,3.7168,3.7168,3.6834,3.6445,3.6057,3.5959,3.5881,3.5881,3.5603,3.5195,3.4682,3.4409,3.445,3.3977,3.4252,3.4332,3.3842,3.2224,3.0215,2.8801,2.6364,2.4511,2.4492,2.4623,2.4681,2.4674,2.4898,2.5109,2.513,2.5291,2.5331,2.5119,2.4873,2.4922,2.5391,2.6005,2.6385,2.6397,2.6366,2.6386,2.6386,2.6426,2.6453,2.6453,2.6493,2.6474,2.6433,2.6486,2.645,2.6714,2.7343,2.7935,2.7867,2.773,2.7479,2.7315,2.7302,2.7355,2.7483,2.7317,2.7323,2.7364,2.7535,2.7768,2.7748,2.7768,2.7591,2.7523,2.7443,2.7443,2.7468,2.7447,2.7462,3.7127,3.7107,3.6953,3.6894,3.6894,3.6894,3.6894,3.6894,3.6894,3.6894,3.6894,3.6894,3.6894,3.6894,3.6894,3.6877,3.6877,3.6875,3.6582,3.6116,3.6018,3.6211,3.6443,3.6482,3.6638,3.6855,3.6894,3.6894,3.6877,3.7031,3.7127,3.7129,3.7244,3.7305,3.7344,3.7305,3.7305,3.7305,3.7305,3.7305,3.7305,3.7305,3.7305,3.7285,3.7168,3.7031,3.6875,3.6311,3.6018,3.6035,3.5881,3.5725,3.5625,3.5589,3.4996,3.3836,3.3666,3.298,3.1635,3.0254,2.9203,2.7988,2.5995,2.477,2.4658,2.513,2.5243,2.5114,2.5242,2.5384,2.5424,2.5671,2.5697,2.5392,2.5291,2.5275,2.5547,2.6066,2.6358,2.6399,2.64,2.64,2.644,2.652,2.666,2.6687,2.6861,2.6879,2.6561,2.6756,2.7228,2.7632,2.8077,2.8214,2.8062,2.7971,2.7854,2.7697,2.7643,2.7643,2.7724,2.7777,2.7825,2.788,2.8087,2.8163,2.8155,2.8058,2.7846,2.7844,2.7871,2.7898,2.7911,2.7878,2.7819,3.7539,3.7519,3.7363,3.7305,3.7305,3.7305,3.7305,3.7305,3.7305,3.7305,3.7285,3.7285,3.7305,3.7305,3.7305,3.7305,3.7305,3.7305,3.6994,3.6545,3.6484,3.666,3.6912,3.6929,3.7029,3.7246,3.7305,3.7305,3.7305,3.7461,3.7539,3.7521,3.7676,3.7773,3.7773,3.7773,3.7791,3.7791,3.7793,3.7773,3.7791,3.7773,3.7791,3.7772,3.7617,3.7539,3.7463,3.6838,3.6504,3.6448,3.6367,3.6211,3.6038,3.5964,3.5451,3.4573,3.4211,3.3797,3.265,3.2068,3.0623,2.9915,2.8028,2.6667,2.667,2.7256,2.7599,2.5772,2.6333,2.6495,2.5897,2.5965,2.6018,2.5879,2.5849,2.5825,2.5871,2.6154,2.6373,2.6413,2.6493,2.6533,2.658,2.68,2.6974,2.7028,2.7168,2.724,2.6912,2.706,2.7589,2.7984,2.8154,2.8207,2.8188,2.8173,2.8173,2.8072,2.7978,2.7978,2.8031,2.8031,2.8079,2.8066,2.8184,2.8192,2.8171,2.819,2.8072,2.82,2.8213,2.8146,2.8058,2.8119,2.8066,3.7951,3.7892,3.7521,3.7439,3.7441,3.7441,3.7461,3.7422,3.7422,3.7461,3.7441,3.75,3.7461,3.742,3.7519,3.75,3.742,3.748,3.7498,3.7383,3.7363,3.7383,3.7324,3.7402,3.7498,3.748,3.7461,3.7441,3.7557,3.7812,3.7951,3.797,3.8299,3.8571,3.8456,3.8553,3.8495,3.8456,3.8532,3.8532,3.8532,3.8534,3.8534,3.8495,3.8144,3.7951,3.7891,3.7578,3.7324,3.7246,3.6892,3.656,3.6194,3.6077,3.6103,3.5935,3.6028,3.6159,3.6465,3.5511,3.5026,3.3678,3.1387,3.0135,2.9497,3.0444,3.0308,2.7344,2.7702,2.7769,2.6402,2.6205,2.6319,2.6373,2.63,2.6293,2.6373,2.6419,2.6559,2.6566,2.6687,2.6834,2.6847,2.7108,2.7275,2.7349,2.7389,2.7405,2.7408,2.7514,2.7662,2.7908,2.8182,2.8188,2.8213,2.8213,2.8213,2.8186,2.8112,2.8138,2.8165,2.82,2.8213,2.8213,2.8213,2.8213,2.8213,2.8213,2.8213,2.8213,2.8213,2.8213,2.8213,2.8213,2.8213,3.8416,3.8416,3.8299,3.826,3.826,3.826,3.8241,3.826,3.8241,3.822,3.8259,3.826,3.8202,3.826,3.8259,3.826,3.822,3.8221,3.8278,3.826,3.826,3.8027,3.7873,3.8086,3.8241,3.8221,3.8162,3.826,3.8278,3.8319,3.8397,3.8418,3.8514,3.8592,3.8592,3.8592,3.8592,3.8592,3.8592,3.8592,3.8592,3.8592,3.8592,3.8592,3.8475,3.8397,3.8416,3.8319,3.7928,3.7344,3.7225,3.709,3.6951,3.6931,3.6875,3.6857,3.6916,3.6992,3.6862,3.5981,3.5004,3.445,3.2899,3.1226,3.1052,3.189,3.1841,3.0287,2.8934,2.7142,2.6522,2.6465,2.6498,2.64,2.6407,2.6387,2.646,2.6779,2.7047,2.7088,2.7149,2.7162,2.7235,2.7409,2.7596,2.7657,2.7777,2.7911,2.7839,2.7879,2.7974,2.8035,2.8207,2.82,2.8213,2.8213,2.8213,2.8213,2.8186,2.8186,2.82,2.82,2.8213,2.8213,2.8213,2.8213,2.8213,2.8213,2.8213,2.8213,2.8213,2.8213,2.8213,2.8213,2.8213,3.8592,3.8592,3.8592,3.8592,3.8592,3.8592,3.8592,3.8592,3.8592,3.8592,3.8592,3.8592,3.8592,3.8592,3.8611,3.8592,3.8592,3.8592,3.8611,3.8611,3.8573,3.8436,3.8301,3.8514,3.8592,3.8592,3.8592,3.8573,3.8591,3.8592,3.8592,3.8573,3.8592,3.8592,3.8592,3.8592,3.8592,3.8592,3.8592,3.8592,3.8592,3.8592,3.8592,3.8592,3.8592,3.8592,3.8592,3.8611,3.8334,3.7916,3.7686,3.7535,3.7449,3.7359,3.7305,3.7305,3.7305,3.7326,3.736,3.6487,3.6114,3.6064,3.503,3.4678,3.4242,3.3552,3.251,3.2044,3.0809,2.9987,2.8973,2.8332,2.7416,2.6611,2.6394,2.6394,2.6414,2.6921,2.7372,2.7561,2.7547,2.7462,2.7476,2.773,2.7863,2.7951,2.8045,2.8112,2.8165,2.8213,2.8213,2.8213,2.8213,2.8213,2.8213,2.8213,2.8213,2.8213,2.8213,2.8213,2.8213,2.8213,2.8213,2.8213,2.8213,2.8213,2.8213,2.8213,2.8213,2.8213,2.8213,2.8213,2.8213,2.8213,2.8213,3.8592,3.8592,3.8592,3.8592,3.8592,3.8592,3.8592,3.8592,3.8592,3.8592,3.8592,3.8592,3.8592,3.8592,3.8592,3.8592,3.8592,3.8592,3.8592,3.8592,3.8592,3.8553,3.8553,3.8553,3.8592,3.8592,3.8592,3.8592,3.8592,3.8592,3.8592,3.8592,3.8592,3.8592,3.8592,3.8592,3.8592,3.8592,3.8592,3.8592,3.8592,3.8592,3.8592,3.8592,3.8592,3.8592,3.8592,3.8611,3.8545,3.8596,3.819,3.796,3.7773,3.7551,3.748,3.7519,3.7578,3.7695,3.7892,3.7827,3.7981,3.8125,3.8258,3.8595,3.7566,3.5411,3.3847,3.3924,3.4497,3.3133,3.1565,3.0345,2.8496,2.6966,2.655,2.6527,2.6677,2.7053,2.7614,2.8071,2.7891,2.7785,2.7837,2.797,2.82,2.8072,2.8173,2.8186,2.8213,2.8213,2.8213,2.8213,2.8213,2.8213,2.8213,2.8213,2.8213,2.8213,2.8213,2.8213,2.8213,2.8213,2.8213,2.8213,2.8213,2.8213,2.8213,2.8213,2.8213,2.8213,2.8213,2.8213,2.8213,2.8213,2.8213,3.8592,3.8592,3.8592,3.8592,3.8592,3.8592,3.8592,3.8592,3.8592,3.8592,3.8592,3.8592,3.8592,3.8592,3.8592,3.8592,3.8592,3.8592,3.8592,3.8592,3.8592,3.8592,3.8592,3.8592,3.8592,3.8592,3.8592,3.8592,3.8592,3.8592,3.8592,3.8592,3.8592,3.8592,3.8592,3.8592,3.8592,3.8592,3.8592,3.8592,3.8592,3.8592,3.8592,3.8592,3.8592,3.8592,3.8592,3.8592,3.8609,3.8587,3.851,3.8356,3.8334,3.8296,3.8241,3.8221,3.826,3.8338,3.8418,3.8416,3.8475,3.8571,3.8612,3.8601,3.8618,3.7833,3.711,3.6732,3.4895,3.3185,3.1665,2.8944,2.8137,2.7822,2.7275,2.7289,2.768,2.7878,2.8035,2.8117,2.812,2.8085,2.8085,2.8098,2.8213,2.8213,2.8213,2.8213,2.8213,2.8213,2.8213,2.8213,2.8213,2.8213,2.8213,2.8213,2.8213,2.8213,2.8213,2.8213,2.8213,2.8213,2.8213,2.8213,2.8213,2.8213,2.8213,2.8213,2.8213,2.8213,2.8213,2.8213,2.8213,2.8213,2.8213,3.8592,3.8592,3.8592,3.8592,3.8592,3.8592,3.8592,3.8592,3.8592,3.8592,3.8592,3.8592,3.8592,3.8592,3.8592,3.8592,3.8592,3.8592,3.8592,3.8592,3.8592,3.8592,3.8592,3.8592,3.8592,3.8592,3.8592,3.8592,3.8592,3.8592,3.8592,3.8592,3.8592,3.8592,3.8592,3.8592,3.8592,3.8592,3.8592,3.8592,3.8592,3.8592,3.8592,3.8592,3.8592,3.8592,3.8592,3.8592,3.8592,3.8592,3.8592,3.8592,3.8592,3.8592,3.8592,3.8592,3.8592,3.8592,3.8592,3.8592,3.8592,3.8592,3.8592,3.8618,3.8609,3.8612,3.8597,3.8268,3.6923,3.5305,3.4562,3.3025,3.1658,2.99,2.8634,2.7976,2.8174,2.8227,2.8208,2.8214,2.819,2.8173,2.82,2.8213,2.8213,2.8213,2.8213,2.8213,2.8213,2.8213,2.8213,2.8213,2.8213,2.8213,2.8213,2.8213,2.8213,2.8213,2.8213,2.8213,2.8213,2.8213,2.8213,2.8213,2.8213,2.8213,2.8213,2.8213,2.8213,2.8213,2.8213,2.8213,2.8213,2.8213,2.8213,3.8592,3.8592,3.8592,3.8592,3.8592,3.8592,3.8592,3.8592,3.8592,3.8592,3.8592,3.8592,3.8592,3.8592,3.8592,3.8592,3.8592,3.8592,3.8592,3.8592,3.8592,3.8592,3.8592,3.8592,3.8592,3.8592,3.8592,3.8592,3.8592,3.8592,3.8592,3.8592,3.8592,3.8592,3.8592,3.8592,3.8592,3.8592,3.8592,3.8671,3.8729,3.8749,3.8749,3.8749,3.863,3.863,3.8592,3.8592,3.8592,3.8592,3.8592,3.8592,3.8592,3.8592,3.8592,3.8592,3.8592,3.8592,3.8592,3.8592,3.8592,3.8592,3.8592,3.8595,3.8617,3.8809,3.8926,3.8783,3.8193,3.8104,3.9203,3.6662,3.502,3.3519,3.0726,2.9757,2.9946,2.9727,2.9439,2.8289,2.8798,2.9202,2.8558,2.8213,2.8213,2.8213,2.8213,2.8213,2.8213,2.8213,2.8213,2.8213,2.8213,2.8213,2.8213,2.8213,2.8213,2.8213,2.8213,2.8213,2.8213,2.8213,2.8213,2.8213,2.8213,2.8213,2.8213,2.8213,2.8213,2.8213,2.8213,2.8213,2.8213,2.8213,2.8213,3.8592,3.8592,3.8592,3.8592,3.8592,3.8592,3.8592,3.8592,3.8592,3.8592,3.8592,3.8592,3.8592,3.8592,3.8592,3.8592,3.8592,3.8592,3.8592,3.8592,3.8592,3.8592,3.8592,3.8671,3.8631,3.8592,3.8651,3.871,3.8631,3.8592,3.871,3.8631,3.8689,3.8708,3.871,3.8612,3.871,3.8787,3.8749,3.8866,3.9043,3.912,3.912,3.9082,3.8885,3.8749,3.8671,3.8631,3.8592,3.8592,3.8592,3.8631,3.869,3.869,3.8671,3.8612,3.8651,3.8671,3.8671,3.8671,3.8612,3.8592,3.8616,3.8605,3.8761,3.9233,3.9577,3.927,3.8387,3.7584,3.7621,3.6829,3.5293,3.4301,3.4504,3.4787,3.674,3.5565,3.1766,2.8994,2.9548,3.0003,2.8943,2.8213,2.8213,2.8213,2.8213,2.8213,2.8213,2.8213,2.8213,2.8213,2.8213,2.8213,2.8213,2.8213,2.8213,2.8213,2.8213,2.8213,2.8213,2.8213,2.8213,2.8213,2.8213,2.8213,2.8213,2.8213,2.8213,2.8213,2.8213,2.8213,2.8213,2.8213,2.8213,3.8592,3.8592,3.8592,3.8592,3.8592,3.8592,3.8592,3.8592,3.8592,3.8592,3.8592,3.8592,3.8592,3.8592,3.8592,3.8592,3.8592,3.8592,3.8592,3.8592,3.8592,3.8592,3.8671,3.8807,3.8905,3.9003,3.912,3.9082,3.8906,3.8906,3.9004,3.9257,3.9276,3.9276,3.9276,3.9315,3.9257,3.9257,3.9257,3.9336,3.9531,3.957,3.957,3.9492,3.9375,3.9296,3.9258,3.9258,3.9296,3.9296,3.9276,3.9258,3.9257,3.9218,3.9061,3.8749,3.8807,3.8906,3.8983,3.91,3.9315,3.9221,3.8919,3.8622,3.8946,3.9647,4.0373,4.0022,3.972,3.8895,3.9426,3.8177,3.803,3.8,3.7934,3.8927,4.0037,3.8932,3.4656,2.9676,2.916,2.9147,2.8649,2.8213,2.8213,2.8213,2.8213,2.8213,2.8213,2.8213,2.8213,2.8213,2.8213,2.8213,2.8213,2.8213,2.8213,2.8213,2.8213,2.8213,2.8213,2.8213,2.8213,2.8213,2.8213,2.8213,2.8213,2.8213,2.8213,2.8213,2.8213,2.8213,2.8213,2.8213,2.8213,3.8592,3.8592,3.8592,3.8592,3.8592,3.8592,3.8592,3.8592,3.8592,3.8592,3.8592,3.8592,3.8592,3.8592,3.8592,3.8592,3.8592,3.8592,3.8651,3.8768,3.8768,3.8768,3.8964,3.9139,3.9336,3.9394,3.9608,3.9707,3.9414,3.9355,3.9551,3.9687,3.9844,3.9883,3.9824,3.9746,3.9883,3.9883,3.9883,3.9902,4.0,4.0019,4.0019,4.0,3.9941,3.9844,3.9785,3.9785,3.9785,3.9785,3.9824,3.9844,3.9883,3.9883,3.9551,3.9061,3.9198,3.9315,3.9434,3.959,3.9746,3.9708,3.9294,3.9029,3.9202,4.0137,4.0984,4.0701,4.0568,4.055,4.0725,4.1016,4.0919,4.088,4.0821,4.1172,4.1073,3.9537,3.5951,3.2165,2.9819,2.8735,2.8712,2.8213,2.8213,2.8213,2.8213,2.8213,2.8213,2.8213,2.8213,2.8213,2.8213,2.8213,2.8213,2.8213,2.8213,2.8213,2.8213,2.8213,2.8213,2.8213,2.8213,2.8213,2.8213,2.8213,2.8213,2.8213,2.8213,2.8213,2.8213,2.8213,2.8213,2.8213,2.8213,3.8592,3.8592,3.8592,3.8592,3.8592,3.8592,3.8592,3.8592,3.8592,3.8592,3.8592,3.8592,3.8592,3.8612,3.865,3.863,3.8631,3.8729,3.8905,3.9101,3.9141,3.9316,3.9648,3.9766,3.9805,3.9844,3.9922,3.9902,3.9863,3.9844,3.9863,3.998,4.0039,3.9941,4.0078,4.0098,3.9883,3.9922,3.9941,4.0117,4.0371,4.043,4.043,4.0352,4.0176,4.0019,4.0059,4.0059,4.0038,3.998,3.9961,3.9922,3.9883,3.9883,3.9883,3.9785,3.9785,3.9823,3.9843,3.9961,4.0059,4.0116,4.0001,3.9945,4.0084,4.0472,4.117,4.1152,4.1094,4.1074,4.1152,4.1211,4.1211,4.1211,4.1211,4.1211,4.1191,4.0912,3.7181,3.3698,3.105,2.9931,2.9446,2.8768,2.8213,2.8213,2.8213,2.8221,2.8213,2.8213,2.8213,2.8213,2.8213,2.8213,2.8213,2.8213,2.8213,2.8213,2.8213,2.8213,2.8213,2.8213,2.8213,2.8213,2.8213,2.8213,2.8213,2.8213,2.8213,2.8213,2.8213,2.8213,2.8213,2.8213,2.8213,3.8592,3.8592,3.8592,3.8592,3.8592,3.8592,3.8592,3.8592,3.8592,3.8592,3.8592,3.8592,3.8592,3.8651,3.8807,3.8926,3.9003,3.9198,3.9413,3.9569,3.9609,3.9707,3.9864,4.0118,4.0235,4.0312,4.0488,4.0703,4.0566,4.0391,4.0332,4.0605,4.0625,4.0683,4.0546,4.0625,4.0644,4.0664,4.0644,4.0742,4.0859,4.0898,4.0898,4.0879,4.0703,4.0625,4.0585,4.0625,4.0644,4.0644,4.0644,4.0625,4.0644,4.0644,4.0644,4.0644,4.0644,4.0508,4.0313,4.0507,4.0566,4.0625,4.0721,4.0723,4.0724,4.0919,4.1211,4.1191,4.1191,4.1211,4.1211,4.1211,4.1211,4.1211,4.1211,4.1211,4.1152,4.093,3.9143,3.5678,3.2692,3.213,3.1478,3.0925,3.0066,2.9027,2.8733,2.8389,2.8305,2.8213,2.8213,2.8213,2.8213,2.8213,2.8213,2.8213,2.8213,2.8213,2.8213,2.8213,2.8213,2.8213,2.8213,2.8213,2.8213,2.8213,2.8213,2.8213,2.8213,2.8213,2.8213,2.8213,2.8213,2.8213,2.8213,3.8592,3.8592,3.8592,3.8592,3.8592,3.8592,3.8592,3.8592,3.8592,3.8592,3.865,3.871,3.8768,3.8846,3.916,3.9375,3.9394,3.9746,3.9941,4.0019,4.0078,4.0137,4.0351,4.0586,4.0664,4.0664,4.0918,4.1074,4.1015,4.0898,4.084,4.1211,4.1054,4.1132,4.1172,4.1132,4.1074,4.1074,4.1094,4.1132,4.1152,4.1152,4.1172,4.1172,4.1211,4.1211,4.1211,4.1152,4.1152,4.1133,4.1132,4.1074,4.1094,4.1054,4.1074,4.1054,4.1054,4.0976,4.084,4.0937,4.1152,4.1211,4.1211,4.1113,4.1133,4.1211,4.1211,4.1211,4.1211,4.1211,4.1211,4.1211,4.1211,4.1211,4.1211,4.1211,4.1172,4.1011,4.0846,3.8813,3.6353,3.5218,3.451,3.3692,3.234,3.0426,2.9453,2.8825,2.8586,2.8502,2.8202,2.8202,2.8213,2.8213,2.8213,2.8213,2.8213,2.8213,2.8213,2.8213,2.8213,2.8213,2.8213,2.8213,2.8213,2.8213,2.8213,2.8213,2.8213,2.8213,2.8213,2.8213,2.8213,2.8213,2.8213,3.8592,3.8592,3.8592,3.8592,3.8592,3.8592,3.8592,3.8669,3.8631,3.8669,3.8788,3.8983,3.916,3.9277,3.9609,3.9844,3.9844,3.9883,4.0176,4.0391,4.0489,4.0664,4.0859,4.0996,4.1094,4.1094,4.1191,4.1191,4.1172,4.1133,4.1113,4.1211,4.1211,4.1211,4.1211,4.1211,4.1211,4.1211,4.1211,4.1211,4.1211,4.1211,4.1211,4.1211,4.1211,4.1211,4.1211,4.1211,4.1211,4.1211,4.1211,4.1211,4.1211,4.1211,4.1211,4.1211,4.1211,4.1133,4.1113,4.1113,4.1172,4.1211,4.1211,4.1211,4.1211,4.1211,4.1211,4.1211,4.1211,4.1211,4.1211,4.1211,4.1211,4.1211,4.1211,4.1211,4.1191,4.119,4.1028,4.0849,3.9765,3.8172,3.7448,3.662,3.4692,3.2751,3.1064,3.0402,2.9439,2.9126,2.8449,2.8197,2.8207,2.8213,2.8213,2.8213,2.8213,2.8213,2.8213,2.8213,2.8213,2.8213,2.8213,2.8213,2.8213,2.8213,2.8213,2.8213,2.8213,2.8213,2.8213,2.8213,2.8213,2.8213,2.8213,3.8592,3.8592,3.8592,3.8592,3.8592,3.8592,3.8749,3.8964,3.8965,3.9159,3.9375,3.9551,3.9629,3.9746,4.0059,4.0274,4.0313,4.0605,4.0761,4.0859,4.0976,4.1054,4.1191,4.1211,4.1211,4.1211,4.1211,4.1211,4.1211,4.1211,4.1211,4.1211,4.1211,4.1211,4.1211,4.1211,4.1211,4.1211,4.1211,4.1211,4.1211,4.1211,4.1211,4.1211,4.1211,4.1211,4.1211,4.1211,4.1211,4.1211,4.1211,4.1211,4.1211,4.1211,4.1211,4.1211,4.1211,4.1211,4.1211,4.1211,4.1211,4.1211,4.1211,4.1211,4.1211,4.1211,4.1211,4.1211,4.1211,4.1211,4.1211,4.1211,4.1211,4.1211,4.1211,4.1211,4.1191,4.121,4.117,4.0993,4.0916,4.0233,3.9842,3.9511,3.7299,3.5076,3.3437,3.1935,3.1073,2.9897,2.9244,2.8323,2.8194,2.8213,2.8213,2.8213,2.8213,2.8213,2.8213,2.8213,2.8213,2.8213,2.8213,2.8213,2.8213,2.8213,2.8213,2.8213,2.8213,2.8213,2.8213,2.8213,2.8213,2.8213,2.8213,3.8592,3.8612,3.8729,3.8788,3.8788,3.8768,3.9022,3.9375,3.9414,3.957,3.9902,4.0,4.0078,4.0195,4.0508,4.0723,4.0781,4.0976,4.1113,4.1172,4.1152,4.1211,4.1211,4.1211,4.1211,4.1211,4.1211,4.1211,4.1211,4.1211,4.1211,4.1211,4.1211,4.1211,4.1211,4.1211,4.1211,4.1211,4.1211,4.1211,4.1211,4.1211,4.1211,4.1211,4.1211,4.1211,4.1211,4.1211,4.1211,4.1211,4.1211,4.1211,4.1211,4.1211,4.1211,4.1211,4.1211,4.1211,4.1211,4.1211,4.1211,4.1211,4.1211,4.1211,4.1211,4.1211,4.1211,4.1211,4.1211,4.1211,4.1211,4.1211,4.1211,4.1211,4.1211,4.1211,4.1211,4.1211,4.1191,4.1133,4.1094,4.1055,4.088,4.0373,3.8902,3.7419,3.7226,3.5292,3.3237,3.1885,3.0269,2.9202,2.82,2.8213,2.8213,2.8213,2.8213,2.8213,2.8213,2.8213,2.8213,2.8213,2.8213,2.8213,2.8213,2.8213,2.8213,2.8213,2.8213,2.8213,2.8213,2.8213,2.8213,2.8213,2.8213,3.8592,3.8651,3.9004,3.918,3.918,3.9199,3.9453,3.9863,3.9922,3.9961,4.0078,4.0351,4.0508,4.0586,4.0918,4.1054,4.1074,4.1152,4.1211,4.1211,4.1211,4.1211,4.1211,4.1211,4.1211,4.1211,4.1211,4.1211,4.1211,4.1211,4.1211,4.1211,4.1211,4.1211,4.1211,4.1211,4.1211,4.1211,4.1211,4.1211,4.1211,4.1211,4.1211,4.1211,4.1211,4.1211,4.1211,4.1211,4.1211,4.1211,4.1211,4.1211,4.1211,4.1211,4.1211,4.1211,4.1211,4.1211,4.1211,4.1211,4.1211,4.1211,4.1211,4.1211,4.1211,4.1211,4.1211,4.1211,4.1211,4.1211,4.1211,4.1211,4.1211,4.1211,4.1211,4.1211,4.1211,4.1211,4.1211,4.1211,4.1211,4.1191,4.1191,4.088,3.9903,3.9472,4.0256,3.8831,3.5998,3.3575,3.1694,2.9446,2.8213,2.8213,2.8213,2.8213,2.8213,2.8213,2.8213,2.8213,2.8213,2.8213,2.8213,2.82,2.8213,2.8213,2.8213,2.8213,2.8213,2.8213,2.8213,2.8213,2.8213,2.8213,2.8213,3.8592,3.8631,3.9023,3.9375,3.9629,3.9668,3.9922,4.0293,4.0586,4.0761,4.0781,4.0937,4.0976,4.1035,4.1074,4.1211,4.1211,4.1211,4.1211,4.1211,4.1211,4.1211,4.1211,4.1211,4.1211,4.1211,4.1211,4.1211,4.1211,4.1211,4.1211,4.1211,4.1211,4.1211,4.1211,4.1211,4.1211,4.1211,4.1211,4.1211,4.1211,4.1211,4.1211,4.1211,4.1211,4.1211,4.1211,4.1211,4.1211,4.1211,4.1211,4.1211,4.1211,4.1211,4.1211,4.1211,4.1211,4.1211,4.1211,4.1211,4.1211,4.1211,4.1211,4.1211,4.1211,4.1211,4.1211,4.1211,4.1211,4.1211,4.1211,4.1211,4.1211,4.1211,4.1211,4.1211,4.1211,4.1211,4.1211,4.1211,4.1211,4.1211,4.1211,4.1211,4.0431,3.9551,3.9943,4.0086,3.7958,3.5159,3.284,2.9893,2.8213,2.8213,2.8242,2.8712,2.8473,2.8213,2.8213,2.8213,2.8213,2.8213,2.8194,2.8209,2.8194,2.8213,2.8213,2.8213,2.8213,2.8213,2.8213,2.8213,2.8213,2.8213,2.8213,3.8671,3.8846,3.9258,3.9707,4.0078,4.0117,4.0332,4.0742,4.1074,4.1211,4.1191,4.1191,4.1191,4.1191,4.1211,4.1211,4.1211,4.1211,4.1211,4.1211,4.1211,4.1211,4.1211,4.1211,4.1211,4.1211,4.1211,4.1211,4.1211,4.1211,4.1211,4.1211,4.1211,4.1211,4.1211,4.1211,4.1211,4.1211,4.1211,4.1211,4.1211,4.1211,4.1211,4.1211,4.1211,4.1211,4.1211,4.1211,4.1211,4.1211,4.1211,4.1211,4.1211,4.1211,4.1211,4.1211,4.1211,4.1211,4.1211,4.1211,4.1211,4.1211,4.1211,4.1211,4.1211,4.1211,4.1211,4.1211,4.1211,4.1211,4.1211,4.1211,4.1211,4.1211,4.1211,4.1211,4.1211,4.1211,4.1211,4.1211,4.1211,4.1211,4.1211,4.1211,4.0958,4.0119,3.9413,3.949,3.9367,3.6446,3.4333,3.2395,3.0332,3.0553,3.0289,2.9711,2.9265,2.8347,2.8495,2.8838,2.8213,2.82,2.8209,2.8197,2.8196,2.8202,2.82,2.8213,2.8213,2.8213,2.8213,2.8213,2.8213,2.8213,2.8213,3.8827,3.9238,3.9707,4.0117,4.045,4.0489,4.0781,4.1172,4.1211,4.1211,4.1211,4.1211,4.1211,4.1211,4.1211,4.1211,4.1211,4.1211,4.1211,4.1211,4.1211,4.1211,4.1211,4.1211,4.1211,4.1211,4.1211,4.1211,4.1211,4.1211,4.1211,4.1211,4.1211,4.1211,4.1211,4.1211,4.1211,4.1211,4.1211,4.1211,4.1211,4.1211,4.1211,4.1211,4.1211,4.1211,4.1211,4.1211,4.1211,4.1211,4.1211,4.1211,4.1211,4.1211,4.1211,4.1211,4.1211,4.1211,4.1211,4.1211,4.1211,4.1211,4.1211,4.1211,4.1211,4.1211,4.1211,4.1211,4.1211,4.1211,4.1211,4.1211,4.1211,4.1211,4.1211,4.1211,4.1211,4.1211,4.1211,4.1211,4.1211,4.1211,4.1211,4.1211,4.1191,4.0763,3.9885,3.9101,3.8574,3.6479,3.5123,3.6219,3.4507,3.3722,3.3034,3.201,3.1262,3.0717,3.0045,3.0066,2.9202,2.8512,2.8191,2.8212,2.8193,2.8197,2.8199,2.819,2.8213,2.8213,2.8213,2.8213,2.8213,2.8213,2.8213,3.8846,3.9238,3.9707,4.0137,4.0508,4.0859,4.1074,4.1211,4.1211,4.1211,4.1211,4.1211,4.1211,4.1211,4.1211,4.1211,4.1211,4.1211,4.1211,4.1211,4.1211,4.1211,4.1211,4.1211,4.1211,4.1211,4.1211,4.1211,4.1211,4.1211,4.1211,4.1211,4.1211,4.1211,4.1211,4.1211,4.1211,4.1211,4.1211,4.1211,4.1211,4.1211,4.1211,4.1211,4.1211,4.1211,4.1211,4.1211,4.1211,4.1211,4.1211,4.1211,4.1211,4.1211,4.1211,4.1211,4.1211,4.1211,4.1211,4.1211,4.1211,4.1211,4.1211,4.1211,4.1211,4.1211,4.1211,4.1211,4.1211,4.1211,4.1211,4.1211,4.1211,4.1211,4.1211,4.1211,4.1211,4.1211,4.1211,4.1211,4.1211,4.1211,4.1211,4.1211,4.1172,4.0997,4.0529,3.9634,3.8619,3.6852,3.6463,3.7741,3.7982,3.6959,3.5683,3.4576,3.3842,3.3124,3.232,3.181,3.1806,3.0901,2.9077,2.8839,2.9902,2.9271,2.8192,2.8202,2.82,2.8226,2.8226,2.8213,2.8213,2.8226,2.8211,3.9082,3.9512,3.9961,4.0391,4.0781,4.1074,4.1211,4.1211,4.1211,4.1211,4.1211,4.1211,4.1211,4.1211,4.1211,4.1211,4.1211,4.1211,4.1211,4.1211,4.1211,4.1211,4.1211,4.1211,4.1211,4.1211,4.1211,4.1211,4.1211,4.1211,4.1211,4.1211,4.1211,4.1211,4.1211,4.1211,4.1211,4.1211,4.1211,4.1211,4.1211,4.1211,4.1211,4.1211,4.1211,4.1211,4.1211,4.1211,4.1211,4.1211,4.1211,4.1211,4.1211,4.1211,4.1211,4.1211,4.1211,4.1211,4.1211,4.1211,4.1211,4.1211,4.1211,4.1211,4.1211,4.1211,4.1211,4.1211,4.1211,4.1211,4.1211,4.1211,4.1211,4.1211,4.1211,4.1211,4.1211,4.1211,4.1211,4.1211,4.1211,4.1211,4.1211,4.1211,4.1191,4.1133,4.1094,4.0763,4.014,3.9241,3.9002,3.9795,4.0141,3.994,3.8497,3.6874,3.5827,3.4874,3.3961,3.3684,3.4087,3.39,3.265,3.2258,3.2361,3.0872,2.8758,2.8338,2.8226,2.828,2.8393,2.8452,2.8412,2.8312,2.8283,3.9473,3.9922,4.0352,4.0781,4.1152,4.1211,4.1211,4.1211,4.1211,4.1211,4.1211,4.1211,4.1211,4.1211,4.1211,4.1211,4.1211,4.1211,4.1211,4.1211,4.1211,4.1211,4.1211,4.1211,4.1211,4.1211,4.1211,4.1211,4.1211,4.1211,4.1211,4.1211,4.1211,4.1211,4.1211,4.1211,4.1211,4.1211,4.1211,4.1211,4.1211,4.1211,4.1211,4.1211,4.1211,4.1211,4.1211,4.1211,4.1211,4.1211,4.1211,4.1211,4.1211,4.1211,4.1211,4.1211,4.1211,4.1211,4.1211,4.1211,4.1211,4.1211,4.1211,4.1211,4.1211,4.1211,4.1211,4.1211,4.1211,4.1211,4.1211,4.1211,4.1211,4.1211,4.1211,4.1211,4.1211,4.1211,4.1211,4.1211,4.1211,4.1211,4.1211,4.1211,4.1211,4.1211,4.1211,4.1211,4.1016,4.0607,4.0762,4.1113,4.1073,4.0973,4.0403,3.8869,3.7552,3.6542,3.592,3.602,3.673,3.6699,3.6432,3.4053,3.1377,3.0807,2.946,2.8896,2.8486,2.8564,2.8671,2.8743,2.8698,2.8559,2.8348,3.9491,3.9961,4.0703,4.1113,4.1211,4.1211,4.1211,4.1211,4.1211,4.1211,4.1211,4.1211,4.1211,4.1211,4.1211,4.1211,4.1211,4.1211,4.1211,4.1211,4.1211,4.1211,4.1211,4.1211,4.1211,4.1211,4.1211,4.1211,4.1211,4.1211,4.1211,4.1211,4.1211,4.1211,4.1211,4.1211,4.1211,4.1211,4.1211,4.1211,4.1211,4.1211,4.1211,4.1211,4.1211,4.1211,4.1211,4.1211,4.1211,4.1211,4.1211,4.1211,4.1211,4.1211,4.1211,4.1211,4.1211,4.1211,4.1211,4.1211,4.1211,4.1211,4.1211,4.1211,4.1211,4.1211,4.1211,4.1211,4.1211,4.1211,4.1211,4.1211,4.1211,4.1211,4.1211,4.1211,4.1211,4.1211,4.1211,4.1211,4.1211,4.1211,4.1211,4.1211,4.1211,4.1211,4.1211,4.1211,4.1211,4.0958,4.0919,4.1152,4.1191,4.1094,4.0937,4.0643,3.9254,3.9158,3.8922,3.9099,3.9293,3.8046,3.6571,3.232,2.9486,2.9544,2.9611,2.9176,2.8874,2.8911,2.8943,2.901,2.905,2.8951,2.8603,3.9766,4.0215,4.0918,4.1211,4.1211,4.1211,4.1211,4.1211,4.1211,4.1211,4.1211,4.1211,4.1211,4.1211,4.1211,4.1211,4.1211,4.1211,4.1211,4.1211,4.1211,4.1211,4.1211,4.1211,4.1211,4.1211,4.1211,4.1211,4.1211,4.1211,4.1211,4.1211,4.1211,4.1211,4.1211,4.1211,4.1211,4.1211,4.1211,4.1211,4.1211,4.1211,4.1211,4.1211,4.1211,4.1211,4.1211,4.1211,4.1211,4.1211,4.1211,4.1211,4.1211,4.1211,4.1211,4.1211,4.1211,4.1211,4.1211,4.1211,4.1211,4.1211,4.1211,4.1211,4.1211,4.1211,4.1211,4.1211,4.1211,4.1211,4.1211,4.1211,4.1211,4.1211,4.1211,4.1211,4.1211,4.1211,4.1211,4.1211,4.1211,4.1211,4.1211,4.1211,4.1211,4.1211,4.1211,4.1211,4.1211,4.1211,4.1211,4.1211,4.1211,4.1211,4.1094,4.1094,4.0763,4.0977,4.1211,4.0817,4.0061,3.8465,3.6255,3.1963,2.939,2.952,2.9467,2.9442,2.9269,2.9205,2.9245,2.9285,2.929,2.933,2.9163,4.0156,4.0606,4.1035,4.1211,4.1211,4.1211,4.1211,4.1211,4.1211,4.1211,4.1211,4.1211,4.1211,4.1211,4.1211,4.1211,4.1211,4.1211,4.1211,4.1211,4.1211,4.1211,4.1211,4.1211,4.1211,4.1211,4.1211,4.1211,4.1211,4.1211,4.1211,4.1211,4.1211,4.1211,4.1211,4.1211,4.1211,4.1211,4.1211,4.1211,4.1211,4.1211,4.1211,4.1211,4.1211,4.1211,4.1211,4.1211,4.1211,4.1211,4.1211,4.1211,4.1211,4.1211,4.1211,4.1211,4.1211,4.1211,4.1211,4.1211,4.1211,4.1211,4.1211,4.1211,4.1211,4.1211,4.1211,4.1211,4.1211,4.1211,4.1211,4.1211,4.1211,4.1211,4.1211,4.1211,4.1211,4.1211,4.1211,4.1211,4.1211,4.1211,4.1211,4.1211,4.1211,4.1211,4.1211,4.1211,4.1211,4.1211,4.1211,4.1211,4.1211,4.1211,4.1211,4.123,4.123,4.1269,4.1289,4.1264,4.0596,3.8361,3.5438,3.1488,2.9641,3.2003,3.093,3.0206,2.9978,2.998,2.9539,2.9579,2.9633,2.9686,2.978,4.0371,4.1074,4.1191,4.1211,4.1211,4.1211,4.1211,4.1211,4.1211,4.1211,4.1211,4.1211,4.1211,4.1211,4.1211,4.1211,4.1211,4.1211,4.1211,4.1211,4.1211,4.1211,4.1211,4.1211,4.1211,4.1211,4.1211,4.1211,4.1211,4.1211,4.1211,4.1211,4.1211,4.1211,4.1211,4.1211,4.1211,4.1211,4.1211,4.1211,4.1211,4.1211,4.1211,4.1211,4.1211,4.1211,4.1211,4.1211,4.1211,4.1211,4.1211,4.1211,4.1211,4.1211,4.1211,4.1211,4.1211,4.1211,4.1211,4.1211,4.1211,4.1211,4.1211,4.1211,4.1211,4.1211,4.1211,4.1211,4.1211,4.1211,4.1211,4.1211,4.1211,4.1211,4.1211,4.1211,4.1211,4.1211,4.1211,4.1211,4.1211,4.1211,4.1211,4.1211,4.1211,4.1211,4.1211,4.1211,4.1211,4.1211,4.1211,4.1211,4.1211,4.1211,4.1211,4.1269,4.1308,4.1348,4.1445,4.1533,4.0422,3.7625,3.4623,3.3499,3.5039,3.7682,3.5811,3.2815,3.1508,3.1428,3.0284,2.986,3.0025,2.9913,2.9913]}]]